AXGD100 Flymaster F1, V1.21, S/N 1200
HFDTE261212
HOPLTPILOT: Alain Marco Curion Cirerol
HOGTYGLIDERTYPE: Wintech Fenix
HOGIDGLIDERID: None
HODTM100GPSDATUM: WGS-84
HOCIDCOMPETITIONID: 
HOCCLCOMPETITION CLASS: Sport
HOSITSite: None
B1205533653799N00255026WA0107301212
B1205543653796N00255024WA0107601212
B1205553653793N00255023WA0107301212
B1205563653790N00255021WA0107501212
B1205573653786N00255018WA0107501211
B1205583653784N00255016WA0107701211
B1205593653782N00255015WA0107901211
B1206003653781N00255014WA0108201211
B1206013653780N00255015WA0108301211
B1206023653778N00255016WA0108401211
B1206033653776N00255018WA0108301211
B1206043653773N00255021WA0108301211
B1206053653771N00255024WA0108301211
B1206063653771N00255028WA0108401211
B1206073653772N00255031WA0108601211
B1206083653774N00255034WA0108801211
B1206093653776N00255038WA0108801212
B1206083653780N00255041WA0108901212
B1206093653785N00255044WA0108901212
B1206103653792N00255043WA0108901213
B1206113653798N00255040WA0108901213
B1206123653803N00255036WA0109101214
B1206133653807N00255031WA0109101215
B1206143653809N00255025WA0109001215
B1206153653809N00255019WA0108901216
B1206163653809N00255012WA0109001217
B1206173653808N00255006WA0109201216
B1206183653806N00255002WA0109501216
B1206193653804N00254999WA0109701216
B1206203653802N00254998WA0109801216
B1206213653799N00254998WA0109901216
B1206223653797N00254998WA0109901216
B1206233653795N00255000WA0109901216
B1206243653794N00255003WA0109801217
B1206253653792N00255007WA0109701217
B1206263653790N00255011WA0109601217
B1206273653789N00255016WA0109601218
B1206283653788N00255021WA0109601219
B1206293653786N00255026WA0109701220
B1206303653785N00255030WA0109801221
B1206313653783N00255034WA0109901222
B1206323653781N00255037WA0110001223
B1206333653779N00255038WA0110001224
B1206343653777N00255040WA0110001225
B1206353653775N00255042WA0110001226
B1206363653772N00255045WA0110001227
B1206373653770N00255050WA0109901227
B1206383653768N00255055WA0109901227
B1206393653766N00255059WA0110101228
B1206403653764N00255064WA0110201229
B1206413653763N00255067WA0110401231
B1206423653762N00255070WA0110501233
B1206433653762N00255074WA0110501235
B1206443653763N00255077WA0110401236
B1206453653765N00255081WA0110301237
B1206463653768N00255086WA0110201237
B1206473653773N00255091WA0110001236
B1206483653779N00255094WA0110001235
B1206493653786N00255093WA0109901234
B1206503653793N00255089WA0109901233
B1206513653798N00255082WA0109901232
B1206523653803N00255074WA0110001232
B1206533653806N00255067WA0110201233
B1206543653808N00255060WA0110401234
B1206553653809N00255054WA0110401235
B1206563653809N00255048WA0110301236
B1206573653809N00255042WA0110301236
B1206583653809N00255036WA0110101236
B1206593653807N00255029WA0110001235
B1207003653805N00255023WA0110001234
B1207013653802N00255019WA0110001234
B1207023653799N00255015WA0110101234
B1207033653795N00255013WA0110201235
B1207043653791N00255012WA0110401238
B1207053653788N00255012WA0110501239
B1207063653785N00255012WA0110801241
B1207073653783N00255012WA0111001243
B1207083653781N00255012WA0111201244
B1207093653778N00255014WA0111201246
B1207103653776N00255015WA0111401247
B1207113653773N00255017WA0111601248
B1207123653771N00255019WA0111801250
B1207133653769N00255022WA0112001251
B1207143653767N00255026WA0112101252
B1207153653767N00255031WA0112201253
B1207163653768N00255035WA0112201254
B1207173653770N00255039WA0112301249
B1207183653772N00255044WA0112501250
B1207193653774N00255050WA0112501250
B1207203653778N00255054WA0112501251
B1207213653784N00255058WA0112601253
B1207223653789N00255060WA0112901254
B1207233653794N00255060WA0113001256
B1207243653798N00255059WA0113001257
B1207253653803N00255056WA0113101259
B1207263653808N00255053WA0112901260
B1207273653812N00255048WA0112901258
B1207283653816N00255041WA0112701258
B1207293653819N00255033WA0112901258
B1207303653820N00255026WA0112901258
B1207313653821N00255020WA0113101260
B1207323653820N00255014WA0113201262
B1207333653818N00255009WA0113401264
B1207343653816N00255003WA0113501265
B1207353653813N00254999WA0113601266
B1207363653811N00254994WA0113801267
B1207373653808N00254990WA0114001269
B1207383653805N00254987WA0114201271
B1207393653803N00254983WA0114401274
B1207403653800N00254981WA0114601276
B1207413653797N00254978WA0114701277
B1207423653793N00254977WA0114701279
B1207433653790N00254976WA0114801279
B1207443653788N00254974WA0114701279
B1207453653785N00254973WA0114601279
B1207463653782N00254972WA0114401278
B1207473653778N00254973WA0114201276
B1207483653775N00254975WA0113901275
B1207493653771N00254980WA0113901274
B1207503653769N00254983WA0114101274
B1207513653769N00254986WA0114401275
B1207523653768N00254990WA0114701277
B1207533653768N00254993WA0114901279
B1207543653768N00254997WA0114901281
B1207553653768N00255002WA0114901282
B1207563653769N00255007WA0114901283
B1207573653771N00255012WA0114801284
B1207583653775N00255018WA0114801284
B1207593653779N00255023WA0115001285
B1208003653783N00255028WA0115101285
B1208013653787N00255033WA0115201287
B1208023653790N00255037WA0115201288
B1208033653793N00255042WA0115201289
B1208043653798N00255046WA0115301290
B1208053653805N00255048WA0115401290
B1208063653813N00255049WA0115501292
B1208073653820N00255048WA0115701293
B1208083653826N00255046WA0116101296
B1208093653831N00255042WA0116201298
B1208103653836N00255037WA0116201299
B1208113653840N00255031WA0116101299
B1208123653843N00255024WA0116101299
B1208133653845N00255017WA0116301300
B1208143653846N00255010WA0116401300
B1208153653847N00255004WA0116501301
B1208163653849N00254998WA0116601302
B1208173653850N00254991WA0116801303
B1208183653850N00254984WA0117001304
B1208193653850N00254978WA0117101306
B1208203653848N00254973WA0117001307
B1208213653845N00254970WA0117201307
B1208223653842N00254966WA0117501308
B1208233653838N00254964WA0117601309
B1208243653835N00254963WA0117801311
B1208253653832N00254962WA0117901313
B1208263653829N00254962WA0118001314
B1208273653826N00254963WA0118201315
B1208283653824N00254964WA0118401317
B1208293653822N00254965WA0118501318
B1208303653820N00254967WA0118501319
B1208313653819N00254969WA0118501320
B1208323653818N00254972WA0118401320
B1208333653816N00254977WA0118501319
B1208343653815N00254983WA0118301319
B1208353653814N00254987WA0118501319
B1208363653815N00254991WA0118701321
B1208373653816N00254995WA0119001323
B1208383653817N00254998WA0119001324
B1208393653819N00255002WA0119001326
B1208403653822N00255008WA0118901325
B1208413653827N00255014WA0118901324
B1208423653832N00255018WA0118901324
B1208433653838N00255021WA0119101326
B1208443653845N00255022WA0119301327
B1208453653851N00255022WA0119501329
B1208463653856N00255022WA0119601331
B1208473653862N00255020WA0119701332
B1208483653868N00255018WA0119701332
B1208493653874N00255016WA0119601332
B1208503653880N00255012WA0119601332
B1208513653886N00255008WA0119601333
B1208523653891N00255005WA0119701334
B1208533653895N00255001WA0119701334
B1208543653899N00254998WA0119601335
B1208553653903N00254994WA0119501335
B1208563653907N00254988WA0119301334
B1208573653911N00254980WA0119301332
B1208583653915N00254972WA0119301332
B1208593653919N00254965WA0119601332
B1209003653923N00254958WA0119801335
B1209013653927N00254952WA0120101338
B1209023653930N00254946WA0120501341
B1209033653931N00254940WA0120801343
B1209043653930N00254933WA0120801344
B1209053653928N00254926WA0121001344
B1209063653925N00254921WA0121301345
B1209073653922N00254917WA0121701349
B1209083653919N00254914WA0122001352
B1209093653917N00254913WA0122201355
B1209103653915N00254913WA0122501358
B1209113653913N00254913WA0122601360
B1209123653911N00254914WA0122701362
B1209133653909N00254916WA0122501363
B1209143653908N00254920WA0122501362
B1209153653907N00254924WA0122501362
B1209163653907N00254930WA0122601362
B1209173653907N00254935WA0122901363
B1209183653909N00254940WA0123101365
B1209193653910N00254945WA0123501367
B1209203653913N00254948WA0123801369
B1209213653915N00254952WA0124001372
B1209223653919N00254954WA0124101374
B1209233653924N00254956WA0124201376
B1209243653929N00254957WA0124101377
B1209253653935N00254957WA0124201377
B1209263653942N00254956WA0124301379
B1209273653947N00254953WA0124601381
B1209283653952N00254950WA0124701382
B1209293653955N00254944WA0124801384
B1209303653957N00254937WA0124901385
B1209313653959N00254929WA0125001385
B1209323653958N00254922WA0125201386
B1209333653957N00254916WA0125401388
B1209343653956N00254911WA0125701393
B1209353653953N00254908WA0126001395
B1209363653950N00254906WA0126101396
B1209373653946N00254905WA0126301398
B1209383653942N00254904WA0126401399
B1209393653939N00254905WA0126701401
B1209403653937N00254908WA0126901404
B1209413653937N00254911WA0127001406
B1209423653936N00254915WA0127201407
B1209433653936N00254920WA0127301408
B1209443653934N00254925WA0127501409
B1209453653931N00254929WA0127501410
B1209463653927N00254932WA0127701410
B1209473653925N00254935WA0128101412
B1209483653924N00254938WA0128401415
B1209493653924N00254941WA0128501418
B1209503653926N00254944WA0128501419
B1209513653929N00254948WA0128501420
B1209523653934N00254952WA0128401421
B1209533653938N00254956WA0128401421
B1209543653943N00254959WA0128401421
B1209553653947N00254963WA0128401422
B1209563653952N00254967WA0128401422
B1209573653956N00254972WA0128301422
B1209583653959N00254976WA0128201421
B1209593653963N00254978WA0128201421
B1210003653967N00254981WA0128101421
B1210013653973N00254982WA0127801420
B1210023653979N00254983WA0127801418
B1210033653986N00254983WA0127701416
B1210043653992N00254982WA0127701415
B1210053653998N00254981WA0127701415
B1210063654003N00254981WA0127701415
B1210073654009N00254981WA0127501414
B1210083654015N00254980WA0127501413
B1210093654021N00254979WA0127501412
B1210103654027N00254976WA0127601412
B1210113654032N00254973WA0127501411
B1210123654037N00254969WA0127501411
B1210133654041N00254964WA0127501411
B1210143654044N00254959WA0127401410
B1210153654048N00254953WA0127101409
B1210163654050N00254945WA0127101407
B1210173654052N00254937WA0126901405
B1210183654053N00254930WA0126701403
B1210193654054N00254923WA0126701402
B1210203654054N00254917WA0126601401
B1210213654054N00254910WA0126401399
B1210223654054N00254903WA0126201398
B1210233654053N00254896WA0126101396
B1210243654052N00254889WA0126001395
B1210253654049N00254883WA0126001394
B1210263654046N00254877WA0125901393
B1210273654043N00254873WA0125901392
B1210283654039N00254868WA0126001392
B1210293654035N00254864WA0126001393
B1210303654032N00254859WA0126201394
B1210313654029N00254853WA0126401396
B1210323654027N00254847WA0126601397
B1210333654025N00254842WA0127001400
B1210343654023N00254837WA0127201403
B1210353654021N00254833WA0127501406
B1210363654019N00254831WA0127601408
B1210373654017N00254830WA0127501410
B1210383654014N00254832WA0127501411
B1210393654013N00254835WA0127501411
B1210403654011N00254839WA0127401411
B1210413654011N00254844WA0127501411
B1210423654011N00254849WA0127601412
B1210433654012N00254854WA0127701412
B1210443654014N00254860WA0127601413
B1210453654016N00254866WA0127701414
B1210463654021N00254871WA0127901414
B1210473654026N00254875WA0128101416
B1210483654032N00254877WA0128201418
B1210493654037N00254877WA0128401419
B1210503654042N00254875WA0128501421
B1210513654046N00254873WA0128501422
B1210523654050N00254869WA0128501423
B1210533654055N00254864WA0128401424
B1210543654059N00254859WA0128401424
B1210553654063N00254853WA0128301422
B1210563654065N00254846WA0128301422
B1210573654066N00254840WA0128201421
B1210583654066N00254833WA0128201421
B1210593654065N00254826WA0128201419
B1211003654063N00254819WA0128101418
B1211013654062N00254811WA0128301417
B1211023654059N00254804WA0128401417
B1211033654057N00254797WA0128501419
B1211043654055N00254790WA0128601420
B1211053654054N00254784WA0128801421
B1211063654052N00254779WA0128701422
B1211073654051N00254775WA0128601422
B1211083654049N00254771WA0128501422
B1211093654046N00254769WA0128401421
B1211103654042N00254768WA0128201419
B1211113654038N00254769WA0127901417
B1211123654035N00254771WA0127801416
B1211133654032N00254774WA0127701415
B1211143654030N00254777WA0127801414
B1211153654028N00254780WA0127801415
B1211163654027N00254784WA0127701414
B1211173654025N00254788WA0127401413
B1211183654024N00254792WA0127301411
B1211193654022N00254797WA0127101409
B1211203654020N00254802WA0127001408
B1211213654018N00254807WA0127201408
B1211223654016N00254811WA0127201407
B1211233654016N00254816WA0127201407
B1211243654016N00254821WA0127201407
B1211253654017N00254827WA0127101407
B1211263654019N00254832WA0127101406
B1211273654021N00254839WA0127401406
B1211283654023N00254844WA0127501407
B1211293654025N00254848WA0127801409
B1211303654028N00254853WA0128001411
B1211313654030N00254857WA0128301413
B1211323654033N00254862WA0128301415
B1211333654036N00254867WA0128501416
B1211343654041N00254871WA0128501417
B1211353654047N00254873WA0128601417
B1211363654053N00254873WA0128601418
B1211373654059N00254871WA0128501419
B1211383654064N00254866WA0128601420
B1211393654067N00254859WA0128501420
B1211403654069N00254850WA0128501420
B1211413654068N00254842WA0128401419
B1211423654066N00254835WA0128301418
B1211433654062N00254829WA0128201417
B1211443654059N00254826WA0128201417
B1211453654055N00254824WA0128101417
B1211463654051N00254824WA0128101417
B1211473654047N00254826WA0128001416
B1211483654043N00254829WA0128101415
B1211493654041N00254833WA0128201416
B1211503654040N00254838WA0128601418
B1211513654039N00254842WA0128901421
B1211523654040N00254845WA0129101423
B1211533654041N00254849WA0129401425
B1211543654041N00254854WA0129401426
B1211553654043N00254859WA0129501428
B1211563654045N00254865WA0129601429
B1211573654048N00254870WA0129701431
B1211583654052N00254874WA0129801432
B1211593654055N00254876WA0129901434
B1212003654058N00254879WA0129801436
B1212013654062N00254880WA0129701436
B1212023654066N00254881WA0129601435
B1212033654071N00254883WA0129301434
B1212043654078N00254884WA0129201431
B1212053654085N00254884WA0129001429
B1212063654091N00254884WA0128901428
B1212073654096N00254883WA0128701427
B1212083654101N00254882WA0128601426
B1212093654106N00254881WA0128401424
B1212103654112N00254879WA0127901422
B1212113654117N00254875WA0127801417
B1212123654122N00254869WA0127601414
B1212133654125N00254863WA0127501412
B1212143654127N00254857WA0127301411
B1212153654128N00254851WA0127201410
B1212163654128N00254845WA0127101408
B1212173654127N00254838WA0126901406
B1212183654125N00254832WA0126801404
B1212193654122N00254827WA0126701401
B1212203654118N00254822WA0126601400
B1212213654114N00254818WA0126501399
B1212223654110N00254815WA0126501398
B1212233654106N00254812WA0126501397
B1212243654101N00254810WA0126501397
B1212253654096N00254809WA0126401396
B1212263654091N00254809WA0126301395
B1212273654086N00254809WA0126201394
B1212283654081N00254809WA0126101396
B1212293654077N00254809WA0126101396
B1212303654072N00254810WA0126001396
B1212313654068N00254811WA0126001395
B1212323654063N00254812WA0126001395
B1212333654059N00254812WA0125901395
B1212343654054N00254813WA0126101395
B1212353654050N00254815WA0126201395
B1212363654046N00254818WA0126201396
B1212373654042N00254820WA0126201396
B1212383654039N00254822WA0126301396
B1212393654035N00254823WA0126401397
B1212403654032N00254824WA0126401397
B1212413654029N00254826WA0126601396
B1212423654026N00254827WA0126701396
B1212433654024N00254829WA0126801396
B1212443654021N00254831WA0126901397
B1212453654019N00254834WA0126901397
B1212463654016N00254836WA0126801397
B1212473654012N00254839WA0126601397
B1212483654008N00254841WA0126501396
B1212493654004N00254843WA0126501396
B1212503653999N00254845WA0126501395
B1212513653995N00254846WA0126401395
B1212523653992N00254847WA0126501394
B1212533653989N00254848WA0126401394
B1212543653986N00254849WA0126301394
B1212553653982N00254850WA0126101393
B1212563653978N00254852WA0125701391
B1212573653973N00254852WA0125501387
B1212583653969N00254853WA0125401386
B1212593653965N00254854WA0125301385
B1213003653961N00254856WA0125401385
B1213013653958N00254859WA0125501385
B1213023653956N00254861WA0125301385
B1213033653954N00254864WA0125301384
B1213043653952N00254866WA0125101383
B1213053653950N00254868WA0124801382
B1213063653947N00254872WA0124501379
B1213073653944N00254877WA0124101375
B1213083653941N00254882WA0124001373
B1213093653938N00254886WA0123901372
B1213103653935N00254888WA0123801371
B1213113653933N00254891WA0123801370
B1213123653931N00254894WA0123401369
B1213133653928N00254898WA0123001366
B1213143653925N00254904WA0122701362
B1213153653923N00254911WA0122501359
B1213163653921N00254916WA0122501359
B1213173653919N00254921WA0122601360
B1213183653918N00254924WA0122601361
B1213193653916N00254928WA0122501360
B1213203653915N00254932WA0122301360
B1213213653914N00254938WA0122101358
B1213223653913N00254944WA0121801355
B1213233653911N00254950WA0121601353
B1213243653910N00254957WA0121501351
B1213253653908N00254963WA0121501350
B1213263653906N00254969WA0121601349
B1213273653904N00254974WA0121601349
B1213283653902N00254979WA0121601349
B1213293653901N00254985WA0121601348
B1213303653901N00254991WA0121601348
B1213313653900N00254997WA0121601348
B1213323653901N00255003WA0121701348
B1213333653901N00255011WA0121901349
B1213343653903N00255019WA0122001349
B1213353653905N00255026WA0122201350
B1213363653908N00255032WA0122201351
B1213373653912N00255036WA0122301353
B1213383653917N00255039WA0122401355
B1213393653924N00255041WA0122401356
B1213403653930N00255040WA0122501356
B1213413653937N00255038WA0122501356
B1213423653942N00255034WA0122401357
B1213433653946N00255028WA0122701358
B1213443653950N00255021WA0122801359
B1213453653952N00255014WA0122901360
B1213463653952N00255007WA0123001361
B1213473653952N00255000WA0123101362
B1213483653951N00254994WA0123301365
B1213493653949N00254989WA0123501366
B1213503653947N00254984WA0123701368
B1213513653943N00254981WA0123801369
B1213523653939N00254979WA0123901370
B1213533653935N00254978WA0124001372
B1213543653932N00254979WA0124201373
B1213553653929N00254981WA0124401376
B1213563653926N00254985WA0124501378
B1213573653925N00254991WA0124601378
B1213583653924N00254997WA0124701379
B1213593653926N00255004WA0124901380
B1214003653928N00255010WA0125101382
B1214013653932N00255016WA0125101383
B1214023653936N00255022WA0125301384
B1214033653941N00255026WA0125301385
B1214043653948N00255030WA0125301386
B1214053653954N00255031WA0125401387
B1214063653961N00255031WA0125501388
B1214073653967N00255029WA0125701389
B1214083653972N00255026WA0125801391
B1214093653976N00255022WA0126001393
B1214103653980N00255017WA0126201394
B1214113653983N00255011WA0126201396
B1214123653985N00255004WA0126201397
B1214133653987N00254997WA0126101397
B1214143653987N00254990WA0126201397
B1214153653987N00254983WA0126501397
B1214163653988N00254976WA0126701399
B1214173653988N00254971WA0126901401
B1214183653988N00254967WA0127001403
B1214193653987N00254964WA0127101405
B1214203653986N00254961WA0127101406
B1214213653984N00254956WA0126801406
B1214223653981N00254953WA0126801405
B1214233653976N00254951WA0126601404
B1214243653971N00254950WA0126701403
B1214253653967N00254951WA0126801402
B1214263653963N00254953WA0126901403
B1214273653961N00254956WA0127101404
B1214283653959N00254959WA0127301406
B1214293653958N00254963WA0127501408
B1214303653957N00254968WA0127601409
B1214313653957N00254974WA0127701409
B1214323653957N00254979WA0127801410
B1214333653959N00254985WA0127901412
B1214343653961N00254990WA0128201413
B1214353653965N00254995WA0128301415
B1214363653969N00254999WA0128401417
B1214373653973N00255003WA0128501418
B1214383653978N00255006WA0128601420
B1214393653983N00255008WA0128701421
B1214403653989N00255008WA0128601421
B1214413653994N00255007WA0128501421
B1214423654000N00255004WA0128601421
B1214433654004N00255000WA0128601422
B1214443654008N00254995WA0128801422
B1214453654010N00254991WA0128801423
B1214463654012N00254986WA0128901424
B1214473654014N00254980WA0128701424
B1214483654015N00254973WA0128601422
B1214493654015N00254966WA0128701421
B1214503654014N00254960WA0128801422
B1214513654012N00254954WA0129001425
B1214523654010N00254950WA0129201427
B1214533654008N00254946WA0129201428
B1214543654005N00254943WA0129201429
B1214553654001N00254939WA0129101429
B1214563653997N00254937WA0129001428
B1214573653993N00254936WA0129001428
B1214583653989N00254937WA0129001427
B1214593653985N00254939WA0129101427
B1215003653982N00254941WA0129001427
B1215013653979N00254943WA0129101427
B1215023653977N00254947WA0129101427
B1215033653974N00254951WA0129201427
B1215043653972N00254956WA0129201427
B1215053653971N00254962WA0129301427
B1215063653970N00254969WA0129501428
B1215073653970N00254976WA0129801430
B1215083653970N00254981WA0130201433
B1215093653973N00254985WA0130301435
B1215103653976N00254990WA0130301437
B1215113653980N00254996WA0130401438
B1215123653984N00255002WA0130501438
B1215133653988N00255007WA0130801440
B1215143653992N00255011WA0130901442
B1215153653997N00255014WA0131101444
B1215163654002N00255015WA0131101446
B1215173654007N00255014WA0131101447
B1215183654012N00255012WA0131101446
B1215193654017N00255009WA0131101446
B1215203654022N00255004WA0131101447
B1215213654025N00254999WA0131101447
B1215223654026N00254993WA0131201445
B1215233654027N00254987WA0131301445
B1215243654026N00254981WA0131201445
B1215253654023N00254976WA0131201445
B1215263654021N00254971WA0131401445
B1215273654018N00254966WA0131501447
B1215283654015N00254963WA0131801448
B1215293654013N00254961WA0132001450
B1215303654009N00254960WA0132001451
B1215313654005N00254960WA0132001452
B1215323654001N00254961WA0132101453
B1215333653998N00254964WA0132401454
B1215343653995N00254968WA0132601456
B1215353653993N00254973WA0132601457
B1215363653992N00254977WA0132801460
B1215373653992N00254982WA0132901461
B1215383653994N00254987WA0132801463
B1215393653996N00254992WA0132801463
B1215403653999N00254997WA0132701464
B1215413654004N00255002WA0132701464
B1215423654010N00255007WA0132501464
B1215433654017N00255010WA0132601463
B1215443654024N00255012WA0132601463
B1215453654031N00255013WA0132701463
B1215463654037N00255014WA0132901465
B1215473654042N00255014WA0133001465
B1215483654047N00255013WA0132901465
B1215493654052N00255011WA0132801465
B1215503654057N00255008WA0132501463
B1215513654060N00255003WA0132301461
B1215523654062N00254996WA0132101458
B1215533654063N00254989WA0132001455
B1215543654063N00254982WA0131801454
B1215553654062N00254975WA0131701452
B1215563654060N00254969WA0131601451
B1215573654059N00254963WA0131401450
B1215583654057N00254957WA0131401449
B1215593654055N00254951WA0131401448
B1216003654052N00254946WA0131401447
B1216013654048N00254943WA0131501446
B1216023654044N00254940WA0131601447
B1216033654040N00254938WA0131701447
B1216043654036N00254935WA0131801448
B1216053654032N00254933WA0132001449
B1216063654029N00254932WA0131901449
B1216073654025N00254931WA0131801449
B1216083654021N00254931WA0131701449
B1216093654017N00254930WA0131501448
B1216103654012N00254930WA0131301447
B1216113654007N00254930WA0131301446
B1216123654002N00254929WA0131301446
B1216133653997N00254929WA0131501447
B1216143653992N00254928WA0131701448
B1216153653987N00254928WA0132001449
B1216163653983N00254929WA0132301451
B1216173653980N00254930WA0132401453
B1216183653976N00254931WA0132501455
B1216193653973N00254932WA0132401452
B1216203653969N00254935WA0132301452
B1216213653965N00254937WA0132201452
B1216223653961N00254940WA0132201452
B1216233653957N00254942WA0132201452
B1216243653953N00254943WA0132301452
B1216253653949N00254946WA0132401453
B1216263653946N00254949WA0132501454
B1216273653944N00254952WA0132601454
B1216283653941N00254955WA0132601455
B1216293653938N00254959WA0132701455
B1216303653936N00254963WA0132801456
B1216313653933N00254968WA0133001458
B1216323653930N00254972WA0133101459
B1216333653928N00254977WA0133201461
B1216343653926N00254982WA0133301462
B1216353653925N00254987WA0133401464
B1216363653923N00254993WA0133401465
B1216373653922N00254999WA0133401465
B1216383653921N00255005WA0133401465
B1216393653918N00255012WA0133501465
B1216403653915N00255018WA0133701466
B1216413653912N00255022WA0133701468
B1216423653908N00255025WA0133901470
B1216433653905N00255028WA0134001471
B1216443653902N00255032WA0134101473
B1216453653899N00255037WA0134301473
B1216463653895N00255040WA0134301474
B1216473653890N00255042WA0134401476
B1216483653886N00255042WA0134201476
B1216493653882N00255042WA0134301476
B1216503653877N00255043WA0134301475
B1216513653872N00255044WA0134201475
B1216523653868N00255048WA0134001474
B1216533653864N00255052WA0134001474
B1216543653861N00255056WA0134101474
B1216553653859N00255058WA0134201475
B1216563653856N00255060WA0134201476
B1216573653854N00255063WA0134101475
B1216583653850N00255067WA0133901474
B1216593653845N00255072WA0133701473
B1217003653839N00255075WA0133701471
B1217013653833N00255075WA0133601469
B1217023653827N00255074WA0133501468
B1217033653822N00255071WA0133301467
B1217043653818N00255069WA0133301466
B1217053653815N00255068WA0133101465
B1217063653810N00255068WA0132901464
B1217073653805N00255069WA0132701462
B1217083653800N00255069WA0132401459
B1217093653795N00255069WA0132401457
B1217103653790N00255069WA0132201456
B1217113653787N00255069WA0132001454
B1217123653783N00255069WA0132001452
B1217133653779N00255069WA0131701450
B1217143653775N00255067WA0131401448
B1217153653771N00255063WA0131201445
B1217163653769N00255058WA0130701442
B1217173653766N00255053WA0130701439
B1217183653763N00255050WA0130401438
B1217193653758N00255050WA0130201436
B1217203653753N00255054WA0129701432
B1217213653750N00255062WA0129301428
B1217223653752N00255070WA0128901424
B1217233653758N00255074WA0128501420
B1217243653764N00255070WA0127701416
B1217253653765N00255060WA0126701406
B1217263653757N00255055WA0126001399
B1217273653750N00255060WA0125301392
B1217283653754N00255071WA0123801380
B1217293653763N00255073WA0122501366
B1217303653765N00255063WA0121301355
B1217313653757N00255062WA0120201342
B1217323653753N00255069WA0119001331
B1217333653762N00255072WA0117601321
B1217343653768N00255062WA0116401311
B1217353653763N00255053WA0115401298
B1217363653754N00255059WA0114301287
B1217373653755N00255069WA0113301281
B1217383653766N00255072WA0112401271
B1217393653772N00255059WA0111601262
B1217403653771N00255049WA0111001253
B1217413653759N00255049WA0110201265
B1217423653755N00255060WA0109701265
B1217433653761N00255071WA0109201265
B1217443653773N00255075WA0109001264
B1217453653781N00255068WA0108701257
B1217463653784N00255059WA0108701251
B1217473653784N00255051WA0108701248
B1217483653782N00255046WA0108701246
B1217493653780N00255043WA0108801246
B1217503653779N00255041WA0108801245
B1217513653777N00255040WA0108701244
B1217523653774N00255037WA0108501242
B1217533653770N00255034WA0108201239
B1217543653765N00255031WA0108101236
B1217553653760N00255029WA0108001234
B1217563653757N00255028WA0108001232
B1217573653754N00255028WA0107901230
B1217583653751N00255029WA0107701227
B1217593653748N00255032WA0107501223
B1218003653746N00255037WA0107301219
B1218013653745N00255043WA0107101214
B1218023653746N00255050WA0106901211
B1218033653748N00255056WA0106901210
B1218043653752N00255061WA0107001208
B1218053653755N00255066WA0107001208
B1218063653759N00255070WA0107001207
B1218073653762N00255074WA0107001205
B1218083653765N00255079WA0106801205
B1218093653768N00255085WA0106601204
B1218103653772N00255091WA0106701203
B1218113653776N00255096WA0106801203
B1218123653780N00255102WA0106801203
B1218133653783N00255107WA0106701202
B1218143653786N00255112WA0106601202
B1218153653788N00255118WA0106401201
B1218163653788N00255125WA0106301200
B1218173653788N00255132WA0106301199
B1218183653787N00255139WA0106501199
B1218193653786N00255145WA0106601199
B1218203653785N00255151WA0106801200
B1218213653785N00255156WA0106901201
B1218223653785N00255160WA0107001202
B1218233653784N00255164WA0106901202
B1218243653782N00255167WA0106901202
B1218253653779N00255169WA0106901203
B1218263653775N00255170WA0106901203
B1218273653771N00255169WA0107001203
B1218283653768N00255169WA0107001204
B1218293653766N00255168WA0107001203
B1218303653764N00255167WA0107001203
B1218313653762N00255164WA0106901203
B1218323653760N00255160WA0106501202
B1218333653758N00255153WA0106401202
B1218343653757N00255145WA0106301201
B1218353653756N00255137WA0106201200
B1218363653756N00255130WA0106201199
B1218373653756N00255123WA0106201199
B1218383653757N00255116WA0106101198
B1218393653757N00255109WA0106001197
B1218403653758N00255102WA0106001196
B1218413653759N00255094WA0106001195
B1218423653759N00255087WA0106101195
B1218433653759N00255080WA0106201196
B1218443653758N00255074WA0106301196
B1218453653757N00255069WA0106401197
B1218463653755N00255066WA0106401198
B1218473653752N00255064WA0106301198
B1218483653749N00255065WA0106201196
B1218493653746N00255067WA0106101195
B1218503653743N00255071WA0106001195
B1218513653742N00255075WA0105901194
B1218523653741N00255081WA0105801193
B1218533653742N00255086WA0105701193
B1218543653743N00255091WA0105601192
B1218553653744N00255097WA0105401191
B1218563653746N00255105WA0105301190
B1218573653748N00255112WA0105401190
B1218583653751N00255118WA0105601190
B1218593653754N00255124WA0105801191
B1219003653756N00255127WA0106001192
B1219013653758N00255130WA0106201195
B1219023653759N00255134WA0106301197
B1219033653760N00255139WA0106301200
B1219043653761N00255145WA0106301202
B1219053653762N00255151WA0106401203
B1219063653762N00255156WA0106301204
B1219073653762N00255161WA0106301205
B1219083653761N00255165WA0106301204
B1219093653759N00255167WA0106101203
B1219103653756N00255168WA0105901202
B1219113653751N00255166WA0105601201
B1219123653748N00255161WA0105301201
B1219133653747N00255154WA0105201200
B1219143653747N00255145WA0105101198
B1219153653749N00255137WA0105201197
B1219163653750N00255130WA0105401197
B1219173653750N00255124WA0105501197
B1219183653749N00255119WA0105701198
B1219193653749N00255114WA0105801198
B1219203653749N00255107WA0105801197
B1219213653748N00255101WA0105901197
B1219223653746N00255095WA0106001197
B1219233653743N00255090WA0106201196
B1219243653740N00255087WA0106301197
B1219253653737N00255085WA0106401197
B1219263653735N00255085WA0106501197
B1219273653732N00255085WA0106701198
B1219283653729N00255087WA0106801198
B1219293653726N00255088WA0106801199
B1219303653724N00255090WA0106801200
B1219313653722N00255094WA0106901201
B1219323653722N00255099WA0106701201
B1219333653722N00255105WA0107001202
B1219343653724N00255110WA0107101204
B1219353653727N00255114WA0107201207
B1219363653730N00255117WA0107301208
B1219373653734N00255120WA0107301209
B1219383653739N00255123WA0107201209
B1219393653745N00255124WA0107101208
B1219403653752N00255124WA0107201207
B1219413653759N00255122WA0107301207
B1219423653765N00255119WA0107501208
B1219433653769N00255116WA0107601210
B1219443653773N00255114WA0107801213
B1219453653777N00255110WA0108001213
B1219463653781N00255106WA0108001214
B1219473653785N00255101WA0108001214
B1219483653789N00255095WA0108001213
B1219493653792N00255090WA0108101214
B1219503653795N00255086WA0108101215
B1219513653798N00255082WA0108101215
B1219523653800N00255078WA0107901215
B1219533653801N00255073WA0107601215
B1219543653801N00255068WA0107401214
B1219553653800N00255062WA0107201213
B1219563653798N00255057WA0107001212
B1219573653795N00255054WA0106901212
B1219583653792N00255052WA0106901210
B1219593653789N00255052WA0106701209
B1220003653786N00255053WA0106501207
B1220013653783N00255054WA0106301205
B1220023653780N00255056WA0106201203
B1220033653776N00255060WA0106001200
B1220043653773N00255065WA0105801197
B1220053653770N00255071WA0105801196
B1220063653769N00255077WA0106001195
B1220073653767N00255082WA0106101195
B1220083653766N00255086WA0106301196
B1220093653766N00255090WA0106401197
B1220103653766N00255094WA0106501197
B1220113653766N00255098WA0106601198
B1220123653767N00255102WA0106601200
B1220133653769N00255108WA0106501200
B1220143653771N00255113WA0106501201
B1220153653773N00255118WA0106701202
B1220163653775N00255124WA0106701204
B1220173653777N00255128WA0106801205
B1220183653777N00255132WA0106801206
B1220193653777N00255135WA0106801207
B1220203653776N00255139WA0106701207
B1220213653774N00255142WA0106601205
B1220223653771N00255145WA0106401204
B1220233653767N00255146WA0106301203
B1220243653763N00255144WA0106301205
B1220253653760N00255138WA0106301205
B1220263653758N00255133WA0106301204
B1220273653757N00255127WA0106501204
B1220283653757N00255122WA0106701203
B1220293653757N00255119WA0106901203
B1220303653756N00255115WA0106801204
B1220313653753N00255112WA0106801204
B1220323653750N00255108WA0106701204
B1220333653747N00255104WA0107101204
B1220343653745N00255100WA0107101205
B1220353653743N00255098WA0107201206
B1220363653741N00255097WA0107101206
B1220373653738N00255098WA0106901205
B1220383653735N00255099WA0106801205
B1220393653733N00255103WA0106601203
B1220403653733N00255108WA0106401200
B1220413653734N00255115WA0106401198
B1220423653738N00255121WA0106301198
B1220433653742N00255126WA0106501199
B1220443653745N00255130WA0106601199
B1220453653748N00255132WA0106601200
B1220463653750N00255136WA0106501201
B1220473653751N00255140WA0106301201
B1220483653753N00255146WA0106201200
B1220493653753N00255153WA0106101199
B1220503653754N00255160WA0106101199
B1220513653755N00255165WA0106201202
B1220523653756N00255169WA0106301205
B1220533653756N00255173WA0106201206
B1220543653755N00255176WA0106101205
B1220553653753N00255180WA0105701204
B1220563653748N00255181WA0105501203
B1220573653744N00255178WA0105401203
B1220583653741N00255174WA0105301202
B1220593653739N00255168WA0105401202
B1221003653738N00255163WA0105401201
B1221013653738N00255158WA0105401200
B1221023653738N00255153WA0105301199
B1221033653737N00255149WA0105101199
B1221043653736N00255143WA0104701198
B1221053653735N00255137WA0104701198
B1221063653736N00255129WA0104801197
B1221073653737N00255122WA0104701196
B1221083653739N00255116WA0104701196
B1221093653740N00255110WA0104601194
B1221103653741N00255104WA0104401193
B1221113653742N00255097WA0104201191
B1221123653742N00255089WA0104101190
B1221133653743N00255081WA0104101189
B1221143653744N00255074WA0104201189
B1221153653745N00255067WA0104401189
B1221163653745N00255062WA0104501189
B1221173653745N00255056WA0104401189
B1221183653743N00255051WA0104201188
B1221193653740N00255047WA0104001186
B1221203653736N00255044WA0103801183
B1221213653732N00255043WA0103701180
B1221223653728N00255043WA0103901178
B1221233653726N00255044WA0104001179
B1221243653725N00255045WA0104101179
B1221253653724N00255046WA0104201179
B1221263653723N00255048WA0104401178
B1221273653722N00255050WA0104401179
B1221283653720N00255054WA0104501179
B1221293653719N00255059WA0104501179
B1221303653718N00255065WA0104601180
B1221313653718N00255070WA0104501181
B1221323653720N00255075WA0104801184
B1221333653721N00255078WA0104801187
B1221343653721N00255082WA0104801188
B1221353653720N00255086WA0104701187
B1221363653717N00255091WA0104401185
B1221373653714N00255097WA0104301184
B1221383653711N00255103WA0104301184
B1221393653709N00255108WA0104401184
B1221403653708N00255113WA0104501185
B1221413653707N00255116WA0104501186
B1221423653704N00255119WA0104401186
B1221433653700N00255122WA0104101186
B1221443653696N00255124WA0104001185
B1221453653691N00255125WA0104001184
B1221463653686N00255123WA0104001183
B1221473653682N00255120WA0104001183
B1221483653679N00255117WA0104101183
B1221493653676N00255114WA0104301182
B1221503653672N00255112WA0104401181
B1221513653669N00255111WA0104501181
B1221523653666N00255110WA0104701181
B1221533653663N00255111WA0104701181
B1221543653660N00255112WA0104701181
B1221553653657N00255114WA0104901181
B1221563653654N00255117WA0104901181
B1221573653652N00255121WA0104901181
B1221583653651N00255125WA0105001182
B1221593653650N00255129WA0105001182
B1222003653651N00255135WA0105101183
B1222013653653N00255141WA0105001184
B1222023653655N00255147WA0105101184
B1222033653660N00255153WA0105401186
B1222043653664N00255158WA0105801188
B1222053653669N00255161WA0106001189
B1222063653673N00255163WA0106301191
B1222073653678N00255163WA0106301193
B1222083653683N00255163WA0106301194
B1222093653689N00255161WA0106301194
B1222103653695N00255158WA0106401195
B1222113653699N00255154WA0106501196
B1222123653702N00255149WA0106701197
B1222133653703N00255144WA0106701198
B1222143653704N00255139WA0106701199
B1222153653703N00255134WA0106801199
B1222163653700N00255130WA0106801200
B1222173653697N00255127WA0107001201
B1222183653694N00255124WA0107101202
B1222193653691N00255121WA0107401204
B1222203653688N00255118WA0107501206
B1222213653685N00255116WA0107701209
B1222223653682N00255115WA0107801210
B1222233653679N00255116WA0107801210
B1222243653675N00255118WA0107701210
B1222253653673N00255121WA0107701211
B1222263653671N00255126WA0107801212
B1222273653670N00255130WA0107901213
B1222283653670N00255135WA0108001215
B1222293653672N00255139WA0108001217
B1222303653674N00255144WA0108101219
B1222313653676N00255150WA0108201220
B1222323653680N00255156WA0108201221
B1222333653685N00255161WA0108401222
B1222343653691N00255165WA0108601223
B1222353653696N00255167WA0108801225
B1222363653701N00255168WA0109001227
B1222373653706N00255167WA0109001228
B1222383653712N00255167WA0109101229
B1222393653720N00255167WA0108801228
B1222403653727N00255167WA0109101227
B1222413653735N00255165WA0109101228
B1222423653741N00255162WA0109201229
B1222433653747N00255159WA0109301230
B1222443653752N00255157WA0109501232
B1222453653758N00255155WA0109501232
B1222463653764N00255155WA0109301232
B1222473653771N00255155WA0109201230
B1222483653778N00255155WA0109001229
B1222493653784N00255153WA0108901228
B1222503653790N00255150WA0108701226
B1222513653795N00255146WA0108601224
B1222523653799N00255141WA0108401223
B1222533653802N00255136WA0108101221
B1222543653803N00255131WA0107901220
B1222553653805N00255125WA0107801218
B1222563653805N00255119WA0107701217
B1222573653804N00255113WA0107601216
B1222583653802N00255107WA0107601215
B1222593653800N00255103WA0107701214
B1223003653797N00255100WA0107901214
B1223013653794N00255099WA0107901215
B1223023653790N00255098WA0107901215
B1223033653787N00255097WA0108001215
B1223043653783N00255096WA0108001216
B1223053653779N00255096WA0108101216
B1223063653776N00255096WA0108201215
B1223073653772N00255097WA0108201215
B1223083653769N00255099WA0108401215
B1223093653767N00255100WA0108501215
B1223103653765N00255101WA0108501214
B1223113653763N00255103WA0108701215
B1223123653761N00255106WA0108701215
B1223133653759N00255111WA0108501215
B1223143653758N00255118WA0108601215
B1223153653758N00255125WA0108801216
B1223163653760N00255132WA0109001219
B1223173653764N00255138WA0109201222
B1223183653768N00255143WA0109401224
B1223193653773N00255146WA0109601226
B1223203653779N00255148WA0109601228
B1223213653786N00255149WA0109601228
B1223223653793N00255150WA0109501229
B1223233653801N00255151WA0109701230
B1223243653806N00255151WA0109901232
B1223253653812N00255150WA0110001234
B1223263653817N00255148WA0109901234
B1223273653822N00255146WA0109801235
B1223283653827N00255142WA0109701235
B1223293653832N00255137WA0109601235
B1223303653835N00255132WA0109501235
B1223313653837N00255126WA0109201234
B1223323653838N00255119WA0109101233
B1223333653838N00255113WA0109001232
B1223343653837N00255107WA0109101232
B1223353653836N00255101WA0109001232
B1223363653834N00255096WA0108801232
B1223373653833N00255090WA0108801231
B1223383653831N00255085WA0108701229
B1223393653830N00255078WA0108701227
B1223403653829N00255073WA0108701226
B1223413653829N00255067WA0108701228
B1223423653829N00255062WA0108701228
B1223433653828N00255057WA0108701227
B1223443653828N00255052WA0108801227
B1223453653828N00255047WA0108701227
B1223463653828N00255042WA0108701226
B1223473653827N00255037WA0108701225
B1223483653827N00255031WA0108801225
B1223493653827N00255026WA0108901225
B1223503653827N00255022WA0109101226
B1223513653827N00255019WA0109101227
B1223523653826N00255018WA0109101227
B1223533653825N00255018WA0109001227
B1223543653823N00255019WA0108901226
B1223553653820N00255020WA0108801225
B1223563653818N00255023WA0108801224
B1223573653818N00255028WA0108701224
B1223583653819N00255035WA0108601223
B1223593653821N00255041WA0108501222
B1224003653823N00255046WA0108401223
B1224013653823N00255050WA0108301223
B1224023653821N00255054WA0108101222
B1224033653818N00255057WA0108001221
B1224043653815N00255058WA0107901220
B1224053653814N00255057WA0107901220
B1224063653812N00255055WA0107801220
B1224073653812N00255050WA0107501221
B1224083653812N00255046WA0107401221
B1224093653813N00255041WA0107101220
B1224103653814N00255039WA0107101218
B1224113653814N00255040WA0107301217
B1224123653815N00255040WA0107301218
B1224133653815N00255040WA0107301217
B1224143653815N00255040WA0107201216
B1224153653815N00255040WA0107301215
B1224163653815N00255040WA0107301215
B1224173653815N00255040WA0107301214
B1224183653815N00255040WA0107301214
B1224193653814N00255040WA0107301213
B1224203653814N00255040WA0107301213
B1224213653814N00255040WA0107301212
B1224223653814N00255040WA0107201212
B1224233653815N00255040WA0107301211
B1224243653815N00255040WA0107201211
B1224253653814N00255040WA0107201210
B1224263653814N00255040WA0107301212
B1224273653814N00255040WA0107301211
B1224283653814N00255040WA0107301211
B1224293653814N00255040WA0107201211
B1224303653814N00255040WA0107301211
B1224313653814N00255039WA0107301210
B1224323653814N00255039WA0107301210
B1224333653814N00255039WA0107301209
B1224343653814N00255039WA0107201209
B1224353653814N00255039WA0107201208
B1224363653814N00255039WA0107201207
B1224373653814N00255039WA0107201207
B1224383653814N00255038WA0107401206
B1224393653814N00255038WA0107301205
B1224403653814N00255038WA0107301205
B1224413653815N00255038WA0107201204
B1224423653815N00255037WA0107301204
B1224433653815N00255037WA0107201204
B1224443653815N00255037WA0107301204
B1224453653815N00255037WA0107301203
B1224463653815N00255037WA0107301203
B1224473653815N00255037WA0107301203
B1224483653815N00255037WA0107201203
B1224493653815N00255037WA0107201203
B1224503653815N00255037WA0107201202
B1224513653815N00255036WA0107301202
B1224523653815N00255036WA0107201202
B1224533653815N00255036WA0107201202
B1224543653815N00255036WA0107201202
B1224553653815N00255036WA0107201202
B1224563653815N00255036WA0107401202
B1224573653815N00255037WA0107401202
B1224583653815N00255037WA0107301202
B1224593653815N00255037WA0107201202
B1225003653815N00255037WA0107301202
B1225013653814N00255038WA0107301203
B1225023653814N00255038WA0107201205
B1225033653814N00255039WA0107301206
B1225043653814N00255039WA0107301207
B1225053653813N00255039WA0107301208
B1225063653813N00255040WA0107201210
B1225073653813N00255040WA0107301211
B1225083653813N00255040WA0107201212
B1225093653813N00255040WA0107301213
B1225103653813N00255040WA0107301213
B1225113653813N00255040WA0107401213
B1225123653813N00255039WA0107301213
B1225133653813N00255038WA0107301211
B1225143653813N00255038WA0107301210
B1225153653813N00255038WA0107301211
B1225163653813N00255038WA0107201211
B1225173653813N00255039WA0107101211
B1225183653813N00255039WA0107401211
B1225193653813N00255038WA0107201211
B1225203653813N00255038WA0107401211
B1225213653813N00255038WA0107301211
B1225223653813N00255038WA0107301211
B1225233653813N00255038WA0107301211
B1225243653813N00255039WA0107301211
B1225253653813N00255039WA0107301211
B1225263653812N00255039WA0107201211
B1225273653812N00255039WA0107301211
B1225283653812N00255039WA0107301210
B1225293653812N00255039WA0107201210
B1225303653811N00255038WA0107201210
B1225313653811N00255038WA0107301210
B1225323653811N00255037WA0107301210
B1225333653810N00255037WA0107401210
B1225343653811N00255037WA0107301210
B1225353653810N00255037WA0107301210
B1225363653810N00255037WA0107301210
B1225373653811N00255037WA0107401210
B1225383653811N00255037WA0107301210
B1225393653812N00255036WA0107301210
B1225403653811N00255037WA0107301210
B1225413653812N00255037WA0107301210
B1225423653812N00255037WA0107501210
B1225433653812N00255037WA0107401210
B1225443653812N00255038WA0107401210
B1225453653812N00255038WA0107401210
B1225463653812N00255038WA0107401210
B1225473653812N00255037WA0107301210
B1225483653812N00255037WA0107401209
B1225493653812N00255037WA0107401209
B1225503653812N00255037WA0107401209
B1225513653813N00255037WA0107401209
B1225523653813N00255036WA0107401209
B1225533653812N00255036WA0107401209
B1225543653812N00255036WA0107401209
B1225553653812N00255036WA0107301209
B1225563653812N00255035WA0107401209
B1225573653812N00255035WA0107401209
B1225583653812N00255034WA0107401209
B1225593653813N00255034WA0107601209
B1226003653813N00255034WA0107501209
B1226013653812N00255034WA0107201209
B1226023653812N00255034WA0107501209
B1226033653812N00255033WA0107401209
B1226043653812N00255033WA0107501209
B1226053653812N00255033WA0107501209
B1226063653812N00255033WA0107501209
B1226073653812N00255032WA0107501209
B1226083653813N00255032WA0107501209
B1226093653813N00255032WA0107501209
B1226103653813N00255032WA0107501209
B1226113653813N00255032WA0107501210
B1226123653813N00255032WA0107501210
B1226133653813N00255031WA0107501209
B1226143653813N00255031WA0107501209
B1226153653813N00255031WA0107501208
B1226163653814N00255031WA0107501208
B1226173653814N00255031WA0107501207
B1226183653814N00255031WA0107501207
B1226193653814N00255030WA0107501207
B1226203653814N00255030WA0107501207
B1226213653814N00255030WA0107501206
B1226223653814N00255030WA0107501206
B1226233653814N00255030WA0107501206
B1226243653814N00255030WA0107501205
B1226253653814N00255030WA0107501205
B1226263653814N00255030WA0107501205
B1226273653814N00255030WA0107501205
B1226283653813N00255030WA0107501205
B1226293653813N00255030WA0107501205
B1226303653813N00255030WA0107501205
B1226313653813N00255030WA0107501205
B1226323653813N00255030WA0107501205
B1226333653813N00255030WA0107501205
B1226343653813N00255030WA0107501206
B1226353653813N00255030WA0107501206
B1226363653813N00255030WA0107501206
B1226373653813N00255030WA0107501206
B1226383653813N00255030WA0107501206
B1226393653813N00255030WA0107501206
B1226403653813N00255030WA0107501206
B1226413653813N00255030WA0107501205
B1226423653813N00255030WA0107501206
B1226433653813N00255030WA0107501206
B1226443653813N00255030WA0107501206
B1226453653813N00255030WA0107501206
B1226463653813N00255030WA0107501205
B1226473653813N00255030WA0107501205
B1226483653813N00255030WA0107501205
B1226493653812N00255030WA0107501205
B1226503653812N00255030WA0107501205
B1226513653812N00255030WA0107501205
B1226523653812N00255030WA0107501205
B1226533653812N00255031WA0107501205
B1226543653812N00255031WA0107501205
B1226553653812N00255031WA0107501205
B1226563653812N00255031WA0107501205
B1226573653812N00255031WA0107501206
B1226583653812N00255031WA0107501206
B1226593653812N00255031WA0107501206
B1227003653812N00255031WA0107501206
B1227013653812N00255031WA0107501206
B1227023653812N00255031WA0107501206
B1227033653812N00255031WA0107501206
B1227043653812N00255031WA0107501206
B1227053653812N00255031WA0107501207
B1227063653812N00255031WA0107501207
B1227073653812N00255031WA0107501207
B1227083653812N00255031WA0107501207
B1227093653812N00255031WA0107501207
B1227103653812N00255031WA0107501207
B1227113653812N00255031WA0107501207
B1227123653812N00255031WA0107501207
B1227133653812N00255031WA0107501207
B1227143653812N00255031WA0107501208
B1227153653812N00255031WA0107501208
B1227163653812N00255031WA0107501208
B1227173653812N00255031WA0107501208
B1227183653812N00255031WA0107501209
B1227193653812N00255031WA0107501209
B1227203653812N00255031WA0107501209
B1227213653812N00255031WA0107501210
B1227223653812N00255031WA0107501210
B1227233653812N00255031WA0107501210
B1227243653812N00255031WA0107501211
B1227253653812N00255031WA0107501211
B1227263653812N00255031WA0107501212
B1227273653812N00255031WA0107501212
B1227283653812N00255031WA0107501212
B1227293653812N00255031WA0107501212
B1227303653812N00255031WA0107501212
B1227313653811N00255031WA0107501213
B1227323653811N00255031WA0107501213
B1227333653811N00255031WA0107501213
B1227343653811N00255031WA0107501214
B1227353653811N00255031WA0107501214
B1227363653811N00255031WA0107501214
B1227373653811N00255031WA0107501214
B1227383653811N00255031WA0107501214
B1227393653811N00255031WA0107501215
B1227403653811N00255031WA0107501215
B1227413653811N00255031WA0107501215
B1227423653811N00255031WA0107501215
B1227433653811N00255031WA0107501215
B1227443653811N00255031WA0107501215
B1227453653811N00255031WA0107501215
B1227463653811N00255032WA0107501215
B1227473653811N00255032WA0107501214
B1227483653812N00255032WA0107501214
B1227493653812N00255031WA0107501214
B1227503653811N00255032WA0107501213
B1227513653811N00255032WA0107501214
B1227523653811N00255032WA0107501214
B1227533653811N00255032WA0107501214
B1227543653812N00255032WA0107501214
B1227553653811N00255032WA0107501214
B1227563653811N00255032WA0107501214
B1227573653810N00255032WA0107501214
B1227583653810N00255032WA0107501214
B1227593653808N00255033WA0107501214
B1228003653808N00255032WA0107401214
B1228013653807N00255032WA0107401214
B1228023653807N00255031WA0107401214
B1228033653807N00255032WA0107301214
B1228043653807N00255032WA0107301214
B1228053653807N00255032WA0107301214
B1228063653807N00255032WA0107301214
B1228073653807N00255033WA0107301214
B1228083653807N00255033WA0107401214
B1228093653807N00255033WA0107501214
B1228103653807N00255032WA0107401214
B1228113653807N00255032WA0107501214
B1228123653807N00255032WA0107501214
B1228133653806N00255032WA0107501214
B1228143653806N00255033WA0107501214
B1228153653806N00255033WA0107501214
B1228163653806N00255033WA0107501214
B1228173653806N00255032WA0107501214
B1228183653806N00255033WA0107401214
B1228193653806N00255033WA0107401214
B1228203653806N00255034WA0107401214
B1228213653806N00255033WA0107401214
B1228223653806N00255034WA0107501213
B1228233653806N00255034WA0107501213
B1228243653805N00255034WA0107501213
B1228253653806N00255034WA0107501213
B1228263653806N00255033WA0107501213
B1228273653806N00255033WA0107501213
B1228283653806N00255034WA0107501213
B1228293653806N00255033WA0107501213
B1228303653807N00255033WA0107501213
B1228313653807N00255033WA0107501213
B1228323653807N00255033WA0107501213
B1228333653808N00255033WA0107501213
B1228343653808N00255034WA0107501213
B1228353653808N00255035WA0107501213
B1228363653808N00255035WA0107501213
B1228373653808N00255035WA0107501213
B1228383653808N00255035WA0107501213
B1228393653808N00255035WA0107501213
B1228403653808N00255034WA0107501213
B1228413653808N00255034WA0107401213
B1228423653808N00255033WA0107501213
B1228433653808N00255033WA0107501213
B1228443653808N00255033WA0107501214
B1228453653808N00255033WA0107501213
B1228463653808N00255032WA0107501214
B1228473653807N00255032WA0107501213
B1228483653807N00255032WA0107501213
B1228493653806N00255032WA0107501213
B1228503653806N00255031WA0107501213
B1228513653807N00255031WA0107501213
B1228523653807N00255031WA0107501213
B1228533653807N00255032WA0107401213
B1228543653807N00255032WA0107501213
B1228553653806N00255033WA0107401213
B1228563653806N00255033WA0107401213
B1228573653807N00255033WA0107401213
B1228583653807N00255033WA0107401213
B1228593653807N00255033WA0107401213
B1229003653807N00255033WA0107401213
B1229013653807N00255033WA0107401213
B1229023653807N00255033WA0107401213
B1229033653807N00255033WA0107401213
B1229043653807N00255033WA0107501213
B1229053653807N00255033WA0107501213
B1229063653807N00255032WA0107401213
B1229073653808N00255033WA0107501213
B1229083653808N00255034WA0107501213
B1229093653807N00255034WA0107401213
B1229103653807N00255033WA0107401213
B1229113653807N00255033WA0107401213
B1229123653807N00255033WA0107401213
B1229133653807N00255031WA0107401213
B1229143653808N00255032WA0107401213
B1229153653808N00255033WA0107401213
B1229163653808N00255034WA0107501213
B1229173653808N00255035WA0107401213
B1229183653808N00255035WA0107401213
B1229193653808N00255036WA0107401213
B1229203653807N00255036WA0107401213
B1229213653807N00255036WA0107401213
B1229223653807N00255035WA0107401213
B1229233653806N00255035WA0107501212
B1229243653807N00255036WA0107401212
B1229253653806N00255036WA0107401212
B1229263653807N00255035WA0107401212
B1229273653807N00255035WA0107401212
B1229283653807N00255035WA0107401212
B1229293653807N00255035WA0107401212
B1229303653807N00255034WA0107401212
B1229313653807N00255034WA0107401212
B1229323653807N00255034WA0107401212
B1229333653807N00255034WA0107401212
B1229343653807N00255035WA0107401212
B1229353653807N00255035WA0107401212
B1229363653807N00255035WA0107401212
B1229373653807N00255035WA0107401212
B1229383653807N00255035WA0107401212
B1229393653807N00255035WA0107401212
B1229403653806N00255034WA0107501212
B1229413653807N00255033WA0107401212
B1229423653807N00255033WA0107501212
B1229433653807N00255033WA0107401212
B1229443653807N00255033WA0107501212
B1229453653807N00255034WA0107501212
B1229463653807N00255034WA0107401212
B1229473653807N00255034WA0107401212
B1229483653807N00255034WA0107401212
B1229493653807N00255034WA0107401212
B1229503653807N00255035WA0107501212
B1229513653807N00255035WA0107401212
B1229523653807N00255035WA0107401212
B1229533653807N00255035WA0107401212
B1229543653807N00255035WA0107501212
B1229553653807N00255035WA0107501212
B1229563653807N00255034WA0107401212
B1229573653807N00255034WA0107401212
B1229583653807N00255033WA0107501212
B1229593653807N00255032WA0107401212
B1230003653807N00255033WA0107501212
B1230013653806N00255034WA0107501212
B1230023653806N00255034WA0107501212
B1230033653806N00255035WA0107501212
B1230043653807N00255035WA0107501212
B1230053653807N00255035WA0107501212
B1230063653807N00255034WA0107501212
B1230073653807N00255034WA0107501212
B1230083653807N00255035WA0107501212
B1230093653807N00255035WA0107501212
B1230103653807N00255035WA0107501212
B1230113653807N00255035WA0107501212
B1230123653807N00255036WA0107501212
B1230133653807N00255036WA0107501212
B1230143653807N00255036WA0107501212
B1230153653807N00255036WA0107501212
B1230163653807N00255035WA0107501212
B1230173653807N00255035WA0107501213
B1230183653807N00255035WA0107501213
B1230193653807N00255035WA0107501213
B1230203653807N00255035WA0107501213
B1230213653807N00255035WA0107501213
B1230223653807N00255035WA0107501213
B1230233653807N00255034WA0107401213
B1230243653807N00255035WA0107401212
B1230253653807N00255035WA0107501212
B1230263653807N00255036WA0107501212
B1230273653807N00255037WA0107501212
B1230283653808N00255037WA0107501212
B1230293653808N00255037WA0107401212
B1230303653808N00255037WA0107501213
B1230313653808N00255036WA0107501213
B1230323653807N00255036WA0107501213
B1230333653807N00255036WA0107501213
B1230343653807N00255036WA0107501213
B1230353653807N00255035WA0107501213
B1230363653806N00255035WA0107501213
B1230373653806N00255035WA0107501213
B1230383653806N00255035WA0107501213
B1230393653806N00255035WA0107501213
B1230403653807N00255034WA0107501213
B1230413653807N00255034WA0107501213
B1230423653807N00255034WA0107501213
B1230433653807N00255034WA0107501213
B1230443653807N00255035WA0107501213
B1230453653807N00255035WA0107501213
B1230463653807N00255036WA0107501213
B1230473653807N00255036WA0107501213
B1230483653807N00255036WA0107501213
B1230493653807N00255036WA0107501213
B1230503653806N00255036WA0107501213
B1230513653807N00255034WA0107401213
B1230523653807N00255034WA0107501213
B1230533653807N00255034WA0107401213
B1230543653808N00255035WA0107501213
B1230553653808N00255035WA0107401213
B1230563653809N00255036WA0107401213
B1230573653809N00255036WA0107401213
B1230583653809N00255037WA0107401213
B1230593653809N00255037WA0107401213
B1231003653808N00255036WA0107401213
B1231013653808N00255036WA0107501213
B1231023653807N00255035WA0107401213
B1231033653807N00255035WA0107401213
B1231043653806N00255035WA0107501212
B1231053653806N00255035WA0107501212
B1231063653805N00255035WA0107501212
B1231073653805N00255036WA0107401212
B1231083653806N00255036WA0107401212
B1231093653806N00255036WA0107501212
B1231103653806N00255036WA0107501212
B1231113653807N00255036WA0107501212
B1231123653807N00255037WA0107501212
B1231133653807N00255037WA0107501212
B1231143653807N00255037WA0107501212
B1231153653807N00255037WA0107501212
B1231163653807N00255037WA0107501212
B1231173653808N00255037WA0107501212
B1231183653808N00255036WA0107501212
B1231193653808N00255036WA0107501212
B1231203653808N00255036WA0107501211
B1231213653808N00255036WA0107501211
B1231223653807N00255036WA0107501211
B1231233653806N00255037WA0107501211
B1231243653807N00255036WA0107501211
B1231253653807N00255036WA0107401211
B1231263653808N00255037WA0107501211
B1231273653808N00255037WA0107401211
B1231283653809N00255037WA0107501211
B1231293653809N00255036WA0107401211
B1231303653810N00255036WA0107501211
B1231313653810N00255036WA0107501211
B1231323653810N00255036WA0107501211
B1231333653810N00255036WA0107501211
B1231343653811N00255036WA0107501211
B1231353653811N00255036WA0107501211
B1231363653811N00255036WA0107501211
B1231373653811N00255035WA0107501211
B1231383653810N00255036WA0107501211
B1231393653809N00255036WA0107501211
B1231403653808N00255037WA0107501211
B1231413653807N00255037WA0107501211
B1231423653808N00255037WA0107401211
B1231433653808N00255037WA0107501211
B1231443653808N00255036WA0107501211
B1231453653809N00255036WA0107501210
B1231463653809N00255036WA0107401210
B1231473653809N00255036WA0107501210
B1231483653810N00255036WA0107501210
B1231493653810N00255036WA0107401210
B1231503653810N00255035WA0107401210
B1231513653810N00255035WA0107401210
B1231523653810N00255035WA0107401210
B1231533653811N00255035WA0107501210
B1231543653811N00255035WA0107401210
B1231553653812N00255035WA0107501210
B1231563653810N00255035WA0107401210
B1231573653810N00255035WA0107401210
B1231583653809N00255035WA0107401210
B1231593653809N00255034WA0107401210
B1232003653809N00255034WA0107501210
B1232013653809N00255034WA0107501210
B1232023653810N00255034WA0107501210
B1232033653810N00255035WA0107501210
B1232043653811N00255035WA0107401210
B1232053653811N00255035WA0107501210
B1232063653812N00255035WA0107501210
B1232073653812N00255036WA0107501210
B1232083653812N00255036WA0107401210
B1232093653812N00255036WA0107501210
B1232103653812N00255036WA0107501210
B1232113653811N00255036WA0107501210
B1232123653811N00255036WA0107501210
B1232133653809N00255036WA0107501210
B1232143653807N00255036WA0107501210
B1232153653806N00255036WA0107501210
B1232163653805N00255036WA0107501210
B1232173653804N00255036WA0107401210
B1232183653804N00255036WA0107401210
B1232193653804N00255036WA0107501210
B1232203653805N00255035WA0107501210
B1232213653805N00255035WA0107501210
B1232223653806N00255035WA0107501210
B1232233653807N00255035WA0107501210
B1232243653807N00255036WA0107501210
B1232253653808N00255037WA0107501210
B1232263653808N00255038WA0107501210
B1232273653809N00255038WA0107501210
B1232283653809N00255038WA0107501210
B1232293653809N00255038WA0107501210
B1232303653809N00255038WA0107501210
B1232313653808N00255038WA0107501210
B1232323653807N00255038WA0107501210
B1232333653806N00255038WA0107501210
B1232343653805N00255038WA0107501210
B1232353653805N00255038WA0107501210
B1232363653805N00255038WA0107501210
B1232373653806N00255037WA0107501210
B1232383653806N00255037WA0107501210
B1232393653807N00255037WA0107501210
B1232403653807N00255036WA0107501210
B1232413653808N00255036WA0107501210
B1232423653808N00255036WA0107501210
B1232433653808N00255036WA0107501210
B1232443653809N00255036WA0107501210
B1232453653809N00255036WA0107501210
B1232463653809N00255037WA0107501210
B1232473653809N00255037WA0107501209
B1232483653808N00255037WA0107501209
B1232493653808N00255037WA0107501209
B1232503653807N00255037WA0107501209
B1232513653807N00255037WA0107501209
B1232523653806N00255037WA0107501209
B1232533653806N00255037WA0107501209
B1232543653806N00255036WA0107501209
B1232553653806N00255036WA0107501210
B1232563653807N00255036WA0107501210
B1232573653808N00255036WA0107501210
B1232583653809N00255036WA0107501210
B1232593653809N00255035WA0107501210
B1233003653810N00255035WA0107501210
B1233013653810N00255034WA0107501210
B1233023653810N00255034WA0107401210
B1233033653810N00255033WA0107501210
B1233043653809N00255033WA0107501210
B1233053653809N00255035WA0107501210
B1233063653808N00255035WA0107501209
B1233073653809N00255034WA0107501209
B1233083653808N00255034WA0107501210
B1233093653808N00255033WA0107501210
B1233103653807N00255033WA0107501210
B1233113653807N00255034WA0107501210
B1233123653807N00255034WA0107501210
B1233133653807N00255034WA0107501210
B1233143653807N00255034WA0107501210
B1233153653807N00255034WA0107501210
B1233163653807N00255034WA0107501210
B1233173653807N00255034WA0107501210
B1233183653807N00255034WA0107501210
B1233193653807N00255034WA0107501210
B1233203653807N00255034WA0107501210
B1233213653807N00255034WA0107501210
B1233223653808N00255034WA0107501210
B1233233653808N00255034WA0107501210
B1233243653808N00255035WA0107501210
B1233253653808N00255034WA0107501210
B1233263653808N00255034WA0107501210
B1233273653808N00255034WA0107501210
B1233283653808N00255035WA0107501210
B1233293653808N00255034WA0107501210
B1233303653808N00255034WA0107501210
B1233313653808N00255034WA0107501210
B1233323653808N00255034WA0107501210
B1233333653808N00255034WA0107501210
B1233343653808N00255034WA0107501210
B1233353653808N00255034WA0107501210
B1233363653808N00255033WA0107501210
B1233373653808N00255034WA0107501210
B1233383653808N00255034WA0107501210
B1233393653808N00255033WA0107501211
B1233403653808N00255034WA0107501211
B1233413653807N00255034WA0107501210
B1233423653808N00255034WA0107501211
B1233433653808N00255034WA0107501211
B1233443653808N00255034WA0107501210
B1233453653808N00255034WA0107501210
B1233463653808N00255033WA0107501210
B1233473653808N00255032WA0107501210
B1233483653808N00255033WA0107501210
B1233493653808N00255033WA0107501210
B1233503653808N00255033WA0107501210
B1233513653808N00255033WA0107501210
B1233523653808N00255033WA0107501210
B1233533653807N00255032WA0107501210
B1233543653807N00255031WA0107501210
B1233553653806N00255031WA0107501210
B1233563653806N00255031WA0107501210
B1233573653805N00255030WA0107501211
B1233583653805N00255029WA0107501211
B1233593653805N00255029WA0107501211
B1234003653805N00255029WA0107501211
B1234013653805N00255029WA0107501211
B1234023653805N00255029WA0107501211
B1234033653805N00255029WA0107501211
B1234043653805N00255029WA0107501211
B1234053653805N00255028WA0107501211
B1234063653806N00255028WA0107501211
B1234073653805N00255028WA0107501211
B1234083653805N00255028WA0107501211
B1234093653805N00255028WA0107501211
B1234103653805N00255027WA0107501211
B1234113653805N00255027WA0107501211
B1234123653806N00255027WA0107501211
B1234133653805N00255027WA0107501211
B1234143653806N00255028WA0107501211
B1234153653806N00255029WA0107501211
B1234163653806N00255029WA0107501211
B1234173653806N00255029WA0107501211
B1234183653806N00255029WA0107501211
B1234193653806N00255029WA0107501211
B1234203653805N00255029WA0107501211
B1234213653805N00255029WA0107501211
B1234223653805N00255029WA0107501211
B1234233653805N00255029WA0107501211
B1234243653806N00255029WA0107501211
B1234253653806N00255029WA0107501211
B1234263653806N00255029WA0107501211
B1234273653806N00255029WA0107501211
B1234283653806N00255029WA0107501211
B1234293653806N00255029WA0107501211
B1234303653806N00255029WA0107501211
B1234313653806N00255028WA0107501211
B1234323653806N00255028WA0107501211
B1234333653806N00255029WA0107501211
B1234343653806N00255029WA0107501211
B1234353653806N00255029WA0107501211
B1234363653806N00255029WA0107501211
B1234373653805N00255029WA0107501211
B1234383653805N00255029WA0107501211
B1234393653804N00255029WA0107501211
B1234403653804N00255029WA0107501211
B1234413653804N00255029WA0107501211
B1234423653804N00255029WA0107501211
B1234433653804N00255029WA0107501211
B1234443653804N00255029WA0107501211
B1234453653804N00255029WA0107501211
B1234463653805N00255029WA0107501211
B1234473653805N00255029WA0107501211
B1234483653805N00255030WA0107501211
B1234493653805N00255029WA0107501211
B1234503653805N00255029WA0107501211
B1234513653805N00255029WA0107501211
B1234523653805N00255029WA0107501211
B1234533653805N00255030WA0107501211
B1234543653805N00255030WA0107501211
B1234553653805N00255030WA0107501211
B1234563653805N00255030WA0107501211
B1234573653805N00255030WA0107501211
B1234583653805N00255030WA0107501211
B1234593653805N00255030WA0107501211
B1235003653805N00255030WA0107501212
B1235013653805N00255030WA0107501212
B1235023653805N00255030WA0107501212
B1235033653805N00255030WA0107501212
B1235043653805N00255030WA0107501212
B1235053653805N00255030WA0107501212
B1235063653805N00255030WA0107501212
B1235073653805N00255030WA0107501212
B1235083653805N00255030WA0107501212
B1235093653805N00255030WA0107501212
B1235103653805N00255030WA0107501212
B1235113653805N00255031WA0107501212
B1235123653805N00255031WA0107501212
B1235133653805N00255032WA0107501212
B1235143653805N00255032WA0107501211
B1235153653804N00255031WA0107501211
B1235163653804N00255031WA0107501211
B1235173653804N00255032WA0107501211
B1235183653805N00255032WA0107501211
B1235193653805N00255032WA0107501211
B1235203653805N00255031WA0107501211
B1235213653805N00255032WA0107501211
B1235223653805N00255032WA0107501211
B1235233653805N00255031WA0107501211
B1235243653805N00255032WA0107501211
B1235253653805N00255032WA0107501211
B1235263653805N00255032WA0107501211
B1235273653804N00255032WA0107501211
B1235283653804N00255032WA0107501211
B1235293653805N00255031WA0107501211
B1235303653805N00255031WA0107501210
B1235313653805N00255031WA0107501211
B1235323653805N00255031WA0107501210
B1235333653805N00255032WA0107501210
B1235343653805N00255032WA0107501210
B1235353653805N00255032WA0107501211
B1235363653805N00255032WA0107501210
B1235373653805N00255032WA0107501210
B1235383653805N00255032WA0107501210
B1235393653805N00255031WA0107501210
B1235403653805N00255031WA0107501210
B1235413653804N00255032WA0107501210
B1235423653804N00255032WA0107501211
B1235433653804N00255031WA0107501211
B1235443653804N00255031WA0107501211
B1235453653804N00255032WA0107501211
B1235463653804N00255031WA0107501211
B1235473653804N00255031WA0107501211
B1235483653805N00255031WA0107501211
B1235493653804N00255031WA0107501211
B1235503653804N00255032WA0107501211
B1235513653805N00255032WA0107501211
B1235523653805N00255032WA0107501211
B1235533653804N00255032WA0107501211
B1235543653805N00255032WA0107501211
B1235553653804N00255032WA0107501211
B1235563653804N00255032WA0107501211
B1235573653804N00255032WA0107501211
B1235583653804N00255032WA0107501211
B1235593653804N00255031WA0107501211
B1236003653804N00255031WA0107501211
B1236013653804N00255031WA0107501211
B1236023653805N00255031WA0107501211
B1236033653805N00255031WA0107501211
B1236043653805N00255031WA0107501211
B1236053653805N00255030WA0107501210
B1236063653805N00255031WA0107501210
B1236073653805N00255031WA0107501210
B1236083653805N00255031WA0107501210
B1236093653805N00255031WA0107501210
B1236103653805N00255031WA0107501210
B1236113653805N00255031WA0107501210
B1236123653805N00255030WA0107501210
B1236133653805N00255030WA0107501210
B1236143653805N00255030WA0107501210
B1236153653805N00255030WA0107501210
B1236163653805N00255030WA0107501210
B1236173653805N00255030WA0107501209
B1236183653805N00255030WA0107501209
B1236193653805N00255030WA0107501209
B1236203653805N00255030WA0107501209
B1236213653805N00255030WA0107501209
B1236223653805N00255030WA0107501208
B1236233653805N00255030WA0107501207
B1236243653805N00255030WA0107501210
B1236253653805N00255031WA0107501210
B1236263653805N00255031WA0107501210
B1236273653805N00255030WA0107501210
B1236283653805N00255030WA0107501210
B1236293653805N00255030WA0107501210
B1236303653805N00255030WA0107501210
B1236313653805N00255030WA0107501210
B1236323653805N00255030WA0107501210
B1236333653804N00255030WA0107501210
B1236343653805N00255030WA0107501210
B1236353653805N00255030WA0107501210
B1236363653805N00255030WA0107501210
B1236373653805N00255030WA0107501210
B1236383653805N00255030WA0107501210
B1236393653805N00255029WA0107501210
B1236403653805N00255029WA0107501210
B1236413653805N00255029WA0107501210
B1236423653805N00255030WA0107501211
B1236433653805N00255029WA0107501210
B1236443653804N00255030WA0107501210
B1236453653803N00255030WA0107501210
B1236463653803N00255029WA0107401210
B1236473653802N00255029WA0107501210
B1236483653801N00255030WA0107301210
B1236493653800N00255030WA0107101210
B1236503653797N00255031WA0107101210
B1236513653794N00255032WA0107001210
B1236523653792N00255033WA0107201210
B1236533653789N00255035WA0107201210
B1236543653786N00255036WA0106901209
B1236553653783N00255038WA0106901209
B1236563653779N00255040WA0106901208
B1236573653776N00255042WA0106801208
B1236583653772N00255044WA0106701207
B1236593653769N00255047WA0106601206
B1237003653765N00255050WA0106501206
B1237013653761N00255052WA0106301204
B1237023653756N00255054WA0106301203
B1237033653752N00255055WA0106201201
B1237043653747N00255058WA0106201200
B1237053653744N00255061WA0106101199
B1237063653740N00255064WA0106001198
B1237073653736N00255067WA0105901197
B1237083653732N00255070WA0105601196
B1237093653728N00255073WA0105401195
B1237103653724N00255076WA0105501195
B1237113653720N00255079WA0105601195
B1237123653716N00255082WA0105801194
B1237133653713N00255085WA0105701194
B1237143653709N00255087WA0105601193
B1237153653704N00255089WA0105501192
B1237163653700N00255092WA0105501192
B1237173653697N00255094WA0105501191
B1237183653694N00255096WA0105201191
B1237193653690N00255099WA0105001190
B1237203653686N00255101WA0104901188
B1237213653681N00255102WA0104701187
B1237223653676N00255103WA0104601185
B1237233653671N00255103WA0104501184
B1237243653666N00255105WA0104501183
B1237253653662N00255107WA0104501181
B1237263653657N00255110WA0104501181
B1237273653654N00255113WA0104701182
B1237283653650N00255116WA0104901184
B1237293653648N00255119WA0105101186
B1237303653645N00255122WA0105101187
B1237313653643N00255126WA0105101188
B1237323653642N00255132WA0105101188
B1237333653643N00255138WA0105101188
B1237343653646N00255144WA0105101188
B1237353653651N00255147WA0105101188
B1237363653656N00255149WA0105201189
B1237373653661N00255148WA0105201189
B1237383653666N00255146WA0105201189
B1237393653670N00255143WA0105301189
B1237403653673N00255139WA0105101189
B1237413653675N00255135WA0105101189
B1237423653677N00255129WA0105101188
B1237433653676N00255124WA0105101187
B1237443653675N00255119WA0105101187
B1237453653672N00255114WA0105101186
B1237463653669N00255111WA0105101186
B1237473653666N00255109WA0105101186
B1237483653663N00255107WA0105201189
B1237493653660N00255105WA0105201189
B1237503653656N00255103WA0105101190
B1237513653652N00255102WA0104901190
B1237523653647N00255100WA0104801190
B1237533653643N00255097WA0105001190
B1237543653639N00255095WA0105201191
B1237553653636N00255093WA0105501193
B1237563653632N00255093WA0105701194
B1237573653627N00255092WA0106001195
B1237583653623N00255092WA0106201197
B1237593653618N00255093WA0106301199
B1238003653615N00255094WA0106601203
B1238013653612N00255097WA0106801204
B1238023653611N00255102WA0106901205
B1238033653610N00255106WA0107101207
B1238043653611N00255111WA0107401208
B1238053653614N00255114WA0107501210
B1238063653619N00255116WA0107701211
B1238073653625N00255115WA0107801213
B1238083653630N00255112WA0108201214
B1238093653634N00255107WA0108501217
B1238103653637N00255103WA0108801221
B1238113653638N00255097WA0109001224
B1238123653638N00255092WA0109101226
B1238133653637N00255086WA0109201227
B1238143653635N00255080WA0109401228
B1238153653633N00255074WA0109701230
B1238163653630N00255068WA0109901233
B1238173653627N00255064WA0110101237
B1238183653623N00255062WA0110401239
B1238193653619N00255060WA0110601241
B1238203653614N00255060WA0110601242
B1238213653609N00255060WA0110601243
B1238223653604N00255063WA0110701243
B1238233653600N00255067WA0110601243
B1238243653596N00255071WA0110501242
B1238253653592N00255074WA0110501242
B1238263653589N00255076WA0110501242
B1238273653586N00255078WA0110501242
B1238283653583N00255081WA0110401242
B1238293653582N00255085WA0110001241
B1238303653581N00255090WA0110001241
B1238313653581N00255094WA0110101240
B1238323653582N00255098WA0110201240
B1238333653583N00255101WA0110201240
B1238343653585N00255105WA0110101239
B1238353653588N00255109WA0110001239
B1238363653592N00255113WA0109901238
B1238373653595N00255118WA0109901237
B1238383653599N00255123WA0110001236
B1238393653602N00255127WA0110001237
B1238403653606N00255131WA0110101238
B1238413653609N00255135WA0110301239
B1238423653612N00255138WA0110401241
B1238433653616N00255141WA0110501241
B1238443653620N00255143WA0110501242
B1238453653625N00255145WA0110601242
B1238463653630N00255147WA0110701242
B1238473653635N00255147WA0111001243
B1238483653640N00255145WA0111101245
B1238493653644N00255141WA0111201246
B1238503653648N00255135WA0110901247
B1238513653651N00255128WA0111201248
B1238523653653N00255121WA0111801250
B1238533653652N00255115WA0112201252
B1238543653650N00255109WA0112401254
B1238553653647N00255103WA0112501256
B1238563653643N00255100WA0112501257
B1238573653639N00255099WA0112701258
B1238583653635N00255099WA0112801259
B1238593653632N00255101WA0112901261
B1239003653630N00255104WA0113001262
B1239013653628N00255107WA0113101263
B1239023653626N00255110WA0113001263
B1239033653624N00255114WA0112801262
B1239043653622N00255118WA0112601262
B1239053653620N00255122WA0112701262
B1239063653619N00255124WA0112901263
B1239073653618N00255126WA0112901264
B1239083653617N00255129WA0112801264
B1239093653617N00255132WA0112501262
B1239103653617N00255137WA0112301260
B1239113653618N00255142WA0112001258
B1239123653621N00255147WA0111901256
B1239133653625N00255150WA0111901255
B1239143653629N00255151WA0111901254
B1239153653634N00255153WA0111801254
B1239163653638N00255154WA0111401253
B1239173653643N00255156WA0111201251
B1239183653648N00255158WA0111201250
B1239193653653N00255160WA0111201249
B1239203653657N00255162WA0111201248
B1239213653662N00255164WA0111201247
B1239223653667N00255166WA0111401247
B1239233653673N00255167WA0111401247
B1239243653681N00255167WA0111501247
B1239253653687N00255166WA0112001249
B1239263653692N00255162WA0112401253
B1239273653695N00255158WA0112601257
B1239283653696N00255153WA0112801259
B1239293653695N00255147WA0112801260
B1239303653693N00255142WA0112901261
B1239313653691N00255138WA0113101263
B1239323653688N00255137WA0113201266
B1239333653684N00255137WA0113401266
B1239343653681N00255140WA0113401267
B1239353653679N00255143WA0113701269
B1239363653678N00255147WA0113801272
B1239373653678N00255151WA0113901273
B1239383653678N00255156WA0114001275
B1239393653680N00255160WA0114101276
B1239403653682N00255165WA0114101277
B1239413653685N00255170WA0114201278
B1239423653689N00255174WA0114201279
B1239433653693N00255177WA0114301280
B1239443653697N00255179WA0114301280
B1239453653703N00255180WA0114001281
B1239463653708N00255179WA0113901281
B1239473653714N00255177WA0114301282
B1239483653718N00255173WA0114501283
B1239493653722N00255170WA0114601284
B1239503653726N00255165WA0114501285
B1239513653729N00255160WA0114301285
B1239523653732N00255154WA0114601286
B1239533653735N00255148WA0115001287
B1239543653736N00255142WA0115301289
B1239553653737N00255137WA0115501291
B1239563653736N00255133WA0115801294
B1239573653735N00255129WA0115901296
B1239583653732N00255125WA0116001296
B1239593653728N00255123WA0116101297
B1240003653724N00255122WA0116301298
B1240013653721N00255123WA0116501300
B1240023653717N00255125WA0116601302
B1240033653714N00255128WA0116901304
B1240043653713N00255132WA0117001306
B1240053653712N00255136WA0117001307
B1240063653713N00255142WA0116901308
B1240073653714N00255148WA0116501308
B1240083653717N00255154WA0116601308
B1240093653721N00255158WA0117001309
B1240103653725N00255161WA0117201310
B1240113653730N00255162WA0117301311
B1240123653734N00255163WA0117201311
B1240133653739N00255163WA0117301311
B1240143653744N00255162WA0117201312
B1240153653750N00255159WA0117301312
B1240163653755N00255154WA0117301311
B1240173653759N00255149WA0117501312
B1240183653763N00255143WA0117701313
B1240193653765N00255137WA0117801314
B1240203653766N00255131WA0117901315
B1240213653767N00255125WA0118001316
B1240223653768N00255119WA0118101317
B1240233653769N00255114WA0118301319
B1240243653769N00255108WA0118101320
B1240253653768N00255103WA0118101321
B1240263653766N00255097WA0118501322
B1240273653763N00255093WA0118701323
B1240283653762N00255090WA0118901325
B1240293653760N00255087WA0119101327
B1240303653757N00255085WA0119201328
B1240313653754N00255085WA0119201329
B1240323653750N00255086WA0119101329
B1240333653746N00255089WA0119001329
B1240343653742N00255092WA0119201329
B1240353653739N00255096WA0119401331
B1240363653738N00255100WA0119601333
B1240373653738N00255103WA0119701335
B1240383653738N00255107WA0119701336
B1240393653740N00255112WA0119601337
B1240403653742N00255118WA0119301338
B1240413653747N00255124WA0119301338
B1240423653751N00255128WA0119401338
B1240433653755N00255130WA0119501339
B1240443653759N00255130WA0119601339
B1240453653763N00255130WA0119601340
B1240463653768N00255129WA0119301340
B1240473653773N00255127WA0119201340
B1240483653778N00255123WA0119501340
B1240493653781N00255118WA0119601341
B1240503653785N00255113WA0119901342
B1240513653788N00255109WA0120101343
B1240523653792N00255104WA0120201344
B1240533653795N00255099WA0120401346
B1240543653797N00255093WA0120601346
B1240553653799N00255087WA0120701346
B1240563653798N00255081WA0120701347
B1240573653797N00255076WA0120801348
B1240583653796N00255071WA0120801347
B1240593653794N00255066WA0120801347
B1241003653791N00255062WA0120801347
B1241013653789N00255058WA0120801348
B1241023653786N00255056WA0120901349
B1241033653783N00255057WA0120901348
B1241043653780N00255059WA0120801347
B1241053653778N00255064WA0120701345
B1241063653777N00255070WA0120601344
B1241073653778N00255075WA0120701344
B1241083653780N00255080WA0120601344
B1241093653782N00255085WA0120301344
B1241103653784N00255090WA0120301343
B1241113653787N00255094WA0120201342
B1241123653792N00255099WA0120101341
B1241133653798N00255103WA0120001339
B1241143653804N00255106WA0120001339
B1241153653810N00255107WA0120101338
B1241163653815N00255108WA0120301338
B1241173653821N00255108WA0120301338
B1241183653826N00255108WA0120201338
B1241193653833N00255108WA0120101337
B1241203653839N00255108WA0120201337
B1241213653845N00255107WA0120301337
B1241223653850N00255106WA0120501337
B1241233653855N00255103WA0120501339
B1241243653859N00255099WA0120201338
B1241253653863N00255093WA0120101337
B1241263653866N00255086WA0120301338
B1241273653869N00255080WA0120801340
B1241283653872N00255075WA0121101344
B1241293653874N00255071WA0121401347
B1241303653875N00255065WA0121601351
B1241313653875N00255059WA0121701353
B1241323653874N00255054WA0121701354
B1241333653871N00255050WA0121801355
B1241343653868N00255049WA0121801356
B1241353653865N00255050WA0121801356
B1241363653863N00255052WA0121701356
B1241373653862N00255056WA0121801356
B1241383653861N00255061WA0121801356
B1241393653861N00255067WA0122001357
B1241403653863N00255073WA0122101357
B1241413653866N00255078WA0122301359
B1241423653869N00255083WA0122401360
B1241433653875N00255087WA0122401361
B1241443653881N00255090WA0122401362
B1241453653888N00255093WA0122501363
B1241463653894N00255095WA0122701364
B1241473653901N00255097WA0123001366
B1241483653907N00255097WA0123201368
B1241493653913N00255096WA0123401370
B1241503653919N00255093WA0123601372
B1241513653924N00255089WA0123701373
B1241523653929N00255085WA0123801374
B1241533653933N00255080WA0123901376
B1241543653937N00255074WA0123901376
B1241553653941N00255067WA0124001377
B1241563653942N00255060WA0124201378
B1241573653943N00255054WA0124601380
B1241583653942N00255049WA0124701382
B1241593653939N00255044WA0124701382
B1242003653935N00255040WA0124701381
B1242013653931N00255038WA0124701381
B1242023653926N00255038WA0124901383
B1242033653923N00255040WA0125001385
B1242043653921N00255045WA0125101386
B1242053653921N00255051WA0124901386
B1242063653922N00255056WA0124901387
B1242073653923N00255061WA0125101388
B1242083653926N00255067WA0125101388
B1242093653929N00255073WA0125101388
B1242103653935N00255079WA0125101388
B1242113653941N00255084WA0125301388
B1242123653946N00255088WA0125501392
B1242133653951N00255090WA0125801396
B1242143653957N00255090WA0126001398
B1242153653962N00255090WA0126101400
B1242163653968N00255088WA0126201401
B1242173653974N00255084WA0126301401
B1242183653980N00255080WA0126501402
B1242193653984N00255075WA0126701404
B1242203653986N00255069WA0126801405
B1242213653986N00255064WA0126901406
B1242223653984N00255059WA0126901407
B1242233653981N00255055WA0127101408
B1242243653978N00255053WA0127401410
B1242253653974N00255053WA0127601412
B1242263653972N00255055WA0127701414
B1242273653970N00255059WA0127901415
B1242283653969N00255064WA0128001417
B1242293653968N00255069WA0128101419
B1242303653968N00255076WA0128101420
B1242313653970N00255083WA0127901420
B1242323653973N00255089WA0127901421
B1242333653977N00255095WA0128301422
B1242343653982N00255099WA0128401422
B1242353653987N00255102WA0128501423
B1242363653993N00255104WA0128601425
B1242373653999N00255104WA0128701426
B1242383654005N00255102WA0128901427
B1242393654011N00255098WA0129001429
B1242403654015N00255092WA0129101430
B1242413654018N00255086WA0129401431
B1242423654019N00255082WA0129601433
B1242433654019N00255078WA0129801435
B1242443654019N00255074WA0129801436
B1242453654017N00255070WA0129901436
B1242463654015N00255065WA0130001436
B1242473654013N00255061WA0130101438
B1242483654011N00255057WA0130301440
B1242493654009N00255054WA0130501442
B1242503654006N00255052WA0130801444
B1242513654004N00255053WA0130801445
B1242523654001N00255055WA0130701445
B1242533653998N00255059WA0130701443
B1242543653996N00255063WA0130801444
B1242553653995N00255068WA0130901446
B1242563653995N00255074WA0131001447
B1242573653996N00255080WA0131101447
B1242583653998N00255087WA0131001448
B1242593654003N00255094WA0130901448
B1243003654008N00255099WA0130801448
B1243013654014N00255103WA0131001448
B1243023654020N00255105WA0131101450
B1243033654026N00255106WA0131201451
B1243043654031N00255106WA0131001452
B1243053654037N00255104WA0130901452
B1243063654042N00255100WA0131001453
B1243073654046N00255096WA0131201453
B1243083654050N00255091WA0131401454
B1243093654053N00255086WA0131501455
B1243103654055N00255081WA0131601456
B1243113654057N00255075WA0131701457
B1243123654059N00255070WA0131801457
B1243133654060N00255064WA0131801458
B1243143654062N00255058WA0132001459
B1243153654064N00255053WA0132101460
B1243163654066N00255048WA0132301462
B1243173654067N00255044WA0132301463
B1243183654067N00255038WA0132401464
B1243193654067N00255033WA0132401464
B1243203654066N00255027WA0132501465
B1243213654065N00255022WA0132601466
B1243223654064N00255018WA0132901468
B1243233654062N00255015WA0133101470
B1243243654061N00255012WA0133301472
B1243253654059N00255010WA0133301474
B1243263654057N00255008WA0133401474
B1243273654054N00255008WA0133501475
B1243283654051N00255009WA0133501475
B1243293654047N00255011WA0133401474
B1243303654045N00255015WA0133401474
B1243313654044N00255019WA0133501475
B1243323654044N00255025WA0133601475
B1243333654045N00255030WA0133601475
B1243343654047N00255036WA0133601476
B1243353654051N00255041WA0133201476
B1243363654057N00255046WA0132901475
B1243373654064N00255049WA0133401475
B1243383654071N00255050WA0133701475
B1243393654077N00255049WA0133701476
B1243403654082N00255047WA0133701478
B1243413654087N00255043WA0133701477
B1243423654092N00255039WA0133601477
B1243433654097N00255034WA0133501476
B1243443654102N00255028WA0133701476
B1243453654105N00255023WA0133901478
B1243463654107N00255018WA0134101479
B1243473654109N00255013WA0134101480
B1243483654111N00255008WA0134101481
B1243493654113N00255002WA0134101480
B1243503654116N00254995WA0133901480
B1243513654118N00254988WA0134001480
B1243523654120N00254982WA0134001481
B1243533654122N00254975WA0134101481
B1243543654124N00254968WA0134401483
B1243553654127N00254963WA0134601484
B1243563654130N00254958WA0134801486
B1243573654133N00254953WA0135001488
B1243583654134N00254947WA0135001489
B1243593654134N00254941WA0135101490
B1244003654132N00254935WA0135101490
B1244013654129N00254930WA0135101490
B1244023654126N00254926WA0135201491
B1244033654123N00254924WA0135301492
B1244043654120N00254924WA0135401493
B1244053654118N00254925WA0135401493
B1244063654116N00254928WA0135201491
B1244073654115N00254933WA0135001490
B1244083654114N00254939WA0134601489
B1244093654115N00254945WA0134901488
B1244103654117N00254951WA0135001487
B1244113654120N00254958WA0135201487
B1244123654124N00254964WA0135401488
B1244133654129N00254969WA0135501490
B1244143654135N00254972WA0135601491
B1244153654141N00254972WA0135601491
B1244163654147N00254971WA0135601492
B1244173654153N00254967WA0135801493
B1244183654157N00254962WA0136001494
B1244193654161N00254957WA0136201497
B1244203654164N00254952WA0136201498
B1244213654165N00254946WA0136301499
B1244223654165N00254941WA0136301500
B1244233654166N00254936WA0136301501
B1244243654166N00254930WA0136401501
B1244253654166N00254925WA0136501502
B1244263654167N00254921WA0136501503
B1244273654167N00254916WA0136401503
B1244283654166N00254911WA0136001503
B1244293654166N00254906WA0135701501
B1244303654167N00254900WA0135601501
B1244313654169N00254893WA0135601500
B1244323654172N00254887WA0135501500
B1244333654175N00254880WA0135501499
B1244343654177N00254874WA0135601499
B1244353654179N00254868WA0135601498
B1244363654179N00254861WA0135601499
B1244373654180N00254855WA0135701499
B1244383654182N00254850WA0135801499
B1244393654184N00254844WA0135901499
B1244403654185N00254839WA0136001500
B1244413654185N00254835WA0135901500
B1244423654185N00254830WA0135701500
B1244433654183N00254826WA0135501498
B1244443654179N00254822WA0134901494
B1244453654175N00254820WA0135001492
B1244463654170N00254820WA0135101490
B1244473654166N00254821WA0135101489
B1244483654162N00254823WA0135001489
B1244493654159N00254825WA0134901489
B1244503654155N00254827WA0134501488
B1244513654152N00254831WA0134501486
B1244523654149N00254836WA0134301484
B1244533654147N00254842WA0134301483
B1244543654145N00254847WA0134201482
B1244553654143N00254852WA0134101482
B1244563654141N00254858WA0134001481
B1244573654139N00254863WA0133901480
B1244583654138N00254869WA0133701479
B1244593654137N00254875WA0133601478
B1245003654137N00254881WA0133501476
B1245013654137N00254887WA0133501476
B1245023654137N00254893WA0133401475
B1245033654136N00254899WA0133301474
B1245043654136N00254906WA0133301473
B1245053654136N00254911WA0133201473
B1245063654137N00254917WA0133101472
B1245073654138N00254923WA0132801471
B1245083654139N00254930WA0132501470
B1245093654140N00254936WA0132601469
B1245103654141N00254942WA0132701468
B1245113654142N00254948WA0132801468
B1245123654144N00254954WA0132901469
B1245133654146N00254962WA0133001469
B1245143654149N00254968WA0133401471
B1245153654153N00254974WA0133701473
B1245163654158N00254977WA0133901476
B1245173654163N00254979WA0134001478
B1245183654170N00254978WA0134001479
B1245193654176N00254974WA0134001479
B1245203654181N00254969WA0134101480
B1245213654183N00254963WA0134201481
B1245223654183N00254959WA0134301482
B1245233654183N00254955WA0134401483
B1245243654182N00254951WA0134201483
B1245253654179N00254948WA0133901480
B1245263654175N00254946WA0133801478
B1245273654170N00254946WA0133801477
B1245283654167N00254948WA0134001476
B1245293654165N00254951WA0134101477
B1245303654164N00254954WA0134101478
B1245313654162N00254957WA0134101479
B1245323654160N00254960WA0134101479
B1245333654157N00254963WA0134001478
B1245343654153N00254967WA0134101478
B1245353654150N00254973WA0134301479
B1245363654149N00254978WA0134601482
B1245373654149N00254983WA0134801484
B1245383654151N00254989WA0134901486
B1245393654153N00254996WA0135101487
B1245403654155N00255003WA0135201488
B1245413654159N00255010WA0135501490
B1245423654164N00255015WA0135701493
B1245433654171N00255019WA0135901495
B1245443654177N00255021WA0136001496
B1245453654184N00255021WA0136101498
B1245463654190N00255018WA0136301499
B1245473654195N00255014WA0136401500
B1245483654198N00255009WA0136601502
B1245493654200N00255004WA0136801504
B1245503654199N00255000WA0137001506
B1245513654196N00254997WA0137101508
B1245523654192N00254997WA0137301509
B1245533654188N00255000WA0137501510
B1245543654187N00255008WA0137501512
B1245553654189N00255016WA0137701514
B1245563654194N00255023WA0137901516
B1245573654201N00255027WA0138101517
B1245583654207N00255030WA0138401519
B1245593654213N00255031WA0138601522
B1246003654219N00255032WA0138901525
B1246013654224N00255031WA0139001527
B1246023654230N00255029WA0139101528
B1246033654235N00255024WA0139301530
B1246043654238N00255020WA0139501531
B1246053654239N00255015WA0139601533
B1246063654238N00255011WA0139701535
B1246073654236N00255007WA0139901537
B1246083654234N00255004WA0140101539
B1246093654231N00255002WA0140501542
B1246103654229N00255002WA0140701545
B1246113654227N00255005WA0140801547
B1246123654225N00255009WA0140801548
B1246133654223N00255016WA0140901547
B1246143654224N00255024WA0141001547
B1246153654228N00255031WA0141201549
B1246163654234N00255038WA0141401550
B1246173654242N00255042WA0141601551
B1246183654249N00255044WA0141901553
B1246193654256N00255043WA0142201555
B1246203654262N00255041WA0142401558
B1246213654267N00255038WA0142501560
B1246223654271N00255034WA0142801561
B1246233654274N00255030WA0143001564
B1246243654276N00255026WA0143301567
B1246253654275N00255022WA0143301568
B1246263654274N00255017WA0143201569
B1246273654271N00255014WA0143301570
B1246283654267N00255013WA0143501572
B1246293654264N00255013WA0143701574
B1246303654261N00255016WA0143801575
B1246313654259N00255021WA0143901577
B1246323654258N00255026WA0144101579
B1246333654258N00255033WA0144201580
B1246343654259N00255040WA0144401582
B1246353654261N00255046WA0144701584
B1246363654265N00255052WA0144801586
B1246373654270N00255058WA0144801588
B1246383654276N00255063WA0144401589
B1246393654283N00255067WA0144601590
B1246403654291N00255069WA0144701591
B1246413654298N00255068WA0145201593
B1246423654305N00255066WA0145501595
B1246433654311N00255063WA0145601597
B1246443654317N00255060WA0145801599
B1246453654321N00255055WA0146001600
B1246463654324N00255050WA0146101602
B1246473654325N00255045WA0146201603
B1246483654325N00255040WA0146401605
B1246493654325N00255036WA0146501606
B1246503654323N00255032WA0146601608
B1246513654322N00255029WA0146501608
B1246523654319N00255026WA0146501608
B1246533654315N00255024WA0146401607
B1246543654312N00255023WA0146401607
B1246553654308N00255022WA0146501607
B1246563654305N00255022WA0146601608
B1246573654302N00255022WA0146701608
B1246583654299N00255024WA0146801609
B1246593654296N00255027WA0146901610
B1247003654293N00255032WA0147001610
B1247013654291N00255037WA0147101611
B1247023654289N00255043WA0147101611
B1247033654289N00255050WA0147201612
B1247043654291N00255057WA0147301613
B1247053654294N00255064WA0147101613
B1247063654298N00255070WA0146701613
B1247073654304N00255075WA0146901613
B1247083654310N00255078WA0147101612
B1247093654317N00255079WA0146901611
B1247103654324N00255079WA0146901611
B1247113654330N00255079WA0146801611
B1247123654336N00255076WA0146901611
B1247133654342N00255073WA0146701610
B1247143654347N00255068WA0146801610
B1247153654351N00255064WA0147101611
B1247163654355N00255061WA0147301615
B1247173654359N00255059WA0147601618
B1247183654361N00255056WA0147801620
B1247193654363N00255052WA0147801621
B1247203654364N00255048WA0147701622
B1247213654364N00255042WA0147601622
B1247223654364N00255036WA0147601622
B1247233654363N00255031WA0147601622
B1247243654363N00255026WA0147701622
B1247253654362N00255022WA0147801623
B1247263654361N00255019WA0148001624
B1247273654360N00255016WA0148101625
B1247283654359N00255012WA0148001626
B1247293654357N00255008WA0147801625
B1247303654354N00255004WA0147701622
B1247313654351N00255000WA0147801622
B1247323654349N00254998WA0147901622
B1247333654346N00254997WA0147901623
B1247343654343N00254997WA0147801623
B1247353654340N00254998WA0147601622
B1247363654337N00254998WA0147201620
B1247373654333N00254997WA0147101618
B1247383654329N00254997WA0147301617
B1247393654326N00254996WA0147301617
B1247403654323N00254997WA0147401616
B1247413654320N00254999WA0147301616
B1247423654317N00255001WA0147201616
B1247433654314N00255004WA0147201615
B1247443654313N00255008WA0147201615
B1247453654311N00255012WA0147301615
B1247463654312N00255018WA0147401615
B1247473654313N00255025WA0147401615
B1247483654316N00255031WA0147301615
B1247493654321N00255038WA0147301614
B1247503654327N00255044WA0147401614
B1247513654333N00255049WA0147501615
B1247523654338N00255052WA0147701618
B1247533654344N00255055WA0147801619
B1247543654350N00255057WA0147901620
B1247553654355N00255058WA0148001621
B1247563654362N00255057WA0148001622
B1247573654367N00255056WA0148001623
B1247583654373N00255054WA0147901623
B1247593654377N00255050WA0147801621
B1248003654380N00255046WA0147401621
B1248013654382N00255041WA0147101620
B1248023654382N00255036WA0147401619
B1248033654382N00255033WA0147401619
B1248043654381N00255030WA0147301618
B1248053654380N00255026WA0147201617
B1248063654379N00255022WA0147001616
B1248073654378N00255017WA0146901614
B1248083654376N00255013WA0146901613
B1248093654374N00255010WA0146801613
B1248103654372N00255007WA0146701612
B1248113654370N00255005WA0146501611
B1248123654367N00255003WA0146301609
B1248133654364N00255001WA0146101607
B1248143654361N00255000WA0145801605
B1248153654358N00254998WA0145701604
B1248163654356N00254996WA0145501602
B1248173654353N00254994WA0145301601
B1248183654350N00254992WA0145001599
B1248193654347N00254990WA0144801596
B1248203654343N00254987WA0144701594
B1248213654340N00254985WA0144601592
B1248223654336N00254982WA0144501590
B1248233654332N00254981WA0144401589
B1248243654328N00254979WA0144401588
B1248253654325N00254978WA0144301587
B1248263654322N00254976WA0144201586
B1248273654319N00254974WA0144001584
B1248283654316N00254972WA0143801582
B1248293654313N00254969WA0143601580
B1248303654310N00254967WA0143501578
B1248313654307N00254964WA0143201575
B1248323654305N00254960WA0142901573
B1248333654303N00254956WA0142601570
B1248343654300N00254951WA0142301567
B1248353654296N00254947WA0142201565
B1248363654293N00254943WA0142101563
B1248373654289N00254940WA0142001561
B1248383654286N00254936WA0141901560
B1248393654283N00254933WA0141801559
B1248403654280N00254930WA0141701558
B1248413654277N00254927WA0141501557
B1248423654273N00254924WA0141301555
B1248433654269N00254921WA0141101553
B1248443654266N00254917WA0141001551
B1248453654262N00254914WA0140901550
B1248463654258N00254912WA0140801549
B1248473654255N00254911WA0140701550
B1248483654251N00254908WA0140501549
B1248493654247N00254906WA0140201549
B1248503654242N00254904WA0140001548
B1248513654239N00254901WA0139801547
B1248523654235N00254899WA0139701545
B1248533654231N00254897WA0139601544
B1248543654227N00254895WA0139501542
B1248553654223N00254893WA0139401541
B1248563654219N00254891WA0139201539
B1248573654215N00254889WA0139101537
B1248583654212N00254887WA0139001536
B1248593654209N00254884WA0138901535
B1249003654205N00254881WA0138801534
B1249013654202N00254879WA0138601532
B1249023654198N00254877WA0138401530
B1249033654194N00254874WA0138401529
B1249043654190N00254871WA0138401529
B1249053654187N00254868WA0138401528
B1249063654185N00254865WA0138301527
B1249073654181N00254862WA0138101527
B1249083654178N00254858WA0137901525
B1249093654174N00254855WA0137801523
B1249103654171N00254851WA0137801523
B1249113654168N00254847WA0137901522
B1249123654165N00254844WA0138101523
B1249133654163N00254842WA0138201524
B1249143654161N00254839WA0138201524
B1249153654158N00254837WA0138301525
B1249163654156N00254834WA0138301525
B1249173654154N00254831WA0138401526
B1249183654152N00254828WA0138501527
B1249193654151N00254825WA0138701529
B1249203654149N00254822WA0138901531
B1249213654146N00254821WA0138901532
B1249223654143N00254820WA0139001532
B1249233654139N00254819WA0139101533
B1249243654135N00254818WA0139201534
B1249253654131N00254816WA0139401535
B1249263654128N00254814WA0139601537
B1249273654125N00254812WA0140001540
B1249283654123N00254812WA0140301543
B1249293654120N00254815WA0140401545
B1249303654119N00254820WA0140401545
B1249313654119N00254826WA0140401546
B1249323654122N00254832WA0140501547
B1249333654125N00254837WA0140801549
B1249343654129N00254840WA0141001552
B1249353654134N00254843WA0141201555
B1249363654140N00254844WA0141401556
B1249373654146N00254844WA0141501558
B1249383654153N00254841WA0141601559
B1249393654159N00254835WA0141701560
B1249403654162N00254829WA0142001563
B1249413654163N00254823WA0142301565
B1249423654161N00254818WA0142501568
B1249433654159N00254813WA0142601569
B1249443654156N00254810WA0142701571
B1249453654153N00254807WA0142901572
B1249463654150N00254806WA0143101574
B1249473654147N00254806WA0143101575
B1249483654144N00254808WA0143201575
B1249493654142N00254813WA0143101575
B1249503654141N00254818WA0143201574
B1249513654141N00254825WA0143301575
B1249523654142N00254831WA0143601575
B1249533654144N00254836WA0143801577
B1249543654146N00254840WA0144101581
B1249553654151N00254843WA0144401584
B1249563654156N00254844WA0144701585
B1249573654161N00254843WA0144801587
B1249583654167N00254840WA0144901588
B1249593654171N00254835WA0145001590
B1250003654173N00254828WA0145101591
B1250013654173N00254822WA0145401593
B1250023654172N00254816WA0145501594
B1250033654169N00254812WA0145701596
B1250043654166N00254808WA0145901598
B1250053654163N00254806WA0146001600
B1250063654159N00254804WA0146001600
B1250073654155N00254803WA0145501601
B1250083654151N00254804WA0145801601
B1250093654148N00254806WA0146001601
B1250103654145N00254809WA0146101602
B1250113654142N00254812WA0146201603
B1250123654140N00254816WA0146301605
B1250133654138N00254820WA0146501606
B1250143654137N00254825WA0146801608
B1250153654137N00254831WA0147001610
B1250163654138N00254837WA0147201611
B1250173654141N00254841WA0147501614
B1250183654146N00254844WA0147701615
B1250193654151N00254844WA0147901615
B1250203654156N00254842WA0147901617
B1250213654160N00254837WA0148101619
B1250223654162N00254831WA0148401620
B1250233654163N00254824WA0148301621
B1250243654162N00254818WA0148501623
B1250253654160N00254812WA0148701625
B1250263654158N00254807WA0148801627
B1250273654155N00254804WA0149001629
B1250283654151N00254803WA0149101630
B1250293654147N00254803WA0149101631
B1250303654143N00254804WA0149101631
B1250313654138N00254807WA0149301632
B1250323654134N00254811WA0149501633
B1250333654131N00254816WA0149801636
B1250343654130N00254820WA0150101638
B1250353654131N00254825WA0150101640
B1250363654134N00254829WA0150101641
B1250373654138N00254832WA0150201640
B1250383654143N00254834WA0150501642
B1250393654147N00254836WA0150801645
B1250403654151N00254836WA0151001647
B1250413654154N00254834WA0151001649
B1250423654157N00254830WA0151101650
B1250433654160N00254825WA0151101650
B1250443654163N00254820WA0151201651
B1250453654166N00254814WA0151201652
B1250463654168N00254808WA0151401653
B1250473654169N00254803WA0151601655
B1250483654168N00254798WA0151501656
B1250493654166N00254793WA0151001653
B1250503654161N00254789WA0151001651
B1250513654156N00254786WA0151201651
B1250523654150N00254786WA0151501652
B1250533654146N00254787WA0151601653
B1250543654142N00254788WA0151801654
B1250553654138N00254790WA0151801656
B1250563654134N00254792WA0151501656
B1250573654129N00254794WA0151201656
B1250583654124N00254795WA0151201655
B1250593654119N00254794WA0151401656
B1251003654114N00254792WA0151501655
B1251013654110N00254790WA0151501655
B1251023654106N00254789WA0151401654
B1251033654102N00254789WA0151201653
B1251043654097N00254789WA0150901651
B1251053654091N00254789WA0150701648
B1251063654085N00254788WA0150401645
B1251073654079N00254786WA0150401643
B1251083654075N00254783WA0150401642
B1251093654070N00254782WA0150401642
B1251103654066N00254781WA0150201642
B1251113654061N00254781WA0149901640
B1251123654055N00254779WA0149501637
B1251133654049N00254776WA0149401634
B1251143654044N00254773WA0149301633
B1251153654039N00254770WA0149301632
B1251163654034N00254767WA0149201632
B1251173654030N00254766WA0149101631
B1251183654025N00254764WA0148901630
B1251193654020N00254762WA0148701628
B1251203654014N00254760WA0148501627
B1251213654008N00254757WA0148001625
B1251223654002N00254754WA0147701623
B1251233653996N00254752WA0147501620
B1251243653989N00254751WA0147501618
B1251253653982N00254749WA0147501616
B1251263653975N00254748WA0147401615
B1251273653969N00254747WA0147301614
B1251283653962N00254747WA0147201613
B1251293653956N00254747WA0147101612
B1251303653949N00254747WA0146901610
B1251313653942N00254747WA0146701609
B1251323653935N00254747WA0146601608
B1251333653928N00254748WA0146601607
B1251343653921N00254748WA0146501606
B1251353653915N00254748WA0146401606
B1251363653908N00254748WA0146201605
B1251373653902N00254747WA0146101603
B1251383653895N00254747WA0146001602
B1251393653888N00254746WA0145901600
B1251403653882N00254746WA0145801599
B1251413653875N00254745WA0145601598
B1251423653869N00254744WA0145401596
B1251433653862N00254743WA0145301595
B1251443653856N00254741WA0145201593
B1251453653850N00254740WA0144801591
B1251463653843N00254739WA0144601588
B1251473653836N00254738WA0144301586
B1251483653829N00254737WA0143801584
B1251493653823N00254736WA0143701582
B1251503653816N00254735WA0143801580
B1251513653810N00254734WA0143501578
B1251523653803N00254734WA0143201576
B1251533653797N00254733WA0142901573
B1251543653790N00254733WA0142701570
B1251553653783N00254732WA0142401568
B1251563653777N00254731WA0142101566
B1251573653770N00254730WA0142001564
B1251583653764N00254728WA0141701561
B1251593653758N00254726WA0141601559
B1252003653752N00254724WA0141301556
B1252013653746N00254721WA0141101554
B1252023653740N00254719WA0140901551
B1252033653734N00254717WA0140601549
B1252043653727N00254715WA0140401546
B1252053653721N00254714WA0140101544
B1252063653715N00254712WA0139801542
B1252073653709N00254711WA0139501539
B1252083653703N00254709WA0139401537
B1252093653696N00254708WA0139201534
B1252103653690N00254707WA0139001532
B1252113653683N00254706WA0138601529
B1252123653677N00254705WA0138301527
B1252133653671N00254704WA0138001525
B1252143653665N00254704WA0137801522
B1252153653658N00254703WA0137501520
B1252163653652N00254702WA0137401517
B1252173653645N00254701WA0137101514
B1252183653639N00254699WA0136901512
B1252193653633N00254697WA0136701509
B1252203653627N00254694WA0136501507
B1252213653620N00254691WA0136501505
B1252223653614N00254689WA0136301503
B1252233653608N00254686WA0136101501
B1252243653602N00254684WA0136001499
B1252253653596N00254682WA0135601497
B1252263653589N00254681WA0135301495
B1252273653582N00254680WA0135101493
B1252283653575N00254680WA0135001491
B1252293653569N00254678WA0134901489
B1252303653562N00254677WA0134801486
B1252313653556N00254677WA0134701485
B1252323653550N00254677WA0134501486
B1252333653544N00254677WA0134401485
B1252343653537N00254678WA0134201484
B1252353653531N00254678WA0134001482
B1252363653524N00254678WA0133901481
B1252373653518N00254678WA0133701480
B1252383653511N00254677WA0133701479
B1252393653505N00254677WA0133501477
B1252403653499N00254676WA0133301475
B1252413653492N00254676WA0133101474
B1252423653486N00254676WA0133001472
B1252433653480N00254675WA0132801471
B1252443653474N00254674WA0132501470
B1252453653468N00254673WA0132301468
B1252463653462N00254673WA0132201466
B1252473653457N00254674WA0132101464
B1252483653452N00254674WA0131801463
B1252493653446N00254674WA0131201460
B1252503653440N00254673WA0130801457
B1252513653434N00254673WA0130501454
B1252523653428N00254673WA0130601452
B1252533653422N00254674WA0130701450
B1252543653416N00254673WA0130501449
B1252553653411N00254673WA0130301447
B1252563653406N00254671WA0130201445
B1252573653402N00254670WA0130201444
B1252583653397N00254669WA0130001442
B1252593653393N00254668WA0129701440
B1253003653388N00254666WA0129301439
B1253013653384N00254665WA0129101437
B1253023653380N00254663WA0129001435
B1253033653376N00254661WA0128901434
B1253043653372N00254659WA0128801433
B1253053653368N00254656WA0128701431
B1253063653365N00254653WA0128501430
B1253073653361N00254649WA0128201427
B1253083653357N00254645WA0127801426
B1253093653354N00254641WA0127901424
B1253103653352N00254637WA0127801422
B1253113653349N00254633WA0127601421
B1253123653346N00254628WA0127601420
B1253133653343N00254625WA0127601419
B1253143653340N00254622WA0127501419
B1253153653336N00254621WA0127501419
B1253163653333N00254620WA0127601419
B1253173653329N00254621WA0127501419
B1253183653325N00254622WA0127401418
B1253193653322N00254624WA0127301417
B1253203653318N00254626WA0127101416
B1253213653315N00254629WA0126901414
B1253223653311N00254633WA0126601411
B1253233653308N00254637WA0126201408
B1253243653304N00254640WA0125801404
B1253253653300N00254644WA0125501401
B1253263653295N00254648WA0125301398
B1253273653291N00254651WA0125101396
B1253283653287N00254654WA0124901394
B1253293653282N00254656WA0124701392
B1253303653278N00254659WA0124501390
B1253313653273N00254662WA0124301388
B1253323653269N00254664WA0124001386
B1253333653265N00254666WA0123801385
B1253343653261N00254668WA0123701383
B1253353653257N00254668WA0123701382
B1253363653253N00254668WA0123601381
B1253373653250N00254667WA0123701380
B1253383653246N00254667WA0123701379
B1253393653243N00254667WA0123601378
B1253403653239N00254666WA0123501377
B1253413653236N00254666WA0123301375
B1253423653232N00254664WA0123201374
B1253433653228N00254662WA0123001373
B1253443653224N00254658WA0122801371
B1253453653220N00254654WA0122801370
B1253463653217N00254651WA0122801370
B1253473653215N00254647WA0122701370
B1253483653212N00254643WA0122601369
B1253493653208N00254640WA0122401367
B1253503653205N00254636WA0122201366
B1253513653201N00254633WA0122101364
B1253523653196N00254631WA0122001363
B1253533653192N00254629WA0122101362
B1253543653187N00254628WA0122101362
B1253553653183N00254628WA0122201362
B1253563653180N00254627WA0122301363
B1253573653177N00254627WA0122201363
B1253583653174N00254626WA0122101363
B1253593653170N00254624WA0121801363
B1254003653166N00254621WA0121501361
B1254013653163N00254618WA0121501360
B1254023653160N00254615WA0121501359
B1254033653158N00254612WA0121501359
B1254043653156N00254609WA0121401358
B1254053653153N00254605WA0121201357
B1254063653148N00254602WA0121201356
B1254073653144N00254600WA0121401356
B1254083653141N00254598WA0121601356
B1254093653139N00254597WA0121801356
B1254103653136N00254596WA0122001358
B1254113653134N00254595WA0121901358
B1254123653130N00254595WA0121801358
B1254133653126N00254594WA0121801357
B1254143653122N00254592WA0121801357
B1254153653118N00254590WA0122101358
B1254163653115N00254587WA0122201360
B1254173653113N00254585WA0122401361
B1254183653111N00254582WA0122501363
B1254193653108N00254578WA0122501364
B1254203653107N00254573WA0122401364
B1254213653105N00254567WA0122401365
B1254223653104N00254560WA0122701366
B1254233653104N00254555WA0123001368
B1254243653105N00254549WA0123401371
B1254253653107N00254545WA0123601373
B1254263653110N00254540WA0123801376
B1254273653114N00254534WA0123601378
B1254283653118N00254529WA0123701379
B1254293653124N00254525WA0123801381
B1254303653129N00254524WA0123901383
B1254313653135N00254524WA0123901383
B1254323653141N00254525WA0124101384
B1254333653147N00254527WA0124201384
B1254343653152N00254529WA0124401385
B1254353653156N00254530WA0124701387
B1254363653160N00254532WA0124901390
B1254373653164N00254536WA0124901391
B1254383653166N00254540WA0124901392
B1254393653168N00254545WA0124901392
B1254403653168N00254550WA0124801392
B1254413653166N00254554WA0124501391
B1254423653164N00254557WA0124501390
B1254433653161N00254560WA0124601390
B1254443653159N00254564WA0124701390
B1254453653156N00254568WA0124801391
B1254463653155N00254571WA0124901392
B1254473653153N00254574WA0125001393
B1254483653151N00254576WA0124901394
B1254493653148N00254578WA0124801393
B1254503653145N00254579WA0124901393
B1254513653143N00254581WA0124901393
B1254523653140N00254582WA0125001394
B1254533653138N00254584WA0125101395
B1254543653136N00254584WA0125201395
B1254553653133N00254584WA0125301396
B1254563653131N00254583WA0125301396
B1254573653128N00254581WA0125301396
B1254583653126N00254580WA0125301397
B1254593653124N00254579WA0125401397
B1255003653121N00254577WA0125601398
B1255013653119N00254576WA0125701399
B1255023653117N00254575WA0125901400
B1255033653115N00254573WA0126101402
B1255043653113N00254572WA0126401404
B1255053653111N00254570WA0126601406
B1255063653108N00254569WA0126801408
B1255073653106N00254568WA0127001410
B1255083653103N00254567WA0127301413
B1255093653100N00254567WA0127601416
B1255103653098N00254567WA0127901418
B1255113653095N00254568WA0128101421
B1255123653093N00254568WA0128501424
B1255133653090N00254568WA0128601426
B1255143653087N00254568WA0128801429
B1255153653084N00254568WA0129001431
B1255163653081N00254566WA0129401434
B1255173653079N00254565WA0129701436
B1255183653076N00254564WA0130001439
B1255193653074N00254562WA0130201442
B1255203653071N00254561WA0130501445
B1255213653068N00254559WA0130801448
B1255223653065N00254558WA0131101451
B1255233653061N00254557WA0131401454
B1255243653058N00254557WA0131701457
B1255253653054N00254558WA0132001460
B1255263653051N00254559WA0132101463
B1255273653049N00254560WA0132201464
B1255283653046N00254560WA0132301465
B1255293653043N00254561WA0132401466
B1255303653040N00254562WA0132501467
B1255313653037N00254563WA0132601468
B1255323653034N00254564WA0132701468
B1255333653031N00254564WA0132701469
B1255343653027N00254563WA0132801470
B1255353653024N00254561WA0132801470
B1255363653021N00254560WA0132801470
B1255373653018N00254557WA0132501470
B1255383653015N00254554WA0132401469
B1255393653012N00254550WA0132301468
B1255403653010N00254546WA0132501468
B1255413653008N00254541WA0132601468
B1255423653009N00254535WA0132401468
B1255433653010N00254530WA0132501469
B1255443653013N00254525WA0132801469
B1255453653014N00254521WA0133001470
B1255463653015N00254516WA0133201471
B1255473653014N00254511WA0133201472
B1255483653011N00254506WA0133301473
B1255493653008N00254502WA0133501475
B1255503653004N00254502WA0133701477
B1255513653001N00254502WA0133701478
B1255523652997N00254504WA0133701479
B1255533652993N00254504WA0133801480
B1255543652989N00254504WA0133801480
B1255553652984N00254504WA0133801481
B1255563652981N00254505WA0134001482
B1255573652978N00254507WA0134101484
B1255583652975N00254509WA0134001484
B1255593652972N00254510WA0134001484
B1256003652967N00254512WA0133701482
B1256013652963N00254513WA0133701481
B1256023652959N00254514WA0133701480
B1256033652955N00254514WA0133701480
B1256043652952N00254514WA0133501479
B1256053652948N00254514WA0133401478
B1256063652943N00254514WA0133201476
B1256073652939N00254513WA0133101474
B1256083652935N00254512WA0133101473
B1256093652932N00254510WA0133101473
B1256103652930N00254508WA0133101473
B1256113652926N00254507WA0132901472
B1256123652922N00254507WA0132601470
B1256133652918N00254507WA0132501468
B1256143652913N00254507WA0132301466
B1256153652909N00254506WA0132201465
B1256163652906N00254505WA0132201464
B1256173652902N00254503WA0132001463
B1256183652898N00254500WA0132001462
B1256193652895N00254497WA0131801460
B1256203652891N00254494WA0131601458
B1256213652887N00254491WA0131501457
B1256223652884N00254487WA0131501456
B1256233652881N00254484WA0131401455
B1256243652879N00254482WA0131401454
B1256253652877N00254480WA0131201453
B1256263652874N00254478WA0131001451
B1256273652871N00254476WA0130801450
B1256283652867N00254475WA0130701448
B1256293652863N00254473WA0130501447
B1256303652859N00254472WA0130401446
B1256313652856N00254472WA0130501446
B1256323652854N00254471WA0130501446
B1256333652851N00254470WA0130401446
B1256343652848N00254468WA0130201445
B1256353652845N00254466WA0129901443
B1256363652841N00254464WA0129701441
B1256373652838N00254462WA0129801440
B1256383652834N00254461WA0129801440
B1256393652831N00254459WA0129801439
B1256403652827N00254458WA0129701439
B1256413652824N00254456WA0129701438
B1256423652821N00254454WA0129601438
B1256433652817N00254453WA0129401437
B1256443652813N00254452WA0129201435
B1256453652809N00254451WA0129001433
B1256463652804N00254449WA0128901432
B1256473652801N00254448WA0128801431
B1256483652797N00254446WA0128801430
B1256493652794N00254444WA0128801430
B1256503652790N00254442WA0128701429
B1256513652787N00254439WA0128601428
B1256523652784N00254435WA0128501427
B1256533652782N00254430WA0128501427
B1256543652781N00254425WA0128401426
B1256553652780N00254421WA0128301425
B1256563652778N00254417WA0128201424
B1256573652776N00254413WA0127801422
B1256583652772N00254408WA0127501419
B1256593652770N00254402WA0127501417
B1257003652768N00254396WA0127501416
B1257013652768N00254392WA0127501415
B1257023652767N00254389WA0127401414
B1257033652766N00254385WA0127101412
B1257043652764N00254381WA0126901410
B1257053652762N00254375WA0126601408
B1257063652760N00254369WA0126501406
B1257073652757N00254363WA0126601407
B1257083652755N00254359WA0126701407
B1257093652753N00254354WA0126701408
B1257103652751N00254349WA0126601408
B1257113652749N00254343WA0126501407
B1257123652747N00254336WA0126401406
B1257133652745N00254329WA0126401406
B1257143652744N00254323WA0126501406
B1257153652742N00254317WA0126701407
B1257163652741N00254313WA0126801408
B1257173652740N00254309WA0126901408
B1257183652739N00254304WA0126901409
B1257193652738N00254299WA0126501409
B1257203652737N00254293WA0126301409
B1257213652737N00254287WA0126401408
B1257223652738N00254280WA0126501408
B1257233652739N00254275WA0126801410
B1257243652741N00254270WA0126901411
B1257253652742N00254265WA0126901411
B1257263652742N00254259WA0126801410
B1257273652741N00254254WA0126601409
B1257283652739N00254248WA0126601408
B1257293652736N00254245WA0126701409
B1257303652732N00254243WA0126501409
B1257313652729N00254242WA0126401408
B1257323652726N00254241WA0126201407
B1257333652722N00254240WA0126001405
B1257343652719N00254237WA0125701403
B1257353652715N00254235WA0125501401
B1257363652712N00254232WA0125301399
B1257373652708N00254230WA0125201397
B1257383652704N00254229WA0124901395
B1257393652700N00254229WA0124801393
B1257403652698N00254228WA0124801393
B1257413652695N00254227WA0124701392
B1257423652693N00254226WA0124501390
B1257433652689N00254225WA0124101387
B1257443652685N00254223WA0123801385
B1257453652681N00254220WA0123801382
B1257463652678N00254216WA0123801381
B1257473652676N00254212WA0123801381
B1257483652674N00254209WA0123801381
B1257493652672N00254206WA0123701380
B1257503652669N00254202WA0123301379
B1257513652666N00254199WA0123001376
B1257523652662N00254195WA0122801374
B1257533652660N00254190WA0122601372
B1257543652658N00254185WA0122501371
B1257553652657N00254180WA0122401370
B1257563652657N00254175WA0122201369
B1257573652656N00254170WA0122201367
B1257583652656N00254165WA0122001366
B1257593652657N00254160WA0122001365
B1258003652657N00254155WA0121701364
B1258013652658N00254148WA0121401363
B1258023652659N00254141WA0121401362
B1258033652660N00254134WA0121601362
B1258043652661N00254128WA0121701363
B1258053652662N00254122WA0121701363
B1258063652662N00254117WA0121701363
B1258073652662N00254111WA0121501362
B1258083652662N00254105WA0121401361
B1258093652661N00254099WA0121401360
B1258103652660N00254093WA0121301360
B1258113652659N00254088WA0121401360
B1258123652657N00254083WA0121301359
B1258133652656N00254079WA0121201359
B1258143652654N00254074WA0121101358
B1258153652652N00254068WA0120901357
B1258163652650N00254063WA0120801357
B1258173652648N00254058WA0120801356
B1258183652647N00254053WA0120801355
B1258193652646N00254048WA0120801354
B1258203652644N00254043WA0120601353
B1258213652642N00254038WA0120301351
B1258223652639N00254034WA0120101349
B1258233652637N00254031WA0119901347
B1258243652635N00254027WA0119801346
B1258253652634N00254022WA0119601344
B1258263652633N00254017WA0119401343
B1258273652631N00254011WA0119201340
B1258283652629N00254006WA0119001338
B1258293652627N00254001WA0118801337
B1258303652624N00253996WA0118701335
B1258313652621N00253991WA0118601334
B1258323652619N00253988WA0118501333
B1258333652616N00253984WA0118301332
B1258343652612N00253981WA0118201330
B1258353652609N00253977WA0118001328
B1258363652605N00253973WA0117901327
B1258373652602N00253969WA0117901326
B1258383652599N00253965WA0117801325
B1258393652596N00253961WA0117701324
B1258403652593N00253957WA0117601323
B1258413652590N00253953WA0117401321
B1258423652587N00253949WA0117101319
B1258433652584N00253944WA0116701317
B1258443652580N00253939WA0116501316
B1258453652577N00253933WA0116601315
B1258463652575N00253927WA0116801314
B1258473652573N00253921WA0116801314
B1258483652570N00253916WA0116801314
B1258493652567N00253910WA0116701314
B1258503652564N00253904WA0116601314
B1258513652561N00253898WA0116701314
B1258523652558N00253892WA0116801314
B1258533652556N00253885WA0116901314
B1258543652554N00253879WA0117001315
B1258553652551N00253875WA0117201316
B1258563652547N00253871WA0117301316
B1258573652543N00253869WA0117401318
B1258583652540N00253868WA0117501319
B1258593652536N00253867WA0117701321
B1259003652532N00253866WA0117801322
B1259013652529N00253865WA0117901323
B1259023652526N00253865WA0117901324
B1259033652523N00253865WA0117801324
B1259043652519N00253866WA0117501323
B1259053652514N00253867WA0117401322
B1259063652510N00253867WA0117401321
B1259073652507N00253866WA0117501321
B1259083652504N00253864WA0117601321
B1259093652501N00253861WA0117501321
B1259103652498N00253857WA0117401320
B1259113652495N00253854WA0117401320
B1259123652491N00253850WA0117301319
B1259133652487N00253847WA0117301318
B1259143652484N00253844WA0117501319
B1259153652481N00253842WA0117701320
B1259163652478N00253840WA0117901322
B1259173652476N00253839WA0117901323
B1259183652474N00253839WA0118101325
B1259193652471N00253839WA0118001327
B1259203652469N00253840WA0117901327
B1259213652466N00253841WA0118001328
B1259223652462N00253839WA0118201329
B1259233652459N00253837WA0118401331
B1259243652456N00253834WA0118401332
B1259253652453N00253831WA0118601332
B1259263652450N00253830WA0118701333
B1259273652447N00253830WA0118701334
B1259283652444N00253830WA0118601333
B1259293652441N00253831WA0118501332
B1259303652438N00253831WA0118301332
B1259313652434N00253830WA0118101330
B1259323652431N00253829WA0117901329
B1259333652427N00253828WA0117801327
B1259343652423N00253827WA0117601325
B1259353652418N00253825WA0117401324
B1259363652415N00253823WA0117401322
B1259373652411N00253820WA0117401321
B1259383652408N00253817WA0117501322
B1259393652405N00253815WA0117601322
B1259403652402N00253813WA0117801323
B1259413652399N00253810WA0117901324
B1259423652397N00253808WA0118201326
B1259433652395N00253805WA0118501327
B1259443652394N00253803WA0118701330
B1259453652392N00253801WA0118801331
B1259463652389N00253800WA0118901332
B1259473652386N00253801WA0119001333
B1259483652384N00253803WA0119201335
B1259493652383N00253806WA0119301337
B1259503652383N00253809WA0119401339
B1259513652384N00253813WA0119401340
B1259523652386N00253818WA0119301340
B1259533652389N00253823WA0119201341
B1259543652394N00253827WA0119401342
B1259553652400N00253831WA0119601343
B1259563652406N00253832WA0119901344
B1259573652412N00253831WA0120201346
B1259583652418N00253829WA0120301348
B1259593652424N00253826WA0120401350
B1300003652429N00253821WA0120401351
B1300013652433N00253814WA0120301351
B1300023652435N00253805WA0120301351
B1300033652436N00253796WA0120301351
B1300043652436N00253788WA0120501352
B1300053652436N00253781WA0120701353
B1300063652435N00253774WA0120801354
B1300073652433N00253769WA0120901355
B1300083652430N00253765WA0121101356
B1300093652427N00253762WA0121201357
B1300103652424N00253759WA0121401358
B1300113652420N00253757WA0121501360
B1300123652417N00253755WA0121801362
B1300133652414N00253755WA0122001364
B1300143652412N00253755WA0122201366
B1300153652410N00253755WA0122201367
B1300163652407N00253754WA0122201369
B1300173652405N00253753WA0122201369
B1300183652402N00253752WA0122201369
B1300193652399N00253751WA0122201369
B1300203652397N00253751WA0122201369
B1300213652394N00253751WA0122201369
B1300223652392N00253752WA0122201369
B1300233652389N00253752WA0121801369
B1300243652386N00253751WA0121501368
B1300253652382N00253750WA0121301365
B1300263652378N00253749WA0121201364
B1300273652374N00253747WA0121101362
B1300283652371N00253743WA0121001361
B1300293652368N00253740WA0120801359
B1300303652364N00253736WA0120501357
B1300313652359N00253733WA0120301355
B1300323652355N00253731WA0120201354
B1300333652351N00253729WA0120301353
B1300343652347N00253728WA0120501352
B1300353652344N00253727WA0120501353
B1300363652341N00253725WA0120501353
B1300373652337N00253725WA0120801353
B1300383652334N00253724WA0120801354
B1300393652330N00253724WA0121001354
B1300403652327N00253724WA0121001355
B1300413652324N00253725WA0121301356
B1300423652322N00253728WA0121401358
B1300433652320N00253731WA0121401359
B1300443652319N00253736WA0121401360
B1300453652320N00253742WA0121401360
B1300463652322N00253747WA0121601361
B1300473652325N00253752WA0121701361
B1300483652330N00253755WA0121701362
B1300493652335N00253757WA0121401363
B1300503652342N00253758WA0121401363
B1300513652349N00253755WA0121601363
B1300523652355N00253751WA0121601362
B1300533652361N00253745WA0121601362
B1300543652364N00253739WA0121801362
B1300553652367N00253733WA0121901363
B1300563652368N00253727WA0121801363
B1300573652369N00253720WA0121501363
B1300583652368N00253713WA0121601363
B1300593652367N00253708WA0121901363
B1301003652365N00253703WA0122001364
B1301013652362N00253699WA0122001365
B1301023652359N00253696WA0122201366
B1301033652356N00253693WA0122301367
B1301043652354N00253691WA0122301368
B1301053652351N00253690WA0122201368
B1301063652348N00253689WA0122201368
B1301073652344N00253688WA0122101368
B1301083652340N00253687WA0122201367
B1301093652337N00253685WA0122201368
B1301103652334N00253683WA0122401369
B1301113652331N00253681WA0122701371
B1301123652329N00253680WA0122901373
B1301133652327N00253679WA0123101375
B1301143652326N00253679WA0123201376
B1301153652324N00253679WA0123301377
B1301163652322N00253679WA0123401378
B1301173652319N00253678WA0123601379
B1301183652317N00253677WA0123701380
B1301193652314N00253677WA0123901382
B1301203652312N00253678WA0124101384
B1301213652311N00253680WA0124301385
B1301223652310N00253683WA0124301386
B1301233652309N00253688WA0124201386
B1301243652309N00253694WA0124501386
B1301253652311N00253700WA0124801388
B1301263652313N00253705WA0125101391
B1301273652318N00253708WA0125301393
B1301283652323N00253710WA0125301395
B1301293652330N00253711WA0125201396
B1301303652337N00253709WA0125101397
B1301313652344N00253704WA0125101398
B1301323652349N00253697WA0125301399
B1301333652353N00253689WA0125601401
B1301343652355N00253681WA0125901402
B1301353652355N00253674WA0126201405
B1301363652355N00253667WA0126501408
B1301373652354N00253662WA0126701409
B1301383652352N00253657WA0126901412
B1301393652350N00253653WA0127001413
B1301403652348N00253650WA0127001414
B1301413652345N00253648WA0127001415
B1301423652342N00253645WA0126901414
B1301433652339N00253643WA0126801414
B1301443652336N00253641WA0127101414
B1301453652333N00253641WA0127401416
B1301463652329N00253643WA0127701418
B1301473652326N00253646WA0127901420
B1301483652324N00253650WA0128101423
B1301493652321N00253654WA0128201424
B1301503652319N00253660WA0128301425
B1301513652318N00253667WA0128301426
B1301523652319N00253676WA0128401427
B1301533652322N00253684WA0128501428
B1301543652326N00253691WA0128501429
B1301553652331N00253695WA0128901431
B1301563652336N00253698WA0129101433
B1301573652341N00253700WA0129301435
B1301583652347N00253699WA0129201436
B1301593652353N00253697WA0129201436
B1302003652359N00253693WA0129101437
B1302013652364N00253686WA0129101436
B1302023652367N00253680WA0129201437
B1302033652367N00253674WA0129501438
B1302043652368N00253670WA0129701441
B1302053652367N00253667WA0129801442
B1302063652365N00253665WA0129801443
B1302073652362N00253661WA0129501444
B1302083652358N00253658WA0129401443
B1302093652354N00253658WA0130101444
B1302103652352N00253659WA0130301447
B1302113652350N00253662WA0130501449
B1302123652349N00253664WA0130401449
B1302133652346N00253666WA0130201448
B1302143652343N00253667WA0129901447
B1302153652339N00253668WA0129901446
B1302163652335N00253668WA0130101446
B1302173652333N00253668WA0130201446
B1302183652331N00253667WA0130201448
B1302193652330N00253666WA0130201447
B1302203652327N00253665WA0129901446
B1302213652324N00253663WA0129701444
B1302223652321N00253661WA0129701442
B1302233652320N00253658WA0129901442
B1302243652318N00253657WA0130101443
B1302253652317N00253655WA0130201444
B1302263652314N00253655WA0130101445
B1302273652311N00253655WA0130001444
B1302283652307N00253654WA0130101443
B1302293652303N00253654WA0130201444
B1302303652300N00253653WA0130201445
B1302313652297N00253652WA0130101445
B1302323652293N00253652WA0130101444
B1302333652289N00253652WA0130001444
B1302343652285N00253653WA0130101444
B1302353652283N00253654WA0130301445
B1302363652281N00253654WA0130701448
B1302373652279N00253655WA0130901450
B1302383652277N00253655WA0131101452
B1302393652274N00253657WA0131301453
B1302403652271N00253660WA0131401454
B1302413652270N00253665WA0131701456
B1302423652270N00253671WA0132001459
B1302433652273N00253678WA0132101461
B1302443652277N00253684WA0132101463
B1302453652284N00253687WA0132101464
B1302463652292N00253688WA0132201465
B1302473652299N00253686WA0132301467
B1302483652303N00253684WA0132601469
B1302493652307N00253681WA0132701470
B1302503652310N00253679WA0132501470
B1302513652312N00253675WA0132201470
B1302523652314N00253669WA0132001470
B1302533652315N00253664WA0132301470
B1302543652314N00253660WA0132201471
B1302553652312N00253657WA0132401471
B1302563652310N00253656WA0132701472
B1302573652307N00253656WA0133001474
B1302583652305N00253655WA0133201475
B1302593652302N00253654WA0133301477
B1303003652300N00253654WA0133401477
B1303013652297N00253656WA0133301477
B1303023652296N00253660WA0133501478
B1303033652294N00253664WA0133601479
B1303043652291N00253667WA0133601480
B1303053652289N00253669WA0133701481
B1303063652287N00253671WA0133701481
B1303073652284N00253672WA0133701482
B1303083652281N00253675WA0133701481
B1303093652278N00253678WA0133701481
B1303103652274N00253681WA0133701481
B1303113652270N00253684WA0133701481
B1303123652266N00253686WA0133901482
B1303133652263N00253687WA0134101484
B1303143652260N00253689WA0134401486
B1303153652257N00253692WA0134501487
B1303163652255N00253695WA0134701488
B1303173652253N00253700WA0134801490
B1303183652252N00253705WA0135001492
B1303193652252N00253711WA0135201494
B1303203652253N00253718WA0135301495
B1303213652256N00253724WA0135301495
B1303223652260N00253730WA0135301496
B1303233652266N00253735WA0135301496
B1303243652272N00253738WA0135301496
B1303253652278N00253739WA0135401496
B1303263652283N00253738WA0135401497
B1303273652287N00253736WA0135501497
B1303283652290N00253733WA0135601498
B1303293652294N00253730WA0135601499
B1303303652297N00253726WA0135601499
B1303313652300N00253721WA0135501499
B1303323652303N00253716WA0135501499
B1303333652307N00253712WA0135501500
B1303343652310N00253708WA0135601501
B1303353652314N00253704WA0135601502
B1303363652317N00253699WA0135501503
B1303373652319N00253695WA0135301503
B1303383652320N00253690WA0135401503
B1303393652321N00253686WA0135401504
B1303403652320N00253682WA0135601504
B1303413652318N00253678WA0135701504
B1303423652316N00253674WA0135901505
B1303433652314N00253671WA0135801505
B1303443652313N00253667WA0136001505
B1303453652311N00253664WA0136001506
B1303463652308N00253662WA0136001506
B1303473652304N00253660WA0136001506
B1303483652300N00253658WA0136001506
B1303493652297N00253656WA0136101505
B1303503652293N00253654WA0136201505
B1303513652290N00253653WA0136201505
B1303523652286N00253652WA0136101505
B1303533652282N00253651WA0136101505
B1303543652277N00253650WA0136101504
B1303553652273N00253648WA0136401505
B1303563652269N00253647WA0136701506
B1303573652266N00253646WA0137101509
B1303583652263N00253645WA0137401511
B1303593652261N00253646WA0137601515
B1304003652259N00253649WA0137701517
B1304013652257N00253654WA0137701518
B1304023652256N00253661WA0137701519
B1304033652257N00253669WA0137801520
B1304043652258N00253676WA0138001521
B1304053652261N00253682WA0138301523
B1304063652264N00253687WA0138601525
B1304073652268N00253690WA0138801527
B1304083652274N00253691WA0138901529
B1304093652279N00253691WA0138901530
B1304103652284N00253689WA0138901530
B1304113652287N00253686WA0138801530
B1304123652290N00253682WA0138501530
B1304133652292N00253678WA0138301530
B1304143652294N00253673WA0138201529
B1304153652295N00253666WA0138301528
B1304163652295N00253659WA0138401528
B1304173652293N00253653WA0138501529
B1304183652292N00253647WA0138801530
B1304193652290N00253643WA0139101533
B1304203652288N00253640WA0139201535
B1304213652285N00253640WA0139301536
B1304223652281N00253641WA0139401537
B1304233652278N00253642WA0139501537
B1304243652274N00253645WA0139501538
B1304253652271N00253649WA0139501538
B1304263652269N00253654WA0139501539
B1304273652267N00253660WA0139501539
B1304283652265N00253667WA0139501539
B1304293652265N00253675WA0139501540
B1304303652265N00253682WA0139601540
B1304313652267N00253689WA0139801541
B1304323652269N00253695WA0140101543
B1304333652272N00253699WA0140201545
B1304343652276N00253703WA0140301546
B1304353652281N00253706WA0140301546
B1304363652287N00253707WA0140201546
B1304373652294N00253707WA0140301545
B1304383652301N00253706WA0140301545
B1304393652306N00253704WA0140401545
B1304403652310N00253701WA0140301546
B1304413652312N00253697WA0140201546
B1304423652313N00253693WA0139901545
B1304433652313N00253687WA0139701543
B1304443652312N00253681WA0139601542
B1304453652310N00253675WA0139701541
B1304463652308N00253670WA0139801542
B1304473652306N00253665WA0140001543
B1304483652304N00253661WA0140101544
B1304493652301N00253659WA0140201545
B1304503652297N00253656WA0140401546
B1304513652294N00253654WA0140601548
B1304523652291N00253651WA0140801550
B1304533652288N00253649WA0140901552
B1304543652285N00253647WA0141001553
B1304553652281N00253646WA0141101553
B1304563652276N00253646WA0141201554
B1304573652272N00253646WA0141401555
B1304583652268N00253646WA0141601557
B1304593652264N00253647WA0141601558
B1305003652260N00253649WA0141801560
B1305013652256N00253653WA0141901561
B1305023652253N00253659WA0142101563
B1305033652251N00253664WA0142401565
B1305043652250N00253670WA0142601567
B1305053652251N00253675WA0142801569
B1305063652252N00253681WA0142801570
B1305073652254N00253686WA0142501571
B1305083652256N00253692WA0142401572
B1305093652260N00253697WA0142301571
B1305103652265N00253701WA0142501571
B1305113652270N00253703WA0142501570
B1305123652276N00253704WA0142401569
B1305133652281N00253705WA0142401568
B1305143652286N00253706WA0142301567
B1305153652291N00253708WA0142401567
B1305163652297N00253710WA0142401567
B1305173652302N00253714WA0142501568
B1305183652307N00253718WA0142501569
B1305193652313N00253721WA0142701570
B1305203652318N00253723WA0142801572
B1305213652322N00253725WA0142901572
B1305223652327N00253726WA0142801573
B1305233652333N00253728WA0142501572
B1305243652339N00253730WA0142301571
B1305253652345N00253733WA0142101570
B1305263652349N00253738WA0141901568
B1305273652353N00253744WA0141701566
B1305283652356N00253750WA0141701564
B1305293652358N00253755WA0141601563
B1305303652360N00253761WA0141601562
B1305313652363N00253767WA0141401560
B1305323652365N00253774WA0141201558
B1305333652367N00253780WA0141201557
B1305343652369N00253785WA0141301556
B1305353652370N00253790WA0141301557
B1305363652370N00253794WA0141201556
B1305373652371N00253799WA0140901555
B1305383652372N00253805WA0140701552
B1305393652373N00253812WA0140501550
B1305403652373N00253819WA0140501548
B1305413652372N00253825WA0140501548
B1305423652370N00253830WA0140501548
B1305433652368N00253833WA0140401548
B1305443652365N00253835WA0140301548
B1305453652362N00253838WA0140001547
B1305463652358N00253841WA0139701545
B1305473652354N00253841WA0139601543
B1305483652350N00253840WA0139601542
B1305493652346N00253838WA0139601541
B1305503652342N00253836WA0139601540
B1305513652339N00253834WA0139701540
B1305523652336N00253834WA0139701539
B1305533652332N00253834WA0139701538
B1305543652328N00253833WA0139701539
B1305553652324N00253833WA0139801539
B1305563652321N00253832WA0139901540
B1305573652318N00253832WA0139901541
B1305583652314N00253832WA0139801541
B1305593652310N00253832WA0139601540
B1306003652305N00253832WA0139501539
B1306013652300N00253831WA0139601539
B1306023652295N00253831WA0139701539
B1306033652292N00253830WA0139701539
B1306043652288N00253831WA0139701539
B1306053652283N00253831WA0139501539
B1306063652278N00253832WA0139501538
B1306073652273N00253832WA0139501537
B1306083652268N00253832WA0139501537
B1306093652264N00253832WA0139501537
B1306103652260N00253832WA0139501537
B1306113652256N00253833WA0139401537
B1306123652251N00253833WA0139201535
B1306133652245N00253832WA0139001533
B1306143652240N00253830WA0138901532
B1306153652236N00253827WA0138901531
B1306163652233N00253824WA0138901531
B1306173652230N00253822WA0138701531
B1306183652226N00253820WA0138301529
B1306193652221N00253817WA0137901528
B1306203652217N00253813WA0137701525
B1306213652213N00253808WA0137701524
B1306223652211N00253802WA0137901523
B1306233652208N00253797WA0138001523
B1306243652206N00253793WA0138101524
B1306253652203N00253789WA0138001524
B1306263652201N00253786WA0137901523
B1306273652198N00253783WA0137601522
B1306283652194N00253779WA0137301519
B1306293652191N00253775WA0137001516
B1306303652187N00253770WA0136701513
B1306313652184N00253766WA0136501510
B1306323652181N00253763WA0136201507
B1306333652177N00253760WA0135801504
B1306343652173N00253758WA0135501501
B1306353652168N00253755WA0135101497
B1306363652164N00253753WA0134801493
B1306373652159N00253750WA0134601491
B1306383652156N00253747WA0134401488
B1306393652152N00253743WA0134101486
B1306403652149N00253738WA0133801483
B1306413652146N00253733WA0133601480
B1306423652142N00253728WA0133401477
B1306433652139N00253723WA0133201475
B1306443652135N00253718WA0133001473
B1306453652132N00253713WA0132901471
B1306463652128N00253708WA0132601469
B1306473652124N00253703WA0132501467
B1306483652121N00253697WA0132301465
B1306493652118N00253691WA0132001462
B1306503652116N00253685WA0132001461
B1306513652114N00253680WA0131901460
B1306523652112N00253675WA0131801459
B1306533652109N00253670WA0131501457
B1306543652107N00253665WA0131401456
B1306553652104N00253660WA0131401455
B1306563652101N00253655WA0131501454
B1306573652099N00253651WA0131401454
B1306583652096N00253647WA0131201453
B1306593652093N00253643WA0130901451
B1307003652090N00253638WA0130501449
B1307013652087N00253632WA0130201447
B1307023652084N00253626WA0130201445
B1307033652082N00253621WA0130201444
B1307043652080N00253616WA0130201443
B1307053652078N00253611WA0130201443
B1307063652076N00253605WA0130101442
B1307073652074N00253599WA0129901440
B1307083652072N00253593WA0129901439
B1307093652071N00253587WA0129901439
B1307103652070N00253582WA0129901439
B1307113652069N00253577WA0129801439
B1307123652068N00253571WA0129701438
B1307133652066N00253565WA0129601438
B1307143652065N00253559WA0129501437
B1307153652063N00253552WA0129401436
B1307163652061N00253545WA0129301435
B1307173652059N00253539WA0129301434
B1307183652058N00253534WA0129301434
B1307193652057N00253529WA0129201434
B1307203652055N00253523WA0129201434
B1307213652053N00253518WA0129301434
B1307223652050N00253514WA0129201435
B1307233652048N00253510WA0129101435
B1307243652046N00253506WA0128901433
B1307253652043N00253503WA0128601432
B1307263652039N00253498WA0128301429
B1307273652034N00253493WA0128001427
B1307283652031N00253488WA0127901425
B1307293652028N00253483WA0128001424
B1307303652026N00253480WA0127901423
B1307313652025N00253476WA0127701421
B1307323652023N00253472WA0127101418
B1307333652020N00253467WA0126701415
B1307343652018N00253461WA0126401412
B1307353652016N00253454WA0126601410
B1307363652015N00253449WA0126701409
B1307373652015N00253445WA0126701408
B1307383652015N00253439WA0126401407
B1307393652015N00253433WA0126201405
B1307403652015N00253426WA0126101403
B1307413652015N00253418WA0126101401
B1307423652016N00253412WA0126201400
B1307433652016N00253406WA0126201400
B1307443652015N00253400WA0126101400
B1307453652013N00253393WA0125801399
B1307463652011N00253387WA0125701397
B1307473652008N00253381WA0125801397
B1307483652006N00253376WA0125701397
B1307493652002N00253371WA0125601397
B1307503651998N00253366WA0125601396
B1307513651995N00253360WA0125501396
B1307523651992N00253355WA0125801397
B1307533651990N00253350WA0126101400
B1307543651988N00253347WA0126201403
B1307553651986N00253344WA0125901403
B1307563651982N00253341WA0125601402
B1307573651977N00253338WA0125301400
B1307583651973N00253333WA0125001395
B1307593651969N00253328WA0124901394
B1308003651967N00253323WA0125001392
B1308013651966N00253319WA0125101392
B1308023651965N00253315WA0125101392
B1308033651963N00253312WA0124801391
B1308043651960N00253308WA0124401389
B1308053651957N00253303WA0124001386
B1308063651955N00253297WA0123801384
B1308073651954N00253291WA0123801382
B1308083651954N00253286WA0123901382
B1308093651953N00253282WA0123801381
B1308103651952N00253278WA0123401379
B1308113651951N00253273WA0123001377
B1308123651950N00253267WA0122801375
B1308133651950N00253261WA0122801373
B1308143651952N00253256WA0122601371
B1308153651955N00253249WA0122501370
B1308163651957N00253243WA0122501369
B1308173651958N00253236WA0122501368
B1308183651958N00253231WA0122601368
B1308193651957N00253226WA0122701368
B1308203651957N00253221WA0122801369
B1308213651957N00253216WA0122801369
B1308223651958N00253211WA0122801369
B1308233651958N00253207WA0122801369
B1308243651957N00253202WA0122601368
B1308253651955N00253198WA0122401366
B1308263651953N00253193WA0122301365
B1308273651951N00253189WA0122401365
B1308283651948N00253185WA0122701368
B1308293651946N00253183WA0123001370
B1308303651943N00253182WA0123201372
B1308313651941N00253182WA0123301374
B1308323651938N00253182WA0123301375
B1308333651935N00253182WA0123301375
B1308343651932N00253182WA0123501375
B1308353651930N00253182WA0123601377
B1308363651927N00253183WA0123801379
B1308373651926N00253184WA0123901380
B1308383651924N00253186WA0124001381
B1308393651923N00253187WA0124201382
B1308403651921N00253189WA0124201383
B1308413651918N00253190WA0124201383
B1308423651915N00253190WA0124401383
B1308433651913N00253191WA0124601385
B1308443651911N00253191WA0124801387
B1308453651909N00253192WA0125001389
B1308463651906N00253193WA0125001390
B1308473651902N00253194WA0125001391
B1308483651899N00253194WA0125001390
B1308493651895N00253194WA0125001391
B1308503651892N00253194WA0124801390
B1308513651888N00253194WA0124601389
B1308523651884N00253193WA0124401387
B1308533651880N00253191WA0124401386
B1308543651876N00253188WA0124301385
B1308553651873N00253185WA0124201384
B1308563651869N00253183WA0124101383
B1308573651866N00253180WA0123801382
B1308583651864N00253176WA0123701381
B1308593651862N00253171WA0123501380
B1309003651861N00253166WA0123301378
B1309013651860N00253160WA0123201377
B1309023651861N00253154WA0123001375
B1309033651861N00253148WA0122901373
B1309043651861N00253142WA0122801372
B1309053651863N00253136WA0122501370
B1309063651864N00253130WA0122301368
B1309073651867N00253123WA0122201366
B1309083651869N00253117WA0122201365
B1309093651871N00253111WA0122301365
B1309103651871N00253107WA0122401365
B1309113651871N00253103WA0122301364
B1309123651870N00253099WA0122101363
B1309133651870N00253094WA0121901361
B1309143651869N00253088WA0121601360
B1309153651869N00253082WA0121501358
B1309163651869N00253076WA0121501357
B1309173651869N00253070WA0121501356
B1309183651870N00253063WA0121501355
B1309193651871N00253055WA0121601356
B1309203651871N00253048WA0121801357
B1309213651871N00253042WA0122101359
B1309223651870N00253038WA0122301361
B1309233651868N00253034WA0122501363
B1309243651866N00253031WA0122501364
B1309253651862N00253031WA0122601365
B1309263651859N00253032WA0122601365
B1309273651857N00253036WA0122601366
B1309283651856N00253040WA0122801367
B1309293651857N00253045WA0122901367
B1309303651858N00253050WA0123001368
B1309313651860N00253056WA0123001369
B1309323651864N00253060WA0123101370
B1309333651869N00253063WA0123201370
B1309343651876N00253064WA0123201371
B1309353651883N00253062WA0123401372
B1309363651889N00253059WA0123501374
B1309373651894N00253054WA0123701375
B1309383651899N00253048WA0123801376
B1309393651902N00253043WA0123901378
B1309403651904N00253037WA0124101379
B1309413651905N00253032WA0124201380
B1309423651905N00253027WA0124201381
B1309433651904N00253022WA0124101381
B1309443651903N00253017WA0124001380
B1309453651903N00253011WA0123801380
B1309463651903N00253005WA0123701379
B1309473651903N00252998WA0123601379
B1309483651904N00252992WA0123601379
B1309493651904N00252987WA0123501378
B1309503651905N00252981WA0123301377
B1309513651906N00252975WA0123101375
B1309523651907N00252968WA0123101373
B1309533651907N00252960WA0123001372
B1309543651905N00252954WA0123201373
B1309553651903N00252949WA0123501373
B1309563651901N00252947WA0123701375
B1309573651899N00252945WA0123801377
B1309583651897N00252944WA0124001380
B1309593651895N00252942WA0124201382
B1310003651893N00252941WA0124301383
B1310013651890N00252940WA0124401384
B1310023651888N00252940WA0124501385
B1310033651885N00252941WA0124401385
B1310043651883N00252944WA0124301384
B1310053651880N00252946WA0124301384
B1310063651877N00252948WA0124301384
B1310073651874N00252951WA0124301384
B1310083651871N00252953WA0124301384
B1310093651868N00252954WA0124301384
B1310103651864N00252953WA0124201384
B1310113651860N00252951WA0124001384
B1310123651856N00252947WA0124101383
B1310133651853N00252945WA0124201383
B1310143651849N00252943WA0124301384
B1310153651846N00252942WA0124201383
B1310163651843N00252942WA0124101382
B1310173651839N00252940WA0123901381
B1310183651835N00252937WA0123701380
B1310193651831N00252933WA0123501378
B1310203651828N00252928WA0123701378
B1310213651826N00252924WA0123901379
B1310223651824N00252921WA0124001381
B1310233651823N00252918WA0124001381
B1310243651820N00252915WA0123801381
B1310253651818N00252911WA0123601379
B1310263651814N00252907WA0123201377
B1310273651811N00252902WA0123101374
B1310283651809N00252897WA0123201374
B1310293651808N00252892WA0123101373
B1310303651807N00252889WA0122801372
B1310313651805N00252885WA0122601371
B1310323651803N00252881WA0122201369
B1310333651801N00252875WA0121801367
B1310343651800N00252869WA0121701365
B1310353651801N00252862WA0121801363
B1310363651802N00252855WA0121701362
B1310373651803N00252849WA0121701361
B1310383651802N00252842WA0121501360
B1310393651800N00252838WA0121501359
B1310403651798N00252835WA0121401358
B1310413651795N00252834WA0121301357
B1310423651793N00252833WA0121201356
B1310433651790N00252832WA0121101355
B1310443651787N00252831WA0121001354
B1310453651784N00252829WA0121001353
B1310463651780N00252827WA0121201352
B1310473651777N00252826WA0121501353
B1310483651776N00252826WA0121801358
B1310493651774N00252826WA0122001361
B1310503651773N00252827WA0122101362
B1310513651771N00252828WA0122201363
B1310523651768N00252828WA0122201363
B1310533651766N00252828WA0122201363
B1310543651763N00252827WA0122301364
B1310553651760N00252827WA0122401365
B1310563651758N00252827WA0122701366
B1310573651756N00252827WA0123001369
B1310583651755N00252827WA0123201371
B1310593651754N00252827WA0123401373
B1311003651752N00252826WA0123501375
B1311013651751N00252826WA0123401375
B1311023651748N00252826WA0123201374
B1311033651744N00252825WA0123101373
B1311043651741N00252824WA0123101373
B1311053651738N00252822WA0123301374
B1311063651735N00252821WA0123401375
B1311073651734N00252820WA0123501376
B1311083651732N00252818WA0123501376
B1311093651730N00252817WA0123401376
B1311103651728N00252815WA0123301376
B1311113651726N00252813WA0123101375
B1311123651723N00252810WA0123101374
B1311133651721N00252807WA0123201374
B1311143651721N00252803WA0123301375
B1311153651721N00252800WA0123301375
B1311163651721N00252797WA0123301375
B1311173651720N00252794WA0123001374
B1311183651718N00252792WA0122501373
B1311193651716N00252791WA0122401371
B1311203651714N00252790WA0122301370
B1311213651712N00252789WA0122201368
B1311223651710N00252787WA0122201367
B1311233651710N00252784WA0122101366
B1311243651710N00252780WA0122101364
B1311253651709N00252776WA0121801363
B1311263651708N00252772WA0121601361
B1311273651706N00252768WA0121801360
B1311283651705N00252765WA0121601359
B1311293651704N00252761WA0121401358
B1311303651703N00252757WA0121301357
B1311313651701N00252752WA0121101356
B1311323651700N00252748WA0121101354
B1311333651698N00252745WA0121001354
B1311343651697N00252741WA0120901353
B1311353651696N00252738WA0120801352
B1311363651695N00252734WA0120701351
B1311373651694N00252730WA0120401350
B1311383651694N00252726WA0120001347
B1311393651693N00252721WA0119801346
B1311403651693N00252717WA0119601344
B1311413651693N00252712WA0119601342
B1311423651693N00252708WA0119401340
B1311433651692N00252705WA0119101339
B1311443651690N00252701WA0118601336
B1311453651687N00252698WA0118201332
B1311463651684N00252696WA0118201330
B1311473651681N00252694WA0118201329
B1311483651678N00252692WA0118301329
B1311493651676N00252689WA0118201329
B1311503651673N00252687WA0118101328
B1311513651670N00252684WA0117901327
B1311523651667N00252682WA0117801325
B1311533651663N00252679WA0117801324
B1311543651660N00252675WA0117901324
B1311553651659N00252671WA0117901324
B1311563651657N00252667WA0118101324
B1311573651655N00252665WA0118201325
B1311583651653N00252663WA0118301326
B1311593651651N00252661WA0118401327
B1312003651650N00252659WA0118301327
B1312013651648N00252656WA0118201327
B1312023651647N00252651WA0118101326
B1312033651644N00252646WA0118001325
B1312043651642N00252643WA0118301326
B1312053651639N00252640WA0118701328
B1312063651637N00252638WA0119001331
B1312073651636N00252635WA0119101333
B1312083651635N00252634WA0119301335
B1312093651633N00252633WA0119201336
B1312103651630N00252632WA0118901335
B1312113651625N00252632WA0118301332
B1312123651621N00252632WA0118101330
B1312133651617N00252631WA0118601330
B1312143651616N00252631WA0119201333
B1312153651615N00252631WA0119301335
B1312163651615N00252631WA0119401337
B1312173651613N00252632WA0119201337
B1312183651610N00252632WA0118901335
B1312193651607N00252632WA0118701334
B1312203651603N00252631WA0118901334
B1312213651601N00252630WA0119101335
B1312223651600N00252628WA0119201336
B1312233651598N00252627WA0119001335
B1312243651595N00252626WA0118701334
B1312253651592N00252624WA0118401333
B1312263651588N00252623WA0118201331
B1312273651585N00252622WA0118301330
B1312283651584N00252619WA0118501330
B1312293651583N00252615WA0118401331
B1312303651583N00252611WA0118201330
B1312313651582N00252607WA0118101329
B1312323651581N00252603WA0118101329
B1312333651581N00252599WA0118101328
B1312343651581N00252596WA0118201328
B1312353651582N00252591WA0118001326
B1312363651582N00252586WA0117901324
B1312373651580N00252580WA0117601323
B1312383651577N00252576WA0117901323
B1312393651574N00252574WA0118401326
B1312403651571N00252574WA0118801328
B1312413651570N00252575WA0119101331
B1312423651569N00252578WA0119101332
B1312433651567N00252580WA0118801330
B1312443651564N00252582WA0118301327
B1312453651560N00252582WA0117701324
B1312463651555N00252582WA0117501322
B1312473651550N00252582WA0117801321
B1312483651546N00252582WA0118101322
B1312493651544N00252582WA0118501325
B1312503651543N00252584WA0118501326
B1312513651541N00252586WA0118201325
B1312523651538N00252588WA0117901324
B1312533651534N00252590WA0117701320
B1312543651530N00252590WA0117501318
B1312553651527N00252588WA0117701318
B1312563651525N00252585WA0117901318
B1312573651524N00252584WA0117901318
B1312583651522N00252583WA0117901318
B1312593651519N00252582WA0117601317
B1313003651514N00252582WA0117401316
B1313013651510N00252581WA0117401315
B1313023651507N00252580WA0117601316
B1313033651504N00252579WA0117701317
B1313043651501N00252577WA0117701318
B1313053651498N00252575WA0117501317
B1313063651494N00252573WA0117301316
B1313073651489N00252572WA0117101314
B1313083651486N00252570WA0117201313
B1313093651483N00252569WA0117301314
B1313103651481N00252568WA0117301314
B1313113651479N00252567WA0117201314
B1313123651476N00252566WA0117101313
B1313133651473N00252566WA0116701311
B1313143651471N00252564WA0116401310
B1313153651469N00252561WA0116101307
B1313163651468N00252557WA0115801305
B1313173651468N00252553WA0115601303
B1313183651467N00252550WA0115501300
B1313193651467N00252546WA0115401299
B1313203651466N00252543WA0115301298
B1313213651464N00252540WA0115201297
B1313223651461N00252538WA0115001295
B1313233651458N00252536WA0115001293
B1313243651456N00252534WA0115101293
B1313253651454N00252532WA0115101293
B1313263651452N00252530WA0115101293
B1313273651450N00252528WA0115001293
B1313283651447N00252526WA0114901292
B1313293651443N00252524WA0114801292
B1313303651440N00252522WA0114901292
B1313313651437N00252521WA0115101293
B1313323651434N00252521WA0115201294
B1313333651432N00252520WA0115201294
B1313343651430N00252520WA0115201294
B1313353651427N00252519WA0115201294
B1313363651425N00252518WA0115201294
B1313373651422N00252518WA0115101293
B1313383651419N00252518WA0114901291
B1313393651416N00252519WA0114801290
B1313403651413N00252522WA0114601288
B1313413651409N00252524WA0114401286
B1313423651406N00252527WA0114201285
B1313433651402N00252528WA0114001284
B1313453651394N00252528WA0113701281
B1313463651390N00252527WA0113801281
B1313473651386N00252526WA0113801281
B1313483651384N00252523WA0113801280
B1313503651382N00252526WA0113401280
B1313513651381N00252526WA0112901281
B1313523651380N00252526WA0112701280
B1313533651377N00252524WA0112701279
B1313543651375N00252522WA0112801282
B1313553651370N00252520WA0113101288
B1313563651366N00252518WA0113301290
B1313573651361N00252516WA0113501292
B1313583651357N00252515WA0113501292
B1313593651354N00252513WA0113401290
B1314003651350N00252512WA0113301289
B1314013651346N00252510WA0113001287
B1314023651342N00252508WA0112901284
B1314033651337N00252506WA0113001282
B1314043651333N00252504WA0113101282
B1314053651329N00252501WA0113201283
B1314063651326N00252498WA0113201282
B1314073651322N00252495WA0113101282
B1314083651317N00252492WA0112901280
B1314093651312N00252490WA0112801279
B1314103651308N00252487WA0112701277
B1314113651303N00252483WA0112701277
B1314123651300N00252480WA0113001277
B1314133651297N00252476WA0113201278
B1314143651294N00252474WA0113401279
B1314153651292N00252473WA0113401280
B1314163651289N00252473WA0113201279
B1314173651286N00252473WA0112901278
B1314183651282N00252472WA0112601276
B1314193651277N00252471WA0112401273
B1314203651273N00252468WA0112501272
B1314213651270N00252465WA0112701273
B1314223651268N00252463WA0112901274
B1314233651267N00252460WA0113101275
B1314243651266N00252458WA0113201277
B1314253651264N00252456WA0113301277
B1314263651262N00252454WA0113301277
B1314273651259N00252452WA0113201277
B1314283651256N00252449WA0113201276
B1314293651253N00252444WA0113401277
B1314303651252N00252440WA0113501278
B1314313651252N00252435WA0113701279
B1314323651253N00252430WA0113901281
B1314333651253N00252427WA0114101282
B1314343651253N00252425WA0114101284
B1314353651252N00252423WA0113901284
B1314363651250N00252420WA0113901283
B1314373651248N00252417WA0113801282
B1314383651246N00252413WA0113801282
B1314393651244N00252410WA0114001283
B1314403651243N00252406WA0114201284
B1314413651243N00252403WA0114201285
B1314423651242N00252400WA0114201286
B1314433651242N00252396WA0114301287
B1314443651242N00252392WA0114301288
B1314453651242N00252387WA0114301289
B1314463651243N00252382WA0114401289
B1314473651245N00252377WA0114601291
B1314483651247N00252372WA0114701291
B1314493651248N00252366WA0114701292
B1314503651249N00252359WA0114801292
B1314513651250N00252352WA0115101293
B1314523651250N00252346WA0115501296
B1314533651250N00252342WA0116001299
B1314543651249N00252339WA0116401303
B1314553651248N00252338WA0116501306
B1314563651246N00252337WA0116501307
B1314573651243N00252336WA0116401308
B1314583651240N00252334WA0116301307
B1314593651238N00252331WA0116301306
B1315003651235N00252329WA0116301306
B1315013651233N00252326WA0116501306
B1315023651231N00252325WA0116401306
B1315033651228N00252323WA0116301305
B1315043651226N00252321WA0116301304
B1315053651223N00252317WA0116201304
B1315063651222N00252313WA0116201304
B1315073651222N00252308WA0116201304
B1315083651223N00252304WA0116101303
B1315093651222N00252299WA0115901302
B1315103651222N00252294WA0115601301
B1315113651221N00252288WA0115501299
B1315123651221N00252283WA0115501298
B1315133651223N00252278WA0115301298
B1315143651225N00252272WA0115201297
B1315153651227N00252266WA0115201296
B1315163651229N00252260WA0115101295
B1315173651231N00252254WA0115101294
B1315183651233N00252248WA0115001293
B1315193651235N00252242WA0115001293
B1315203651238N00252236WA0115001292
B1315213651241N00252231WA0114901291
B1315223651243N00252225WA0114801290
B1315233651245N00252218WA0114701289
B1315243651247N00252212WA0114701288
B1315253651247N00252206WA0114701288
B1315263651247N00252201WA0114701288
B1315273651247N00252196WA0114601288
B1315283651245N00252192WA0114601287
B1315293651243N00252189WA0114501287
B1315303651241N00252186WA0114301285
B1315313651238N00252182WA0114001284
B1315323651234N00252178WA0113801281
B1315333651231N00252173WA0113801280
B1315343651228N00252170WA0113701278
B1315353651226N00252167WA0113801278
B1315363651223N00252165WA0113601277
B1315373651219N00252164WA0113201276
B1315383651215N00252163WA0113001274
B1315393651212N00252160WA0112901272
B1315403651209N00252156WA0112801272
B1315413651207N00252150WA0112801271
B1315423651205N00252145WA0113101271
B1315433651204N00252142WA0113401273
B1315443651203N00252139WA0113501274
B1315453651201N00252137WA0113401274
B1315463651199N00252136WA0113101273
B1315473651197N00252134WA0112801270
B1315483651193N00252131WA0112501267
B1315493651190N00252128WA0112401265
B1315503651188N00252124WA0112401264
B1315513651186N00252121WA0112401264
B1315523651184N00252118WA0112401264
B1315533651182N00252116WA0112401263
B1315543651180N00252114WA0112201263
B1315553651178N00252111WA0112101262
B1315563651177N00252107WA0112001261
B1315573651176N00252102WA0112001260
B1315583651174N00252097WA0112001260
B1315593651172N00252093WA0111901260
B1316003651170N00252090WA0111901260
B1316013651168N00252088WA0111801259
B1316023651166N00252085WA0111501258
B1316033651164N00252083WA0111301257
B1316043651161N00252083WA0111201255
B1316053651158N00252083WA0110901253
B1316063651153N00252085WA0110701251
B1316073651149N00252086WA0110601250
B1316083651146N00252086WA0110801252
B1316093651144N00252085WA0111201255
B1316103651143N00252084WA0111201256
B1316113651141N00252084WA0111101256
B1316123651139N00252085WA0110701254
B1316133651135N00252086WA0110501252
B1316143651131N00252086WA0110501251
B1316153651129N00252087WA0110701251
B1316163651127N00252086WA0110701251
B1316173651125N00252086WA0110701250
B1316183651123N00252087WA0110401249
B1316193651120N00252087WA0110001247
B1316203651116N00252088WA0110001246
B1316213651112N00252088WA0110101245
B1316223651109N00252088WA0110401246
B1316233651107N00252087WA0110601248
B1316243651105N00252085WA0110801250
B1316253651103N00252083WA0110901251
B1316263651100N00252082WA0110901251
B1316273651098N00252082WA0110901251
B1316283651095N00252084WA0111101252
B1316293651092N00252086WA0111201253
B1316303651090N00252090WA0111401254
B1316313651089N00252093WA0111701256
B1316323651090N00252097WA0111901258
B1316333651092N00252102WA0112001259
B1316343651095N00252107WA0112001259
B1316353651100N00252112WA0112101259
B1316363651105N00252116WA0112401260
B1316373651110N00252118WA0112501262
B1316383651116N00252118WA0112501263
B1316393651122N00252116WA0112501264
B1316403651128N00252112WA0112501263
B1316413651133N00252106WA0112201263
B1316423651137N00252100WA0112201264
B1316433651139N00252093WA0112401264
B1316443651139N00252087WA0112501264
B1316453651137N00252081WA0112501263
B1316463651135N00252076WA0112501263
B1316473651132N00252071WA0112501263
B1316483651129N00252067WA0112701265
B1316493651126N00252064WA0113001266
B1316503651123N00252061WA0113201269
B1316513651121N00252059WA0113401271
B1316523651119N00252058WA0113501273
B1316533651117N00252058WA0113401274
B1316543651114N00252058WA0113301274
B1316553651111N00252059WA0113301273
B1316563651108N00252061WA0113301273
B1316573651105N00252063WA0113501274
B1316583651103N00252065WA0113701275
B1316593651102N00252067WA0113701276
B1317003651101N00252070WA0113701277
B1317013651100N00252074WA0113601277
B1317023651100N00252080WA0113401276
B1317033651101N00252086WA0113501276
B1317043651102N00252092WA0113601276
B1317053651104N00252098WA0113701276
B1317063651106N00252103WA0113601276
B1317073651109N00252108WA0113401276
B1317083651112N00252113WA0113001276
B1317093651117N00252118WA0113201276
B1317103651123N00252121WA0113201275
B1317113651129N00252123WA0113201274
B1317123651136N00252124WA0113001273
B1317133651142N00252123WA0113101274
B1317143651147N00252121WA0113301274
B1317153651153N00252118WA0113201273
B1317163651158N00252113WA0113101273
B1317173651163N00252106WA0113101273
B1317183651166N00252099WA0113301273
B1317193651169N00252092WA0113601275
B1317203651170N00252086WA0113801277
B1317213651170N00252080WA0113801278
B1317223651170N00252075WA0113701278
B1317233651168N00252070WA0113601277
B1317243651164N00252066WA0113301275
B1317253651161N00252064WA0113401274
B1317263651158N00252062WA0113501274
B1317273651156N00252061WA0113501274
B1317283651153N00252060WA0113401274
B1317293651150N00252059WA0113401273
B1317303651146N00252058WA0113401273
B1317313651143N00252058WA0113501274
B1317323651141N00252057WA0113601275
B1317333651139N00252056WA0113601275
B1317343651137N00252056WA0113501275
B1317353651134N00252055WA0113201274
B1317363651132N00252054WA0113201274
B1317373651129N00252053WA0113301274
B1317383651128N00252051WA0113401274
B1317393651126N00252048WA0113501274
B1317403651125N00252044WA0113501274
B1317413651124N00252041WA0113501275
B1317423651122N00252039WA0113401275
B1317433651120N00252038WA0113301274
B1317443651117N00252037WA0113301273
B1317453651115N00252035WA0113201272
B1317463651113N00252031WA0113101272
B1317473651110N00252026WA0113001271
B1317483651107N00252021WA0113001271
B1317493651105N00252016WA0113101271
B1317503651102N00252013WA0113201271
B1317513651100N00252009WA0113301272
B1317523651098N00252005WA0113401272
B1317533651096N00252001WA0113401272
B1317543651095N00251997WA0113201272
B1317553651093N00251993WA0112901271
B1317563651089N00251988WA0112501270
B1317573651085N00251983WA0112501268
B1317583651082N00251978WA0112601268
B1317593651079N00251974WA0112901268
B1318003651077N00251970WA0113201270
B1318013651075N00251967WA0113301271
B1318023651074N00251964WA0113401272
B1318033651072N00251961WA0113401272
B1318043651070N00251959WA0113501272
B1318053651068N00251957WA0113301272
B1318063651067N00251953WA0113201271
B1318073651066N00251947WA0112701269
B1318083651065N00251940WA0112701267
B1318093651065N00251933WA0112901267
B1318103651065N00251927WA0113201268
B1318113651065N00251921WA0113501270
B1318123651064N00251916WA0113801272
B1318133651062N00251912WA0113901274
B1318143651059N00251910WA0114201277
B1318153651056N00251911WA0114401279
B1318163651053N00251914WA0114601281
B1318173651052N00251918WA0114801283
B1318183651051N00251922WA0115101285
B1318193651052N00251926WA0115201287
B1318203651053N00251929WA0115401290
B1318213651055N00251932WA0115601291
B1318223651059N00251935WA0115601293
B1318233651063N00251938WA0115501293
B1318243651070N00251938WA0115401292
B1318253651077N00251937WA0115301292
B1318263651084N00251934WA0115301290
B1318273651091N00251929WA0115601292
B1318283651096N00251924WA0115701293
B1318293651100N00251919WA0115701295
B1318303651103N00251913WA0115701295
B1318313651106N00251906WA0115501294
B1318323651109N00251898WA0115601293
B1318333651111N00251889WA0115701293
B1318343651112N00251882WA0116001294
B1318353651113N00251876WA0116401297
B1318363651114N00251870WA0116601301
B1318373651114N00251865WA0116801304
B1318383651113N00251860WA0117001306
B1318393651112N00251856WA0117301307
B1318403651108N00251853WA0117401309
B1318413651104N00251851WA0117601311
B1318423651100N00251852WA0117901313
B1318433651097N00251854WA0118001316
B1318443651094N00251857WA0118201318
B1318453651093N00251861WA0118401320
B1318463651092N00251866WA0118601322
B1318473651093N00251871WA0118701323
B1318483651095N00251877WA0118801324
B1318493651099N00251882WA0119001326
B1318503651104N00251886WA0119301329
B1318513651109N00251888WA0119701333
B1318523651114N00251889WA0119901337
B1318533651120N00251890WA0120101339
B1318543651126N00251890WA0120201340
B1318553651134N00251887WA0120301340
B1318563651140N00251882WA0120301341
B1318573651146N00251875WA0120401342
B1318583651150N00251867WA0120601343
B1318593651152N00251859WA0120701344
B1319003651153N00251852WA0120801346
B1319013651152N00251845WA0121001348
B1319023651151N00251839WA0121101349
B1319033651148N00251834WA0121201349
B1319043651144N00251829WA0121501351
B1319053651141N00251826WA0121801353
B1319063651136N00251824WA0122101356
B1319073651132N00251823WA0122301359
B1319083651128N00251824WA0122501361
B1319093651124N00251827WA0122701363
B1319103651121N00251830WA0122801365
B1319113651119N00251834WA0122901366
B1319123651119N00251840WA0122901366
B1319133651120N00251847WA0123101367
B1319143651123N00251851WA0123401370
B1319153651128N00251854WA0123801374
B1319163651133N00251855WA0123901377
B1319173651138N00251855WA0123901378
B1319183651144N00251855WA0123801379
B1319193651151N00251855WA0124101379
B1319203651158N00251854WA0124301379
B1319213651164N00251852WA0124401381
B1319223651170N00251847WA0124401382
B1319233651174N00251841WA0124301382
B1319243651177N00251834WA0124701383
B1319253651179N00251827WA0125001384
B1319263651179N00251820WA0125201386
B1319273651178N00251813WA0125301388
B1319283651176N00251808WA0125501390
B1319293651173N00251803WA0125701392
B1319303651170N00251799WA0125801393
B1319313651166N00251797WA0126001395
B1319323651162N00251798WA0126101397
B1319333651158N00251799WA0126401399
B1319343651155N00251801WA0126501401
B1319353651151N00251801WA0126401401
B1319363651147N00251800WA0126401401
B1319373651143N00251798WA0126301401
B1319383651138N00251796WA0126301401
B1319393651134N00251794WA0126501401
B1319403651130N00251792WA0126601402
B1319413651126N00251791WA0126601403
B1319423651122N00251790WA0126701404
B1319433651118N00251790WA0126401404
B1319443651113N00251791WA0126201403
B1319453651109N00251794WA0126401404
B1319463651106N00251797WA0126701404
B1319473651104N00251801WA0126801405
B1319483651102N00251805WA0126901405
B1319493651101N00251809WA0126801406
B1319503651101N00251815WA0126601406
B1319513651102N00251821WA0126501405
B1319523651104N00251826WA0126801406
B1319533651107N00251831WA0126701406
B1319543651110N00251836WA0126601405
B1319553651113N00251843WA0126401403
B1319563651115N00251850WA0126401402
B1319573651117N00251858WA0126501402
B1319583651120N00251865WA0126801403
B1319593651124N00251870WA0126901405
B1320003651128N00251876WA0127001407
B1320013651132N00251881WA0126901407
B1320023651138N00251884WA0126901407
B1320033651145N00251886WA0126901407
B1320043651153N00251887WA0127001407
B1320053651159N00251885WA0127301409
B1320063651163N00251881WA0127701412
B1320073651165N00251877WA0127801415
B1320083651166N00251873WA0127801416
B1320093651165N00251868WA0127701416
B1320103651162N00251863WA0127701415
B1320113651159N00251858WA0127701415
B1320123651155N00251855WA0128001417
B1320133651151N00251855WA0128301419
B1320143651148N00251855WA0128501422
B1320153651146N00251857WA0128701424
B1320163651145N00251859WA0128801426
B1320173651143N00251864WA0128901426
B1320183651142N00251869WA0128901427
B1320193651141N00251876WA0129001428
B1320203651141N00251883WA0129201429
B1320213651143N00251888WA0129401431
B1320223651146N00251893WA0129501433
B1320233651149N00251897WA0129601433
B1320243651153N00251902WA0129601433
B1320253651158N00251906WA0129801434
B1320263651164N00251909WA0130001435
B1320273651170N00251909WA0130201438
B1320283651176N00251907WA0130201439
B1320293651183N00251904WA0130201440
B1320303651189N00251900WA0130201440
B1320313651194N00251896WA0130501442
B1320323651198N00251892WA0130701443
B1320333651200N00251887WA0130601444
B1320343651202N00251882WA0130201444
B1320353651203N00251876WA0130501444
B1320363651203N00251871WA0130701444
B1320373651202N00251867WA0130801445
B1320383651200N00251862WA0130901445
B1320393651199N00251859WA0131001447
B1320403651197N00251856WA0131201449
B1320413651196N00251854WA0131401450
B1320423651194N00251853WA0131501451
B1320433651193N00251851WA0131501452
B1320443651191N00251850WA0131601453
B1320453651189N00251848WA0131601454
B1320463651186N00251848WA0131701454
B1320473651184N00251848WA0131801455
B1320483651181N00251849WA0131801456
B1320493651179N00251851WA0131801456
B1320503651177N00251855WA0131801457
B1320513651177N00251859WA0131701456
B1320523651176N00251863WA0131601456
B1320533651176N00251868WA0131401455
B1320543651176N00251875WA0131201453
B1320553651177N00251882WA0131301452
B1320563651179N00251889WA0131601453
B1320573651181N00251895WA0131901455
B1320583651184N00251899WA0132301460
B1320593651187N00251903WA0132501463
B1321003651192N00251905WA0132701465
B1321013651199N00251905WA0132801466
B1321023651205N00251903WA0132801466
B1321033651211N00251899WA0133101467
B1321043651216N00251892WA0133301469
B1321053651218N00251886WA0133501470
B1321063651218N00251880WA0133701473
B1321073651217N00251875WA0133901475
B1321083651215N00251870WA0134301478
B1321093651213N00251866WA0134601481
B1321103651211N00251865WA0134801484
B1321113651209N00251865WA0134901486
B1321123651207N00251867WA0135001487
B1321133651205N00251871WA0134901487
B1321143651203N00251876WA0134901488
B1321153651203N00251882WA0134901488
B1321163651203N00251889WA0135201489
B1321173651204N00251895WA0135601492
B1321183651205N00251900WA0136001496
B1321193651208N00251904WA0136301501
B1321203651213N00251907WA0136401503
B1321213651221N00251909WA0136501504
B1321223651229N00251910WA0136701505
B1321233651236N00251908WA0137201508
B1321243651241N00251904WA0137501513
B1321253651245N00251898WA0137801516
B1321263651248N00251892WA0138001519
B1321273651249N00251885WA0138301522
B1321283651248N00251878WA0138601524
B1321293651247N00251872WA0138901528
B1321303651245N00251868WA0139301531
B1321313651242N00251864WA0139501534
B1321323651239N00251863WA0139701537
B1321333651236N00251863WA0140001540
B1321343651233N00251864WA0140101542
B1321353651231N00251867WA0140201543
B1321363651229N00251870WA0140201544
B1321373651228N00251876WA0140301545
B1321383651228N00251882WA0140301545
B1321393651229N00251889WA0140501546
B1321403651230N00251894WA0140701548
B1321413651232N00251900WA0141001550
B1321423651234N00251905WA0141201552
B1321433651237N00251910WA0141501554
B1321443651242N00251914WA0141601556
B1321453651247N00251917WA0141801558
B1321463651254N00251917WA0142001559
B1321473651262N00251916WA0142101560
B1321483651268N00251912WA0142501562
B1321493651274N00251906WA0142701565
B1321503651278N00251900WA0143001568
B1321513651280N00251893WA0143501570
B1321523651280N00251887WA0143701573
B1321533651277N00251882WA0143801575
B1321543651273N00251878WA0143901576
B1321553651269N00251877WA0144301579
B1321563651265N00251877WA0144801583
B1321573651263N00251879WA0145201587
B1321583651262N00251882WA0145501592
B1321593651261N00251885WA0145701595
B1322003651261N00251890WA0145701596
B1322013651261N00251895WA0145701596
B1322023651261N00251901WA0145701596
B1322033651263N00251906WA0145901596
B1322043651266N00251912WA0146001597
B1322053651269N00251916WA0146101599
B1322063651274N00251919WA0146301601
B1322073651279N00251923WA0146601603
B1322083651285N00251927WA0146701605
B1322093651291N00251930WA0147001606
B1322103651297N00251933WA0147201609
B1322113651304N00251933WA0147501612
B1322123651310N00251932WA0147701615
B1322133651315N00251929WA0147801616
B1322143651321N00251924WA0147801616
B1322153651327N00251918WA0147901617
B1322163651332N00251911WA0148101618
B1322173651335N00251905WA0148301620
B1322183651338N00251899WA0148501622
B1322193651339N00251894WA0148601624
B1322203651339N00251888WA0148601624
B1322213651338N00251882WA0148601624
B1322223651337N00251876WA0148901625
B1322233651336N00251871WA0149201628
B1322243651334N00251867WA0149501632
B1322253651332N00251863WA0149701634
B1322263651330N00251859WA0149901636
B1322273651327N00251857WA0150201638
B1322283651324N00251855WA0150401640
B1322293651321N00251855WA0150601643
B1322303651318N00251856WA0150601644
B1322313651314N00251860WA0150601645
B1322323651312N00251867WA0150501645
B1322333651313N00251875WA0150601646
B1322343651315N00251882WA0150801648
B1322353651318N00251888WA0151101649
B1322363651321N00251892WA0151201652
B1322373651325N00251896WA0151401653
B1322383651330N00251900WA0151301654
B1322393651337N00251904WA0151201654
B1322403651344N00251907WA0151501655
B1322413651351N00251908WA0151801657
B1322423651357N00251907WA0152001660
B1322433651362N00251904WA0152201662
B1322443651366N00251899WA0152101664
B1322453651368N00251892WA0151501663
B1322463651368N00251885WA0151301662
B1322473651368N00251879WA0151501661
B1322483651368N00251872WA0151601661
B1322493651366N00251867WA0151801661
B1322503651365N00251862WA0152101663
B1322513651364N00251858WA0152401666
B1322523651362N00251855WA0152501667
B1322533651360N00251852WA0152601668
B1322543651357N00251851WA0152501669
B1322553651354N00251850WA0152601669
B1322563651349N00251849WA0152701669
B1322573651345N00251849WA0152901670
B1322583651341N00251850WA0153101672
B1322593651338N00251851WA0153401674
B1323003651336N00251853WA0153501676
B1323013651333N00251856WA0153301676
B1323023651331N00251860WA0153201676
B1323033651328N00251867WA0153101674
B1323043651327N00251874WA0153101673
B1323053651326N00251880WA0153201674
B1323063651326N00251886WA0153201674
B1323073651327N00251892WA0153201674
B1323083651328N00251898WA0153001673
B1323093651331N00251906WA0152901671
B1323103651334N00251915WA0152801670
B1323113651338N00251923WA0153201670
B1323123651342N00251929WA0153701671
B1323133651346N00251932WA0154001674
B1323143651352N00251934WA0154101676
B1323153651358N00251936WA0154001676
B1323163651364N00251936WA0153901675
B1323173651371N00251936WA0153901674
B1323183651378N00251935WA0154101675
B1323193651383N00251933WA0154201677
B1323203651388N00251930WA0154301679
B1323213651390N00251925WA0154501680
B1323223651392N00251920WA0154501681
B1323233651391N00251914WA0154301681
B1323243651390N00251910WA0154301680
B1323253651388N00251906WA0154301680
B1323263651386N00251903WA0154201680
B1323273651383N00251901WA0154201680
B1323283651380N00251899WA0154101679
B1323293651377N00251897WA0154101679
B1323303651373N00251896WA0154101679
B1323313651370N00251894WA0154201679
B1323323651367N00251892WA0154301680
B1323333651364N00251890WA0154301680
B1323343651361N00251889WA0154201680
B1323353651358N00251888WA0154101680
B1323363651354N00251887WA0154001679
B1323373651350N00251887WA0154001679
B1323383651346N00251886WA0154201679
B1323393651343N00251886WA0154401680
B1323403651340N00251887WA0154501682
B1323413651337N00251888WA0154601684
B1323423651334N00251889WA0154801685
B1323433651331N00251891WA0154801686
B1323443651328N00251893WA0154901687
B1323453651325N00251896WA0155001688
B1323463651321N00251899WA0155101689
B1323473651318N00251902WA0155101689
B1323483651315N00251907WA0155201690
B1323493651313N00251911WA0155201690
B1323503651311N00251917WA0155201690
B1323513651309N00251922WA0155201691
B1323523651307N00251928WA0155101690
B1323533651305N00251934WA0155001689
B1323543651303N00251940WA0154901689
B1323553651300N00251945WA0154801688
B1323563651297N00251950WA0154701687
B1323573651294N00251954WA0154501686
B1323583651292N00251959WA0154101684
B1323593651289N00251964WA0154101683
B1324003651286N00251969WA0154101682
B1324013651282N00251972WA0153801680
B1324023651277N00251975WA0153801679
B1324033651273N00251979WA0153801677
B1324043651269N00251983WA0153601676
B1324053651265N00251988WA0153501674
B1324063651262N00251994WA0153401673
B1324073651259N00251999WA0153301673
B1324083651255N00252003WA0153201672
B1324093651252N00252008WA0153101672
B1324103651248N00252014WA0152901670
B1324113651245N00252019WA0152901670
B1324123651241N00252024WA0152801669
B1324133651237N00252028WA0152701669
B1324143651233N00252031WA0152601667
B1324153651228N00252034WA0152501666
B1324163651223N00252038WA0152301664
B1324173651218N00252043WA0152101663
B1324183651213N00252048WA0151901661
B1324193651209N00252053WA0151901660
B1324203651205N00252057WA0151901659
B1324213651201N00252062WA0151801659
B1324223651197N00252067WA0151701658
B1324233651192N00252073WA0151501657
B1324243651188N00252079WA0151301655
B1324253651185N00252085WA0151301654
B1324263651181N00252090WA0151201653
B1324273651177N00252096WA0151101652
B1324283651172N00252101WA0150901651
B1324293651167N00252105WA0150801649
B1324303651163N00252109WA0150701648
B1324313651158N00252113WA0150601647
B1324323651152N00252117WA0150501645
B1324333651147N00252122WA0150201643
B1324343651141N00252127WA0150101642
B1324353651137N00252132WA0150201641
B1324363651133N00252137WA0150201642
B1324373651130N00252142WA0150201642
B1324383651127N00252147WA0149901641
B1324393651123N00252153WA0149601639
B1324403651119N00252158WA0149201637
B1324413651115N00252164WA0148901633
B1324423651110N00252169WA0148701631
B1324473651085N00252194WA0147500000
B1324483651081N00252201WA0147301623
B1324493651076N00252203WA0147201620
B1324513651066N00252213WA0146900000
B1324523651062N00252218WA0146601615
B1324533651058N00252221WA0146101618
B1324543651052N00252224WA0145701614
B1324553651047N00252228WA0145301609
B1324563651041N00252231WA0145101604
B1324573651036N00252234WA0144901601
B1324593651026N00252240WA0144300000
B1325023651013N00252253WA0143600000
B1325033651008N00252256WA0143601598
B1325043651003N00252260WA0143501597
B1325053650998N00252264WA0143401594
B1325063650994N00252269WA0143301591
B1325073650989N00252273WA0143201589
B1325083650985N00252278WA0143101586
B1325093650981N00252283WA0143001584
B1325103650977N00252288WA0143001582
B1325113650972N00252293WA0142901581
B1325123650968N00252297WA0142801579
B1325133650963N00252302WA0142801577
B1325163650950N00252316WA0143100000
B1325203650933N00252333WA0142900000
B1325213650929N00252339WA0143001577
B1325223650926N00252345WA0143001575
B1325233650922N00252350WA0142701574
B1325243650919N00252356WA0142701572
B1325253650915N00252360WA0142601570
B1325263650911N00252364WA0142501569
B1325273650908N00252368WA0142401568
B1325283650904N00252371WA0142301567
B1325293650900N00252374WA0142201569
B1325303650894N00252374WA0142001568
B1325313650888N00252372WA0141901568
B1325323650883N00252370WA0141701567
B1325333650879N00252366WA0141601565
B1325343650876N00252362WA0141601564
B1325353650874N00252357WA0141501563
B1325363650872N00252351WA0141401561
B1325373650870N00252346WA0141401560
B1325383650869N00252340WA0141301559
B1325393650869N00252335WA0141401558
B1325403650868N00252330WA0141501558
B1325413650868N00252325WA0141601559
B1325423650867N00252319WA0141501559
B1325433650867N00252313WA0141501558
B1325453650867N00252302WA0141600000
B1325463650868N00252298WA0141601558
B1325473650869N00252293WA0141601558
B1325483650870N00252288WA0141501558
B1325493650870N00252282WA0141401558
B1325503650871N00252275WA0141201557
B1325513650872N00252268WA0140901557
B1325523650873N00252262WA0141301557
B1325533650873N00252256WA0141401557
B1325543650874N00252250WA0141401556
B1325553650874N00252244WA0141401556
B1325563650875N00252238WA0141201555
B1325573650875N00252233WA0141101553
B1325583650875N00252227WA0140801550
B1325593650876N00252221WA0140601549
B1326003650876N00252215WA0140401547
B1326013650875N00252209WA0140401546
B1326023650875N00252203WA0140301549
B1326033650874N00252197WA0140101548
B1326043650873N00252191WA0139901547
B1326053650872N00252185WA0139701546
B1326063650871N00252178WA0139501544
B1326073650870N00252171WA0139401542
B1326083650869N00252164WA0139201541
B1326093650868N00252156WA0139201539
B1326103650867N00252149WA0139201538
B1326113650867N00252143WA0139201536
B1326123650867N00252137WA0139101535
B1326133650866N00252131WA0139001534
B1326143650865N00252125WA0138801532
B1326153650864N00252119WA0138501530
B1326163650862N00252112WA0138201527
B1326173650861N00252106WA0138001524
B1326183650860N00252099WA0137801521
B1326193650859N00252093WA0137601519
B1326203650858N00252087WA0137501517
B1326213650856N00252081WA0137301515
B1326223650854N00252075WA0137001512
B1326233650852N00252068WA0136801510
B1326243650850N00252061WA0136601507
B1326253650849N00252054WA0136401505
B1326263650848N00252047WA0136201503
B1326273650848N00252041WA0136201502
B1326283650848N00252035WA0136101500
B1326293650848N00252029WA0135901499
B1326303650849N00252023WA0135601496
B1326313650850N00252017WA0135501494
B1326323650850N00252010WA0135301492
B1326333650850N00252002WA0135101490
B1326343650849N00251995WA0135101489
B1326353650849N00251988WA0135101489
B1326363650848N00251981WA0135201488
B1326373650848N00251976WA0135301488
B1326383650848N00251970WA0135101488
B1326393650847N00251965WA0134801487
B1326403650845N00251959WA0134501484
B1326413650843N00251952WA0134201482
B1326423650841N00251946WA0134101481
B1326433650840N00251940WA0134101480
B1326443650840N00251934WA0134001479
B1326453650839N00251928WA0133901478
B1326463650838N00251922WA0133801477
B1326473650838N00251916WA0133601476
B1326483650837N00251910WA0133401473
B1326493650836N00251902WA0133101470
B1326503650835N00251895WA0132901468
B1326513650835N00251889WA0133001467
B1326523650834N00251885WA0133201467
B1326533650834N00251881WA0133101466
B1326543650833N00251876WA0132801465
B1326553650833N00251870WA0132301463
B1326563650832N00251863WA0132101460
B1326573650830N00251857WA0132101458
B1326583650828N00251851WA0132201460
B1326593650826N00251846WA0132301463
B1327003650824N00251841WA0132401464
B1327013650824N00251836WA0132501464
B1327023650823N00251829WA0132301464
B1327033650822N00251821WA0132301463
B1327043650821N00251814WA0132301463
B1327053650820N00251806WA0132601464
B1327063650820N00251799WA0132801466
B1327073650820N00251791WA0133101467
B1327083650819N00251784WA0133201469
B1327093650819N00251778WA0133501471
B1327103650818N00251774WA0133601473
B1327113650817N00251770WA0133601474
B1327123650815N00251766WA0133301473
B1327133650812N00251760WA0133001471
B1327143650810N00251754WA0132901469
B1327153650808N00251748WA0133001469
B1327163650807N00251743WA0133201469
B1327173650808N00251738WA0133201469
B1327183650808N00251733WA0133001468
B1327193650808N00251728WA0132801467
B1327203650808N00251721WA0132501464
B1327213650808N00251715WA0132301461
B1327223650808N00251709WA0132401461
B1327233650808N00251705WA0132401461
B1327243650808N00251700WA0132301461
B1327253650808N00251696WA0132001459
B1327263650808N00251690WA0131801457
B1327273650809N00251684WA0131601453
B1327283650810N00251677WA0131401451
B1327293650812N00251671WA0131401450
B1327303650813N00251666WA0131301450
B1327313650814N00251660WA0131201449
B1327323650814N00251655WA0130701447
B1327333650813N00251650WA0130601446
B1327343650811N00251645WA0130601445
B1327353650809N00251641WA0130701445
B1327363650807N00251637WA0130601444
B1327373650804N00251634WA0130601444
B1327383650801N00251630WA0130501443
B1327393650797N00251626WA0130401442
B1327403650794N00251622WA0130301441
B1327413650791N00251618WA0130301441
B1327423650788N00251614WA0130401440
B1327433650786N00251611WA0130301440
B1327443650784N00251608WA0130101439
B1327453650782N00251604WA0129901437
B1327463650779N00251599WA0129601435
B1327473650776N00251594WA0129401433
B1327483650774N00251590WA0129401432
B1327493650772N00251586WA0129301431
B1327503650770N00251582WA0129301431
B1327513650768N00251578WA0129101430
B1327523650766N00251573WA0128901428
B1327533650763N00251568WA0128601426
B1327543650761N00251562WA0128501424
B1327553650760N00251556WA0128501422
B1327563650759N00251551WA0128401421
B1327573650759N00251546WA0128301421
B1327583650759N00251541WA0128201419
B1327593650760N00251536WA0128001418
B1328003650760N00251531WA0127801417
B1328013650761N00251525WA0127701414
B1328023650761N00251519WA0127601413
B1328033650762N00251514WA0127501412
B1328043650763N00251509WA0127501410
B1328053650764N00251504WA0127401409
B1328063650764N00251499WA0127301408
B1328073650765N00251493WA0127101407
B1328083650766N00251487WA0127101406
B1328093650766N00251481WA0127001406
B1328103650766N00251476WA0126901406
B1328113650766N00251471WA0126901405
B1328123650767N00251466WA0126701404
B1328133650767N00251460WA0126401402
B1328143650768N00251454WA0126101398
B1328153650769N00251448WA0125901396
B1328163650770N00251442WA0125701394
B1328173650770N00251437WA0125401393
B1328183650769N00251433WA0125301392
B1328193650768N00251429WA0125301391
B1328203650767N00251425WA0125101390
B1328213650766N00251420WA0124801387
B1328223650765N00251413WA0124501384
B1328233650765N00251406WA0124401382
B1328243650764N00251400WA0124501381
B1328253650763N00251395WA0124501381
B1328263650762N00251391WA0124501381
B1328273650761N00251387WA0124301381
B1328283650760N00251382WA0124001379
B1328293650759N00251375WA0123801378
B1328303650759N00251369WA0123801376
B1328313650759N00251364WA0123801376
B1328323650759N00251358WA0123801376
B1328333650759N00251353WA0123801376
B1328343650759N00251347WA0123601374
B1328353650758N00251341WA0123501373
B1328363650758N00251334WA0123601373
B1328373650757N00251328WA0123601373
B1328383650758N00251323WA0123801373
B1328393650759N00251318WA0123801374
B1328403650760N00251314WA0123801374
B1328413650760N00251310WA0123801374
B1328423650761N00251306WA0123801374
B1328433650761N00251301WA0123901374
B1328443650762N00251297WA0123901375
B1328453650763N00251292WA0123901375
B1328463650765N00251287WA0123801375
B1328473650767N00251282WA0123801374
B1328483650767N00251278WA0123801374
B1328493650767N00251273WA0123901374
B1328503650768N00251268WA0123901374
B1328513650768N00251262WA0123801374
B1328523650769N00251257WA0123801374
B1328533650769N00251251WA0123801375
B1328543650768N00251247WA0123801375
B1328553650765N00251244WA0123701374
B1328563650762N00251241WA0123501371
B1328573650759N00251236WA0123401370
B1328583650756N00251230WA0123401369
B1328593650755N00251224WA0123601369
B1329003650753N00251219WA0123601370
B1329013650750N00251216WA0123401370
B1329023650746N00251212WA0123001368
B1329033650742N00251208WA0122601365
B1329043650739N00251204WA0122401363
B1329053650738N00251200WA0122501362
B1329063650737N00251196WA0122401361
B1329073650737N00251191WA0122301359
B1329083650737N00251186WA0122101358
B1329093650737N00251181WA0121801356
B1329103650737N00251176WA0121701354
B1329113650738N00251172WA0121701353
B1329123650739N00251168WA0121601352
B1329133650739N00251164WA0121301351
B1329143650739N00251160WA0121001348
B1329153650739N00251155WA0120701345
B1329163650739N00251149WA0120401342
B1329173650739N00251142WA0120301340
B1329183650740N00251136WA0120401340
B1329193650739N00251131WA0120401340
B1329203650739N00251126WA0120301339
B1329213650739N00251122WA0120201338
B1329223650738N00251117WA0120001337
B1329233650738N00251111WA0119801335
B1329243650739N00251106WA0119601334
B1329253650739N00251100WA0119601333
B1329263650739N00251095WA0119601333
B1329273650739N00251091WA0119501332
B1329283650737N00251087WA0119301331
B1329293650735N00251082WA0119101328
B1329303650733N00251077WA0118901325
B1329313650729N00251072WA0118701323
B1329323650726N00251068WA0118701323
B1329333650724N00251064WA0118701323
B1329343650721N00251060WA0118601322
B1329353650719N00251056WA0118401321
B1329363650715N00251052WA0118201319
B1329373650712N00251048WA0118101317
B1329383650708N00251044WA0118001316
B1329393650705N00251040WA0118001316
B1329403650702N00251036WA0117901316
B1329413650700N00251032WA0117901315
B1329423650697N00251027WA0117601313
B1329433650694N00251022WA0117401311
B1329443650691N00251017WA0117101309
B1329453650688N00251012WA0117101307
B1329463650686N00251007WA0117101307
B1329473650684N00251002WA0117201308
B1329483650682N00250997WA0117201308
B1329493650680N00250992WA0117201308
B1329503650678N00250988WA0117201308
B1329513650674N00250984WA0117101307
B1329523650671N00250981WA0117001306
B1329533650667N00250978WA0116901305
B1329543650664N00250974WA0116801304
B1329553650661N00250970WA0116801304
B1329563650658N00250966WA0116801304
B1329573650655N00250963WA0116801304
B1329583650651N00250959WA0116501303
B1329593650648N00250956WA0116301302
B1330003650644N00250952WA0116301301
B1330013650641N00250948WA0116101299
B1330023650638N00250943WA0116001297
B1330033650636N00250939WA0116001296
B1330043650633N00250935WA0116001295
B1330053650630N00250931WA0115701294
B1330063650628N00250928WA0115501293
B1330073650625N00250924WA0115401291
B1330083650622N00250920WA0115301290
B1330093650619N00250915WA0115301288
B1330103650616N00250911WA0115201288
B1330113650614N00250908WA0115201288
B1330123650612N00250905WA0115101288
B1330133650610N00250902WA0114801286
B1330143650607N00250898WA0114301284
B1330153650603N00250893WA0114001280
B1330163650599N00250888WA0113701276
B1330173650595N00250883WA0113601274
B1330183650592N00250879WA0113601274
B1330193650589N00250875WA0113301274
B1330203650586N00250871WA0113101272
B1330213650583N00250866WA0112801271
B1330223650580N00250861WA0112701268
B1330233650577N00250856WA0112501266
B1330243650574N00250851WA0112501264
B1330253650572N00250846WA0112401263
B1330263650570N00250841WA0112201262
B1330273650568N00250837WA0112001260
B1330283650565N00250832WA0111501257
B1330293650562N00250827WA0111201253
B1330303650559N00250822WA0110901250
B1330313650556N00250815WA0110601246
B1330323650553N00250809WA0110401243
B1330333650550N00250803WA0110101241
B1330343650547N00250798WA0110001238
B1330353650543N00250793WA0109801236
B1330363650539N00250788WA0109501234
B1330373650536N00250782WA0109301232
B1330383650532N00250776WA0109301230
B1330393650529N00250770WA0109201229
B1330403650526N00250764WA0109201229
B1330413650523N00250759WA0109301229
B1330423650522N00250755WA0109701230
B1330433650521N00250750WA0109701231
B1330443650520N00250745WA0109701231
B1330453650519N00250738WA0109501230
B1330463650518N00250731WA0109601229
B1330473650516N00250725WA0110001231
B1330483650514N00250719WA0110301235
B1330493650513N00250716WA0110701239
B1330503650511N00250714WA0111001242
B1330513650508N00250714WA0111001244
B1330523650503N00250715WA0110901244
B1330533650500N00250718WA0111101246
B1330543650497N00250723WA0111201247
B1330553650497N00250727WA0111401249
B1330563650497N00250732WA0111701251
B1330573650499N00250738WA0111701252
B1330583650503N00250743WA0111701252
B1330593650507N00250748WA0111901253
B1331003650513N00250751WA0112101254
B1331013650518N00250753WA0112201256
B1331023650524N00250752WA0112401257
B1331033650530N00250751WA0112501258
B1331043650535N00250748WA0112501258
B1331053650540N00250743WA0112201258
B1331063650543N00250738WA0112001258
B1331073650546N00250731WA0111901258
B1331083650548N00250725WA0112401258
B1331093650549N00250718WA0112601260
B1331103650550N00250713WA0112801262
B1331113650549N00250708WA0113101264
B1331123650548N00250704WA0113201266
B1331133650545N00250700WA0113301267
B1331143650542N00250698WA0113501268
B1331153650538N00250698WA0113601270
B1331163650536N00250699WA0113801271
B1331173650534N00250702WA0114001273
B1331183650532N00250705WA0114301275
B1331193650531N00250708WA0114401277
B1331203650530N00250711WA0114701279
B1331213650529N00250715WA0114801281
B1331223650529N00250720WA0114901281
B1331233650531N00250726WA0114901281
B1331243650534N00250731WA0114901282
B1331253650539N00250736WA0114901283
B1331263650546N00250739WA0115001283
B1331273650553N00250741WA0115201284
B1331283650559N00250742WA0115301286
B1331293650565N00250740WA0115401288
B1331303650570N00250737WA0115401290
B1331313650574N00250732WA0115401290
B1331323650577N00250727WA0115401290
B1331333650580N00250720WA0115401291
B1331343650581N00250714WA0115501291
B1331353650582N00250708WA0115701292
B1331363650581N00250703WA0115801293
B1331373650581N00250698WA0115901294
B1331383650580N00250693WA0116001295
B1331393650578N00250689WA0116001296
B1331403650575N00250686WA0116201296
B1331413650571N00250684WA0116401297
B1331423650568N00250683WA0116501299
B1331433650566N00250683WA0116801302
B1331443650564N00250685WA0117001304
B1331453650563N00250688WA0117001305
B1331463650562N00250692WA0116901306
B1331473650563N00250698WA0116901307
B1331483650566N00250703WA0116901307
B1331493650570N00250707WA0117001307
B1331503650576N00250711WA0117101307
B1331513650582N00250714WA0117201308
B1331523650588N00250715WA0117301309
B1331533650595N00250715WA0117401310
B1331543650601N00250714WA0117301310
B1331553650607N00250712WA0117101310
B1331563650612N00250708WA0117001310
B1331573650617N00250703WA0117101310
B1331583650621N00250697WA0117001308
B1331593650625N00250691WA0117101308
B1332003650629N00250685WA0117301308
B1332013650633N00250680WA0117401309
B1332023650636N00250674WA0117501310
B1332033650639N00250669WA0117501311
B1332043650642N00250663WA0117601311
B1332053650644N00250656WA0117501312
B1332063650646N00250650WA0117501312
B1332073650647N00250645WA0117501312
B1332083650648N00250639WA0117401311
B1332093650648N00250634WA0117201310
B1332103650647N00250628WA0117001308
B1332113650645N00250622WA0116901306
B1332123650644N00250617WA0116901305
B1332133650643N00250613WA0117001306
B1332143650641N00250609WA0117001306
B1332153650639N00250605WA0117001305
B1332163650638N00250599WA0117101306
B1332173650637N00250594WA0117201307
B1332183650637N00250588WA0117501309
B1332193650637N00250582WA0117701311
B1332203650637N00250577WA0117901313
B1332213650635N00250572WA0118001315
B1332223650633N00250568WA0118201317
B1332233650631N00250567WA0118301318
B1332243650628N00250567WA0118401319
B1332253650626N00250570WA0118501321
B1332263650624N00250573WA0118601322
B1332273650623N00250578WA0118601322
B1332283650623N00250583WA0118601323
B1332293650625N00250588WA0118701323
B1332303650628N00250593WA0118801324
B1332313650631N00250597WA0118901325
B1332323650635N00250601WA0119101326
B1332333650640N00250603WA0119201328
B1332343650646N00250603WA0119301328
B1332353650652N00250602WA0119301328
B1332363650658N00250599WA0119201327
B1332373650665N00250595WA0119301327
B1332383650670N00250591WA0119301328
B1332393650674N00250586WA0119301329
B1332403650678N00250580WA0119401329
B1332413650681N00250574WA0119501330
B1332423650684N00250567WA0119401331
B1332433650685N00250561WA0119501331
B1332443650686N00250555WA0119201332
B1332453650686N00250549WA0119201331
B1332463650686N00250544WA0119501332
B1332473650686N00250540WA0119501332
B1332483650686N00250536WA0119301332
B1332493650685N00250531WA0118901330
B1332503650683N00250524WA0118501327
B1332513650681N00250518WA0118301323
B1332523650678N00250512WA0118301321
B1332533650676N00250506WA0118701324
B1332543650674N00250503WA0119001328
B1332553650673N00250499WA0119201330
B1332563650672N00250496WA0119301332
B1332573650670N00250493WA0119301333
B1332583650666N00250493WA0119301334
B1332593650661N00250495WA0119201334
B1333003650657N00250499WA0119401334
B1333013650655N00250504WA0119501335
B1333023650656N00250509WA0119801336
B1333033650657N00250514WA0119901338
B1333043650660N00250518WA0119901338
B1333053650663N00250522WA0119801338
B1333063650667N00250526WA0119601337
B1333073650672N00250529WA0119501336
B1333083650679N00250529WA0119301334
B1333093650686N00250526WA0119301333
B1333103650692N00250523WA0119501335
B1333113650697N00250519WA0119701336
B1333123650700N00250515WA0119901337
B1333133650702N00250510WA0119801337
B1333143650704N00250504WA0119401336
B1333153650705N00250497WA0119001334
B1333163650707N00250489WA0119101332
B1333173650707N00250482WA0119201334
B1333183650708N00250477WA0119401335
B1333193650708N00250472WA0119701336
B1333203650708N00250468WA0119501336
B1333213650707N00250463WA0119401336
B1333223650706N00250458WA0119301335
B1333233650704N00250453WA0119301333
B1333243650702N00250449WA0119301333
B1333253650700N00250445WA0119201332
B1333263650697N00250442WA0119101331
B1333273650694N00250439WA0118901331
B1333283650689N00250436WA0118801329
B1333293650684N00250432WA0118701328
B1333303650680N00250428WA0118801328
B1333313650676N00250424WA0119201330
B1333323650673N00250420WA0119301332
B1333333650670N00250417WA0119301333
B1333343650666N00250413WA0119201334
B1333353650662N00250410WA0119001334
B1333363650657N00250406WA0118901333
B1333373650652N00250402WA0118901332
B1333383650648N00250398WA0119001332
B1333393650646N00250393WA0119201333
B1333403650644N00250389WA0119101333
B1333413650642N00250385WA0118901332
B1333423650640N00250380WA0118701330
B1333433650636N00250375WA0118401328
B1333443650633N00250369WA0118201325
B1333453650630N00250364WA0118301324
B1333463650628N00250358WA0118401324
B1333473650626N00250353WA0118301324
B1333483650624N00250347WA0118101322
B1333493650621N00250342WA0118001321
B1333503650618N00250336WA0117801319
B1333513650614N00250331WA0117701317
B1333523650611N00250325WA0117701316
B1333533650608N00250319WA0117601315
B1333543650607N00250313WA0117601314
B1333553650605N00250307WA0117501313
B1333563650603N00250302WA0117101312
B1333573650600N00250296WA0116901310
B1333583650599N00250290WA0116601308
B1333593650598N00250284WA0116401306
B1334003650598N00250278WA0116501305
B1334013650599N00250272WA0116601304
B1334023650600N00250267WA0116501304
B1334033650601N00250262WA0116501303
B1334043650601N00250257WA0116301301
B1334053650601N00250251WA0116201299
B1334063650601N00250245WA0116101297
B1334073650601N00250240WA0116001296
B1334083650600N00250236WA0116001296
B1334093650599N00250232WA0115801295
B1334103650597N00250227WA0115701294
B1334113650596N00250221WA0115501293
B1334123650595N00250216WA0115501292
B1334133650594N00250210WA0115401291
B1334143650592N00250204WA0115401290
B1334153650591N00250199WA0115301290
B1334163650589N00250194WA0115301289
B1334173650587N00250188WA0115201289
B1334183650585N00250182WA0115201288
B1334193650584N00250176WA0115201288
B1334203650583N00250170WA0115201288
B1334213650582N00250164WA0115301288
B1334223650582N00250158WA0115501289
B1334233650581N00250152WA0115501289
B1334243650581N00250146WA0115601290
B1334253650580N00250139WA0115701290
B1334263650581N00250131WA0115801291
B1334273650582N00250124WA0115901292
B1334283650583N00250118WA0116101294
B1334293650584N00250112WA0116401296
B1334303650583N00250107WA0116501298
B1334313650582N00250102WA0116501299
B1334323650580N00250098WA0116601300
B1334333650577N00250094WA0116601300
B1334343650572N00250092WA0116601301
B1334353650566N00250092WA0116701301
B1334363650562N00250094WA0116901302
B1334373650559N00250097WA0117101304
B1334383650557N00250100WA0117301306
B1334393650557N00250105WA0117501308
B1334403650557N00250110WA0117601309
B1334413650559N00250115WA0117901311
B1334423650562N00250119WA0118001313
B1334433650566N00250122WA0118201315
B1334443650571N00250121WA0118301317
B1334453650577N00250119WA0118501317
B1334463650583N00250115WA0118701319
B1334473650586N00250110WA0119001321
B1334483650588N00250105WA0119101324
B1334493650588N00250099WA0119201325
B1334503650587N00250093WA0119301326
B1334513650585N00250087WA0119301327
B1334523650582N00250082WA0119401327
B1334533650579N00250079WA0119501329
B1334543650576N00250076WA0119701330
B1334553650573N00250075WA0119801332
B1334563650571N00250075WA0119801333
B1334573650568N00250076WA0119601333
B1334583650565N00250079WA0119401332
B1334593650562N00250084WA0119301332
B1335003650561N00250089WA0119401331
B1335013650560N00250094WA0119601332
B1335023650560N00250098WA0119701334
B1335033650561N00250102WA0119901335
B1335043650563N00250107WA0119901336
B1335053650566N00250111WA0119901336
B1335063650570N00250115WA0119901336
B1335073650576N00250118WA0120101336
B1335083650582N00250120WA0120401338
B1335093650586N00250121WA0120801342
B1335103650591N00250122WA0121201347
B1335113650595N00250120WA0121401350
B1335123650600N00250116WA0121601351
B1335133650604N00250110WA0121801352
B1335143650607N00250104WA0121801353
B1335153650608N00250097WA0122001355
B1335163650607N00250090WA0122201356
B1335173650604N00250084WA0122201357
B1335183650601N00250079WA0122401358
B1335193650598N00250075WA0122601360
B1335203650595N00250073WA0122901362
B1335213650591N00250071WA0123001364
B1335223650587N00250072WA0122901365
B1335233650585N00250075WA0122701366
B1335243650584N00250081WA0122701367
B1335253650584N00250087WA0122801366
B1335263650585N00250093WA0123001367
B1335273650587N00250097WA0123301370
B1335283650591N00250100WA0123601373
B1335293650595N00250103WA0123801375
B1335303650600N00250106WA0123901376
B1335313650606N00250107WA0123901376
B1335323650612N00250104WA0124101377
B1335333650617N00250099WA0124401378
B1335343650621N00250093WA0124701380
B1335353650623N00250087WA0124901383
B1335363650623N00250081WA0125001385
B1335373650622N00250075WA0125101386
B1335383650621N00250069WA0125201387
B1335393650620N00250062WA0125201386
B1335403650618N00250056WA0125301388
B1335413650615N00250052WA0125601389
B1335423650613N00250049WA0125601391
B1335433650610N00250048WA0125701392
B1335443650606N00250048WA0125501392
B1335453650602N00250048WA0125301393
B1335463650599N00250050WA0125701393
B1335473650596N00250053WA0126101395
B1335483650596N00250057WA0126201396
B1335493650597N00250061WA0126401398
B1335503650599N00250065WA0126401399
B1335513650602N00250069WA0126501399
B1335523650607N00250073WA0126601400
B1335533650612N00250076WA0126701401
B1335543650618N00250078WA0126901402
B1335553650623N00250080WA0127301406
B1335563650627N00250079WA0127701410
B1335573650631N00250078WA0128001413
B1335583650635N00250075WA0128201415
B1335593650640N00250070WA0128401417
B1336003650644N00250065WA0128601419
B1336013650648N00250060WA0129001421
B1336023650650N00250055WA0129301424
B1336033650650N00250049WA0129601426
B1336043650650N00250043WA0129701427
B1336053650648N00250037WA0129601427
B1336063650645N00250031WA0129701428
B1336073650642N00250027WA0129801429
B1336083650638N00250024WA0129901431
B1336093650634N00250022WA0130101432
B1336103650631N00250021WA0130201434
B1336113650627N00250022WA0130401436
B1336123650625N00250024WA0130601438
B1336133650623N00250026WA0130701440
B1336143650622N00250030WA0130701441
B1336153650622N00250034WA0130501442
B1336163650623N00250039WA0130401443
B1336173650625N00250044WA0130801442
B1336183650628N00250049WA0131101443
B1336193650632N00250054WA0131401445
B1336203650637N00250057WA0131701449
B1336213650642N00250057WA0132001453
B1336223650646N00250055WA0132301456
B1336233650651N00250051WA0132501457
B1336243650656N00250045WA0132701459
B1336253650659N00250039WA0133001461
B1336263650659N00250033WA0133201464
B1336273650658N00250028WA0133401466
B1336283650656N00250024WA0133501466
B1336293650652N00250020WA0133701467
B1336303650649N00250018WA0133701469
B1336313650646N00250018WA0134001472
B1336323650643N00250020WA0134101474
B1336333650641N00250023WA0134201475
B1336343650640N00250028WA0134201476
B1336353650641N00250034WA0134401477
B1336363650643N00250041WA0134501478
B1336373650647N00250047WA0135001481
B1336383650651N00250052WA0135401485
B1336393650655N00250054WA0135701489
B1336403650659N00250054WA0136001492
B1336413650664N00250053WA0136201495
B1336423650669N00250051WA0136401497
B1336433650674N00250047WA0136601499
B1336443650679N00250043WA0136901502
B1336453650682N00250038WA0137201504
B1336463650684N00250032WA0137401507
B1336473650685N00250026WA0137501509
B1336483650685N00250021WA0137601510
B1336493650684N00250015WA0137801512
B1336503650682N00250011WA0137901513
B1336513650678N00250008WA0137801514
B1336523650674N00250007WA0137801515
B1336533650670N00250007WA0138001515
B1336543650666N00250009WA0138301517
B1336553650663N00250011WA0138501519
B1336563650661N00250015WA0138701521
B1336573650660N00250019WA0138901523
B1336583650659N00250024WA0139101524
B1336593650660N00250029WA0139201526
B1337003650661N00250035WA0139401528
B1337013650662N00250040WA0139601531
B1337023650664N00250045WA0140001534
B1337033650668N00250049WA0140301537
B1337043650673N00250052WA0140501539
B1337053650678N00250053WA0140801541
B1337063650684N00250052WA0141201544
B1337073650689N00250050WA0141401547
B1337083650693N00250045WA0141601551
B1337093650695N00250039WA0141901554
B1337103650695N00250033WA0142101556
B1337113650693N00250028WA0142201558
B1337123650689N00250025WA0142301558
B1337133650684N00250024WA0142301559
B1337143650679N00250026WA0142601560
B1337153650675N00250029WA0142901562
B1337163650672N00250033WA0143201565
B1337173650671N00250038WA0143401567
B1337183650671N00250043WA0143601569
B1337193650673N00250048WA0143801571
B1337203650676N00250053WA0143801573
B1337213650680N00250057WA0143801574
B1337223650686N00250059WA0143901575
B1337233650693N00250059WA0144001575
B1337243650699N00250057WA0144201577
B1337253650705N00250055WA0144601581
B1337263650708N00250051WA0145101584
B1337273650710N00250048WA0145301588
B1337283650711N00250042WA0145501590
B1337293650711N00250036WA0145701592
B1337303650709N00250030WA0145701593
B1337313650706N00250026WA0146001595
B1337323650703N00250023WA0146201598
B1337333650698N00250022WA0146401600
B1337343650693N00250023WA0146601602
B1337353650689N00250026WA0146901604
B1337363650686N00250030WA0147101606
B1337373650684N00250035WA0147101607
B1337383650684N00250041WA0147201609
B1337393650685N00250047WA0147101609
B1337403650688N00250054WA0147101610
B1337413650691N00250059WA0147301610
B1337423650695N00250064WA0147501611
B1337433650699N00250067WA0147501613
B1337443650704N00250070WA0147601613
B1337453650709N00250071WA0147601613
B1337463650715N00250071WA0147601613
B1337473650721N00250071WA0147701613
B1337483650726N00250069WA0148101616
B1337493650729N00250067WA0148501618
B1337503650732N00250065WA0148601621
B1337513650735N00250062WA0148801623
B1337523650737N00250058WA0149001625
B1337533650740N00250054WA0149001625
B1337543650742N00250049WA0149101626
B1337553650744N00250043WA0149201627
B1337563650746N00250038WA0149301628
B1337573650747N00250032WA0149501629
B1337583650748N00250026WA0149601630
B1337593650749N00250021WA0149701632
B1338003650749N00250016WA0149701633
B1338013650749N00250011WA0149601633
B1338023650748N00250005WA0149201631
B1338033650747N00249998WA0149001629
B1338043650746N00249991WA0149401629
B1338053650744N00249985WA0149701631
B1338063650743N00249979WA0149901633
B1338073650742N00249974WA0150101636
B1338083650740N00249970WA0150301638
B1338093650737N00249968WA0150301639
B1338103650733N00249967WA0150301639
B1338113650729N00249968WA0150301639
B1338123650725N00249971WA0150501640
B1338133650723N00249975WA0150701641
B1338143650722N00249979WA0150801642
B1338153650722N00249983WA0150901644
B1338163650723N00249988WA0151001644
B1338173650723N00249995WA0151001645
B1338183650724N00250002WA0151201646
B1338193650725N00250008WA0151501649
B1338203650728N00250013WA0151801652
B1338213650731N00250016WA0151901654
B1338223650736N00250019WA0152001656
B1338233650741N00250022WA0152101656
B1338243650748N00250022WA0151901656
B1338253650754N00250019WA0152001656
B1338263650759N00250014WA0152201656
B1338273650762N00250008WA0152301657
B1338283650763N00250002WA0152501660
B1338293650763N00249998WA0152601661
B1338303650763N00249993WA0152601662
B1338313650761N00249988WA0152501662
B1338323650758N00249981WA0152601662
B1338333650754N00249976WA0152801663
B1338343650750N00249972WA0153101665
B1338353650746N00249971WA0153201667
B1338363650743N00249973WA0153401668
B1338373650739N00249974WA0153501670
B1338383650736N00249977WA0153601670
B1338393650734N00249981WA0153501671
B1338403650731N00249986WA0153501671
B1338413650729N00249993WA0153501671
B1338423650728N00250000WA0153701672
B1338433650729N00250006WA0154001675
B1338443650731N00250010WA0154101676
B1338453650734N00250014WA0154101678
B1338463650737N00250017WA0154101679
B1338473650742N00250020WA0153901679
B1338483650748N00250023WA0153601678
B1338493650754N00250024WA0154101679
B1338503650759N00250024WA0154201682
B1338513650764N00250021WA0154401683
B1338523650768N00250018WA0154501684
B1338533650770N00250014WA0154501685
B1338543650772N00250010WA0154601685
B1338553650775N00250006WA0154501685
B1338563650778N00250001WA0154401685
B1338573650781N00249995WA0154501684
B1338583650784N00249988WA0154601684
B1338593650786N00249982WA0154801685
B1339003650788N00249977WA0154901687
B1339013650789N00249972WA0155101688
B1339023650790N00249967WA0155201689
B1339033650791N00249961WA0155201690
B1339043650790N00249956WA0155201691
B1339053650789N00249950WA0155301691
B1339063650786N00249945WA0155401691
B1339073650784N00249941WA0155401691
B1339083650780N00249938WA0155401692
B1339093650777N00249936WA0155501692
B1339103650772N00249934WA0155501693
B1339113650767N00249934WA0155501693
B1339123650762N00249934WA0155501693
B1339133650758N00249934WA0155501693
B1339143650754N00249935WA0155601694
B1339153650751N00249936WA0155601694
B1339163650747N00249937WA0155601694
B1339173650744N00249939WA0155801695
B1339183650740N00249941WA0155601695
B1339193650738N00249944WA0155501695
B1339203650737N00249948WA0155301694
B1339213650736N00249953WA0154901692
B1339223650737N00249960WA0154601691
B1339233650739N00249966WA0154801689
B1339243650742N00249971WA0154801688
B1339253650745N00249975WA0155001688
B1339263650749N00249977WA0155001688
B1339273650754N00249978WA0154901688
B1339283650761N00249979WA0154801687
B1339293650768N00249978WA0154801686
B1339303650775N00249975WA0154901687
B1339313650780N00249971WA0155101690
B1339323650784N00249966WA0155101691
B1339333650788N00249960WA0155101691
B1339343650791N00249954WA0154801691
B1339353650794N00249946WA0154401690
B1339363650797N00249938WA0154501689
B1339373650800N00249930WA0154501688
B1339383650801N00249923WA0154501687
B1339393650802N00249915WA0154501687
B1339413650804N00249900WA0154300000
B1339423650804N00249891WA0154301685
B1339433650804N00249883WA0154301684
B1339443650804N00249875WA0154301685
B1339453650803N00249868WA0154401685
B1339463650801N00249860WA0154601685
B1339473650800N00249854WA0154901689
B1339483650800N00249848WA0155101690
B1339493650798N00249843WA0155301692
B1339503650796N00249838WA0155401693
B1339513650793N00249833WA0155401694
B1339523650790N00249828WA0155401693
B1339533650786N00249823WA0155401693
B1339543650783N00249818WA0155301693
B1339553650780N00249812WA0155401694
B1339563650777N00249805WA0155301694
B1339573650774N00249799WA0155301694
B1339583650770N00249794WA0155301693
B1339593650767N00249789WA0155501693
B1340003650765N00249786WA0155601693
B1340033650760N00249768WA0155000000
B1340043650757N00249760WA0154901694
B1340053650754N00249754WA0154901694
B1340063650750N00249749WA0154801693
B1340073650747N00249745WA0154901693
B1340083650744N00249739WA0154801692
B1340093650741N00249734WA0154801691
B1340103650738N00249728WA0154601691
B1340113650736N00249723WA0154601690
B1340123650734N00249718WA0154601690
B1340133650733N00249713WA0154601690
B1340143650732N00249708WA0154501690
B1340153650731N00249702WA0154601690
B1340163650730N00249696WA0154801690
B1340173650731N00249691WA0155001690
B1340183650731N00249686WA0155001690
B1340193650731N00249680WA0155201691
B1340203650731N00249676WA0155301691
B1340213650731N00249671WA0155501693
B1340223650730N00249667WA0155501694
B1340233650730N00249663WA0155601694
B1340243650730N00249658WA0155701693
B1340253650729N00249653WA0155901694
B1340263650728N00249648WA0156101696
B1340273650728N00249644WA0156401698
B1340283650726N00249640WA0156501700
B1340293650725N00249635WA0156601701
B1340303650724N00249629WA0156701702
B1340313650723N00249624WA0157001704
B1340323650723N00249620WA0157201707
B1340333650722N00249616WA0157401710
B1340343650721N00249613WA0157501712
B1340353650720N00249609WA0157401711
B1340363650718N00249604WA0157201710
B1340373650716N00249598WA0157301709
B1340413650702N00249580WA0158100000
B1340423650701N00249580WA0158201710
B1340433650698N00249580WA0158301711
B1340443650694N00249579WA0158501712
B1340453650690N00249578WA0158601713
B1340463650687N00249577WA0158601715
B1340473650685N00249575WA0158501714
B1340483650681N00249573WA0158401714
B1340493650676N00249570WA0158201713
B1340503650671N00249569WA0158101712
B1340513650667N00249568WA0158301713
B1340523650664N00249568WA0158501715
B1340533650661N00249567WA0158501717
B1340543650659N00249566WA0158301717
B1340553650655N00249564WA0158101715
B1340563650650N00249562WA0157901713
B1340573650645N00249561WA0157701712
B1340583650641N00249559WA0157801713
B1340593650638N00249557WA0157801713
B1341003650635N00249553WA0157601713
B1341013650632N00249547WA0157201712
B1341023650629N00249542WA0156901710
B1341033650626N00249536WA0156801709
B1341043650624N00249530WA0156901708
B1341053650622N00249525WA0157001709
B1341063650622N00249520WA0156901708
B1341073650622N00249513WA0156501707
B1341083650621N00249506WA0156301704
B1341093650620N00249499WA0156101702
B1341103650620N00249493WA0156101701
B1341113650619N00249486WA0155901700
B1341123650619N00249480WA0155801698
B1341133650620N00249474WA0155701697
B1341143650620N00249468WA0155601695
B1341153650621N00249462WA0155501694
B1341163650622N00249456WA0155601694
B1341173650623N00249450WA0155601694
B1341183650624N00249444WA0155801695
B1341193650625N00249439WA0155801696
B1341203650626N00249435WA0155801697
B1341213650628N00249430WA0155701696
B1341223650629N00249424WA0155701696
B1341233650629N00249418WA0155701696
B1341243650631N00249413WA0155801696
B1341263650634N00249404WA0155800000
B1341273650634N00249397WA0155701696
B1341283650635N00249390WA0155801696
B1341293650635N00249384WA0156001696
B1341303650636N00249378WA0156301697
B1341313650638N00249373WA0156601698
B1341323650639N00249368WA0156701699
B1341333650640N00249363WA0156901701
B1341343650640N00249359WA0157001702
B1341353650640N00249354WA0157101704
B1341363650637N00249350WA0157201705
B1341373650634N00249347WA0157201705
B1341383650630N00249345WA0157201706
B1341393650626N00249346WA0157501708
B1341403650623N00249347WA0157601709
B1341413650620N00249350WA0157901711
B1341423650618N00249354WA0158001713
B1341433650617N00249359WA0158101714
B1341443650617N00249365WA0158001714
B1341453650617N00249372WA0157501714
B1341463650619N00249379WA0157501714
B1341473650623N00249385WA0157901714
B1341483650627N00249390WA0158001715
B1341493650633N00249393WA0158101716
B1341503650639N00249394WA0158101718
B1341513650645N00249393WA0158201719
B1341523650651N00249391WA0158301720
B1341533650657N00249389WA0158401721
B1341543650662N00249385WA0158501722
B1341553650666N00249380WA0158601723
B1341563650670N00249375WA0158801724
B1341573650672N00249370WA0158901726
B1341583650674N00249364WA0159101727
B1341593650675N00249360WA0159301728
B1342003650674N00249356WA0159301730
B1342013650673N00249352WA0159301731
B1342023650670N00249349WA0159201730
B1342033650666N00249347WA0159101730
B1342043650661N00249345WA0159301730
B1342053650656N00249344WA0159401731
B1342063650652N00249344WA0159701733
B1342073650649N00249345WA0159901735
B1342083650645N00249348WA0159901736
B1342093650643N00249352WA0159801737
B1342103650640N00249359WA0159701737
B1342113650640N00249366WA0159701737
B1342123650640N00249373WA0159901738
B1342133650642N00249379WA0160101740
B1342143650645N00249383WA0160201742
B1342153650649N00249387WA0160101742
B1342163650654N00249391WA0159801742
B1342173650660N00249394WA0159301740
B1342183650667N00249395WA0159701739
B1342193650673N00249394WA0160001741
B1342203650678N00249392WA0160101744
B1342213650682N00249389WA0160201745
B1342223650686N00249386WA0160201745
B1342233650691N00249381WA0160001744
B1342243650696N00249375WA0159801743
B1342253650701N00249369WA0159901741
B1342263650707N00249363WA0160201741
B1342273650711N00249359WA0160501743
B1342283650715N00249356WA0160701744
B1342293650718N00249352WA0160801746
B1342303650721N00249347WA0160901747
B1342313650723N00249341WA0161001748
B1342323650724N00249334WA0161101748
B1342333650724N00249327WA0161201749
B1342343650723N00249321WA0161501751
B1342353650722N00249316WA0161701754
B1342363650719N00249312WA0161901755
B1342373650717N00249308WA0162101757
B1342383650713N00249304WA0162301759
B1342393650710N00249301WA0162501761
B1342403650707N00249299WA0162701764
B1342413650704N00249298WA0163001766
B1342423650700N00249298WA0163001767
B1342433650696N00249299WA0163101769
B1342443650692N00249301WA0163301770
B1342453650688N00249305WA0163501771
B1342463650686N00249310WA0163601773
B1342473650685N00249315WA0163901775
B1342483650685N00249321WA0164001777
B1342493650687N00249326WA0164201778
B1342503650690N00249331WA0164201779
B1342513650694N00249336WA0164301779
B1342523650698N00249340WA0164301780
B1342533650703N00249343WA0164401781
B1342543650709N00249345WA0164501783
B1342553650714N00249346WA0164601784
B1342563650720N00249345WA0164701785
B1342573650725N00249343WA0164901786
B1342583650731N00249340WA0165001787
B1342593650735N00249336WA0165101789
B1343003650740N00249330WA0165201790
B1343013650743N00249324WA0165501792
B1343023650746N00249317WA0165601793
B1343033650747N00249311WA0165801795
B1343043650747N00249305WA0166101798
B1343053650746N00249301WA0166201800
B1343063650745N00249297WA0166201801
B1343073650742N00249292WA0166301801
B1343083650738N00249289WA0166301801
B1343093650734N00249287WA0166501802
B1343103650729N00249287WA0166801804
B1343113650726N00249288WA0167001806
B1343123650723N00249291WA0167201809
B1343133650720N00249294WA0167301811
B1343143650718N00249299WA0167301811
B1343153650717N00249304WA0167301812
B1343163650716N00249311WA0167401812
B1343173650716N00249316WA0167401813
B1343223650732N00249332WA0167800000
B1343233650738N00249331WA0167901812
B1343243650744N00249332WA0167901813
B1343253650750N00249330WA0168001813
B1343263650755N00249327WA0168101814
B1343273650758N00249322WA0168201815
B1343283650761N00249317WA0168301816
B1343293650763N00249312WA0168401817
B1343303650764N00249306WA0168501818
B1343313650765N00249301WA0168601820
B1343323650766N00249294WA0168801820
B1343333650767N00249288WA0168901821
B1343343650766N00249281WA0169101823
B1343353650766N00249275WA0169301826
B1343363650766N00249269WA0169501829
B1343373650766N00249263WA0169701831
B1343383650765N00249257WA0169801833
B1343393650763N00249252WA0170001835
B1343403650760N00249248WA0170201837
B1343413650756N00249246WA0170401839
B1343423650752N00249246WA0170501841
B1343433650749N00249247WA0170601842
B1343443650745N00249251WA0170501843
B1343453650742N00249256WA0170301843
B1343463650740N00249262WA0170601844
B1343473650740N00249269WA0170801844
B1343483650740N00249276WA0171001846
B1343493650743N00249281WA0171101848
B1343503650746N00249285WA0171201849
B1343513650752N00249288WA0171301850
B1343523650757N00249289WA0171201850
B1343533650764N00249288WA0171301851
B1343543650769N00249285WA0171401852
B1343553650774N00249281WA0171601854
B1343563650777N00249276WA0171801855
B1343573650780N00249271WA0171801856
B1343583650782N00249265WA0171901857
B1343593650782N00249258WA0172001858
B1344003650782N00249252WA0172201859
B1344013650780N00249247WA0172401861
B1344023650778N00249242WA0172601864
B1344033650776N00249238WA0172801865
B1344043650774N00249233WA0172801867
B1344053650772N00249229WA0172901868
B1344063650769N00249225WA0172901868
B1344073650766N00249220WA0172901868
B1344083650764N00249216WA0172901869
B1344093650762N00249211WA0173001869
B1344103650760N00249207WA0172901869
B1344113650758N00249202WA0172701868
B1344123650755N00249197WA0172501866
B1344133650752N00249192WA0172101864
B1344143650748N00249187WA0171901863
B1344153650745N00249183WA0171801861
B1344163650742N00249177WA0171601860
B1344173650740N00249172WA0171601858
B1344183650737N00249165WA0171401856
B1344193650733N00249159WA0171301855
B1344203650730N00249154WA0171401854
B1344213650728N00249149WA0171401855
B1344223650725N00249144WA0171301855
B1344233650722N00249139WA0171001854
B1344243650719N00249134WA0170901852
B1344253650716N00249128WA0170701850
B1344263650713N00249123WA0170701849
B1344273650711N00249119WA0170501848
B1344283650708N00249114WA0170301847
B1344293650705N00249108WA0170001844
B1344303650702N00249102WA0169801841
B1344313650699N00249097WA0169801839
B1344323650696N00249091WA0169701837
B1344333650694N00249085WA0169601836
B1344343650691N00249080WA0169501836
B1344353650688N00249075WA0169501835
B1344363650685N00249070WA0169301834
B1344373650683N00249063WA0169101833
B1344383650680N00249056WA0168801830
B1344393650675N00249048WA0168401827
B1344403650671N00249041WA0168301824
B1344413650666N00249035WA0168301823
B1344423650662N00249030WA0168401823
B1344433650660N00249025WA0168401823
B1344443650658N00249020WA0168101822
B1344453650656N00249015WA0167801819
B1344463650652N00249008WA0167301815
B1344473650647N00249001WA0167101811
B1344483650643N00248994WA0167001809
B1344493650640N00248988WA0167101808
B1344503650639N00248982WA0167001807
B1344513650637N00248976WA0166901805
B1344523650635N00248970WA0166701803
B1344533650632N00248962WA0166401800
B1344543650629N00248954WA0166201798
B1344553650627N00248946WA0166101797
B1344563650626N00248938WA0166101796
B1344573650625N00248931WA0166101797
B1344583650624N00248925WA0166201797
B1344593650623N00248919WA0166101798
B1345003650622N00248912WA0165901797
B1345013650621N00248905WA0165601795
B1345023650620N00248897WA0165501794
B1345033650620N00248890WA0165401793
B1345043650620N00248883WA0165401792
B1345053650621N00248877WA0165201791
B1345063650620N00248869WA0164901789
B1345073650619N00248860WA0164601786
B1345083650618N00248851WA0164601784
B1345093650617N00248843WA0164601783
B1345103650617N00248835WA0164701784
B1345113650616N00248827WA0164701784
B1345123650615N00248819WA0164601784
B1345133650614N00248811WA0164401782
B1345143650613N00248802WA0164201781
B1345153650612N00248793WA0164001779
B1345163650612N00248785WA0164001779
B1345173650612N00248776WA0164001779
B1345183650612N00248769WA0164001779
B1345193650612N00248761WA0163901778
B1345203650612N00248754WA0163701777
B1345213650612N00248746WA0163401775
B1345223650612N00248737WA0163201772
B1345233650612N00248728WA0163001770
B1345243650613N00248720WA0162901768
B1345253650613N00248711WA0162701766
B1345263650613N00248703WA0162601765
B1345273650613N00248695WA0162401764
B1345283650613N00248687WA0162201762
B1345293650613N00248678WA0162001760
B1345303650612N00248670WA0161701758
B1345313650612N00248662WA0161401756
B1345323650611N00248653WA0161301754
B1345333650611N00248645WA0161101752
B1345343650612N00248637WA0161001751
B1345353650612N00248628WA0160901750
B1345363650613N00248620WA0160701749
B1345373650613N00248612WA0160601747
B1345383650613N00248603WA0160501745
B1345393650614N00248595WA0160301744
B1345403650616N00248587WA0160201742
B1345413650617N00248579WA0160101741
B1345423650618N00248571WA0160001740
B1345433650619N00248564WA0159901739
B1345443650621N00248556WA0159701737
B1345453650622N00248548WA0159601736
B1345463650624N00248540WA0159501734
B1345473650626N00248532WA0159301733
B1345483650628N00248525WA0159201732
B1345493650629N00248517WA0159001730
B1345503650631N00248509WA0158901729
B1345513650632N00248501WA0158701727
B1345523650634N00248493WA0158501726
B1345533650636N00248484WA0158401724
B1345543650638N00248476WA0158301723
B1345553650640N00248468WA0158301722
B1345563650641N00248460WA0158001721
B1345573650643N00248452WA0157901719
B1345583650644N00248444WA0157701718
B1345593650645N00248436WA0157601716
B1346003650646N00248429WA0157501715
B1346013650647N00248422WA0157401714
B1346023650647N00248415WA0157301713
B1346033650648N00248408WA0156901711
B1346043650648N00248400WA0156601709
B1346053650649N00248392WA0156701708
B1346063650650N00248385WA0156701707
B1346073650651N00248378WA0156601706
B1346083650652N00248372WA0156801706
B1346093650653N00248366WA0156701707
B1346103650653N00248361WA0156601706
B1346113650654N00248355WA0156401705
B1346123650655N00248349WA0156101702
B1346133650656N00248342WA0155901700
B1346143650658N00248335WA0155701697
B1346153650659N00248329WA0155601696
B1346163650660N00248323WA0155501695
B1346173650661N00248318WA0155401694
B1346183650662N00248312WA0155201692
B1346193650664N00248305WA0154901689
B1346203650665N00248298WA0154701687
B1346213650666N00248291WA0154601685
B1346223650667N00248286WA0154501684
B1346233650667N00248280WA0154401683
B1346243650668N00248274WA0154101681
B1346253650669N00248268WA0153601679
B1346263650671N00248261WA0153701678
B1346273650672N00248255WA0153701677
B1346283650673N00248249WA0153601676
B1346293650674N00248244WA0153501678
B1346303650675N00248238WA0153301678
B1346313650677N00248232WA0153101678
B1346323650679N00248225WA0153001678
B1346333650680N00248219WA0152901677
B1346343650681N00248212WA0152901677
B1346353650681N00248207WA0152801676
B1346363650681N00248200WA0152601675
B1346373650682N00248193WA0152301673
B1346383650683N00248186WA0152101671
B1346393650685N00248180WA0152001669
B1346403650686N00248174WA0151901667
B1346413650686N00248169WA0151801666
B1346423650687N00248163WA0151701664
B1346433650688N00248157WA0151501662
B1346443650689N00248151WA0151301660
B1346453650690N00248145WA0151301658
B1346463650691N00248139WA0151201656
B1346473650692N00248134WA0151201654
B1346483650693N00248129WA0151101653
B1346493650694N00248123WA0150901651
B1346503650695N00248116WA0150801649
B1346513650696N00248110WA0150801648
B1346523650697N00248104WA0150901648
B1346533650697N00248098WA0151101648
B1346543650699N00248093WA0150801649
B1346553650701N00248088WA0150801648
B1346563650702N00248083WA0151001647
B1346573650704N00248078WA0150801647
B1346583650705N00248074WA0151101649
B1346593650708N00248071WA0151201651
B1347003650711N00248069WA0151201652
B1347013650715N00248067WA0151001652
B1347023650720N00248064WA0150801648
B1347033650724N00248060WA0150601645
B1347043650728N00248056WA0150701645
B1347053650731N00248053WA0150701645
B1347063650734N00248050WA0150701646
B1347073650736N00248047WA0150601645
B1347083650739N00248044WA0150401643
B1347093650743N00248039WA0150201641
B1347103650746N00248034WA0150101639
B1347113650749N00248029WA0150101638
B1347123650752N00248025WA0150201638
B1347133650755N00248021WA0150201638
B1347143650757N00248018WA0150201638
B1347153650759N00248013WA0150001638
B1347163650761N00248008WA0149901636
B1347173650763N00248003WA0149801635
B1347183650766N00247998WA0149801635
B1347193650768N00247994WA0149801636
B1347203650770N00247991WA0149701636
B1347213650772N00247987WA0149501635
B1347223650774N00247983WA0149201633
B1347233650776N00247977WA0148901629
B1347243650778N00247971WA0148801627
B1347253650780N00247965WA0148801626
B1347263650782N00247961WA0148801626
B1347273650783N00247957WA0148801626
B1347283650785N00247953WA0148601625
B1347293650787N00247948WA0148501623
B1347303650789N00247942WA0148301621
B1347313650792N00247938WA0148101620
B1347323650795N00247933WA0148001619
B1347333650798N00247930WA0147901618
B1347343650801N00247926WA0147301617
B1347353650803N00247921WA0147001615
B1347363650806N00247915WA0146901613
B1347373650808N00247909WA0146801611
B1347383650810N00247903WA0146801609
B1347393650811N00247898WA0146601608
B1347403650812N00247893WA0146501607
B1347413650813N00247887WA0146401605
B1347423650815N00247881WA0146201604
B1347433650816N00247875WA0146101603
B1347443650817N00247870WA0146101601
B1347453650817N00247864WA0146101600
B1347463650817N00247859WA0145801600
B1347473650818N00247853WA0145701599
B1347483650820N00247847WA0145601597
B1347493650822N00247841WA0145401596
B1347503650823N00247835WA0145401595
B1347513650824N00247829WA0145301594
B1347523650825N00247823WA0145301593
B1347533650827N00247817WA0145101592
B1347543650830N00247810WA0144901593
B1347553650832N00247803WA0144801594
B1347563650835N00247795WA0144701594
B1347573650836N00247789WA0144401594
B1347583650836N00247783WA0144201595
B1347593650836N00247777WA0144001595
B1348003650836N00247770WA0143801594
B1348013650837N00247764WA0143401593
B1348023650837N00247757WA0143201592
B1348033650836N00247751WA0143301590
B1348043650835N00247745WA0143101585
B1348053650835N00247739WA0143001583
B1348063650835N00247733WA0142701579
B1348073650835N00247727WA0142501577
B1348083650836N00247720WA0142401574
B1348093650836N00247713WA0142201572
B1348103650837N00247707WA0141801574
B1348113650836N00247701WA0141601572
B1348123650835N00247697WA0141601570
B1348133650835N00247692WA0141601568
B1348143650834N00247688WA0141501567
B1348153650834N00247682WA0141501565
B1348163650834N00247676WA0141401563
B1348173650834N00247670WA0141401562
B1348183650835N00247665WA0141501561
B1348193650836N00247661WA0141601561
B1348203650837N00247657WA0141601561
B1348213650838N00247652WA0141301560
B1348223650839N00247646WA0141001557
B1348233650841N00247639WA0140901555
B1348243650845N00247633WA0141001555
B1348253650849N00247629WA0141201556
B1348263650852N00247627WA0141501558
B1348273650854N00247624WA0141501559
B1348283650856N00247620WA0141501558
B1348293650857N00247614WA0141201556
B1348303650859N00247608WA0141101554
B1348313650860N00247603WA0141101553
B1348323650861N00247598WA0141201555
B1348333650861N00247595WA0141301555
B1348343650860N00247591WA0141001555
B1348353650858N00247587WA0140901553
B1348363650857N00247581WA0140901551
B1348373650857N00247575WA0141001551
B1348383650857N00247569WA0141301552
B1348393650857N00247565WA0141401553
B1348403650856N00247562WA0141401554
B1348413650855N00247558WA0141101553
B1348423650854N00247553WA0140701551
B1348433650852N00247548WA0140701549
B1348443650851N00247542WA0140401547
B1348453650851N00247537WA0140401547
B1348463650850N00247532WA0140601547
B1348473650849N00247529WA0140701548
B1348483650847N00247525WA0140701548
B1348493650845N00247522WA0140601548
B1348503650842N00247518WA0140401547
B1348513650840N00247513WA0140301546
B1348523650839N00247508WA0140201545
B1348533650839N00247503WA0140001544
B1348543650841N00247496WA0139501543
B1348553650843N00247491WA0139501541
B1348563650845N00247485WA0139501540
B1348573650847N00247480WA0139501539
B1348583650850N00247476WA0139401538
B1348593650852N00247472WA0139301537
B1349003650853N00247467WA0139101535
B1349013650855N00247462WA0138901533
B1349023650857N00247456WA0138701531
B1349033650859N00247451WA0138501530
B1349043650861N00247446WA0138401528
B1349053650863N00247442WA0138301526
B1349063650865N00247438WA0138101525
B1349073650866N00247433WA0137901523
B1349083650868N00247428WA0137601520
B1349093650869N00247422WA0137501517
B1349103650870N00247416WA0137401515
B1349113650870N00247410WA0137301514
B1349123650871N00247405WA0137101512
B1349133650871N00247400WA0137001511
B1349143650872N00247394WA0136801509
B1349153650873N00247388WA0136301507
B1349163650873N00247382WA0136001505
B1349173650873N00247377WA0136101504
B1349183650873N00247372WA0136001502
B1349193650872N00247367WA0135801501
B1349203650871N00247362WA0135601498
B1349213650869N00247358WA0135401496
B1349223650868N00247352WA0135201493
B1349233650866N00247346WA0134901490
B1349243650864N00247340WA0134801488
B1349253650862N00247335WA0134701487
B1349263650861N00247329WA0134501486
B1349273650860N00247323WA0134501485
B1349283650859N00247316WA0134401484
B1349293650858N00247310WA0134501484
B1349303650858N00247304WA0134501484
B1349313650859N00247299WA0134501484
B1349323650860N00247293WA0134401484
B1349333650861N00247288WA0134401484
B1349343650862N00247281WA0134101483
B1349353650863N00247275WA0134101482
B1349363650864N00247269WA0134101482
B1349373650866N00247264WA0134201482
B1349383650867N00247259WA0134101482
B1349393650868N00247254WA0133701481
B1349403650870N00247248WA0133601480
B1349413650873N00247242WA0133501479
B1349423650877N00247238WA0133301477
B1349433650882N00247234WA0133401476
B1349443650885N00247231WA0133501476
B1349453650889N00247226WA0133401476
B1349463650892N00247221WA0133101474
B1349473650896N00247216WA0132801472
B1349483650900N00247211WA0132701470
B1349493650904N00247206WA0132701469
B1349503650906N00247201WA0132601469
B1349513650908N00247196WA0132301467
B1349523650909N00247190WA0131901464
B1349533650909N00247183WA0131601461
B1349543650908N00247176WA0131501458
B1349553650906N00247170WA0131401456
B1349563650905N00247164WA0131301455
B1349573650905N00247159WA0131201454
B1349583650904N00247154WA0130901453
B1349593650904N00247147WA0130501451
B1350003650904N00247140WA0130201448
B1350013650904N00247133WA0130201445
B1350023650905N00247126WA0130101444
B1350033650905N00247121WA0130101443
B1350043650906N00247116WA0129801441
B1350053650905N00247110WA0129401439
B1350063650904N00247104WA0129101437
B1350073650903N00247099WA0128801434
B1350083650902N00247092WA0128601432
B1350093650902N00247085WA0128501430
B1350103650901N00247079WA0128601429
B1350113650901N00247073WA0128501428
B1350123650899N00247067WA0128401427
B1350133650897N00247063WA0128301426
B1350143650895N00247059WA0127901424
B1350153650892N00247054WA0127601421
B1350163650889N00247050WA0127501419
B1350173650886N00247045WA0127401417
B1350183650883N00247041WA0127501417
B1350193650881N00247038WA0127401416
B1350203650878N00247035WA0127301415
B1350213650876N00247031WA0127101413
B1350223650874N00247026WA0126801411
B1350233650872N00247022WA0126501409
B1350243650869N00247017WA0126201406
B1350253650865N00247013WA0126001403
B1350263650862N00247009WA0125801401
B1350273650858N00247005WA0125501398
B1350283650854N00247000WA0125301396
B1350293650849N00246995WA0125201394
B1350303650844N00246991WA0125201394
B1350313650840N00246987WA0125301396
B1350323650837N00246983WA0125601397
B1350333650833N00246979WA0126001399
B1350343650830N00246976WA0126201401
B1350353650827N00246973WA0126301403
B1350363650825N00246970WA0126601405
B1350373650823N00246967WA0126901407
B1350383650821N00246965WA0126901409
B1350393650819N00246964WA0126901410
B1350403650816N00246964WA0126901411
B1350413650812N00246964WA0126801410
B1350423650808N00246964WA0126801410
B1350433650804N00246962WA0126801410
B1350443650801N00246959WA0126801410
B1350453650799N00246955WA0126801410
B1350463650798N00246951WA0126701410
B1350473650797N00246946WA0126401408
B1350483650796N00246940WA0126101407
B1350493650795N00246934WA0125901405
B1350503650795N00246926WA0125801403
B1350513650794N00246919WA0126001403
B1350523650794N00246914WA0126201404
B1350533650793N00246910WA0126301404
B1350543650792N00246906WA0126101404
B1350553650790N00246901WA0125801403
B1350563650788N00246896WA0125601400
B1350573650785N00246890WA0125801400
B1350583650783N00246887WA0126401402
B1350593650781N00246887WA0126601404
B1351003650779N00246890WA0126601405
B1351013650777N00246893WA0126501404
B1351023650775N00246896WA0126501405
B1351033650772N00246898WA0126501405
B1351043650769N00246901WA0126701406
B1351053650766N00246903WA0126701407
B1351063650764N00246907WA0126801408
B1351073650762N00246911WA0126901408
B1351083650760N00246917WA0127001409
B1351093650759N00246922WA0127301410
B1351103650760N00246927WA0127501413
B1351113650761N00246932WA0127601414
B1351123650764N00246937WA0127601415
B1351133650769N00246942WA0127501415
B1351143650775N00246946WA0127501414
B1351153650783N00246947WA0127501414
B1351163650790N00246947WA0127701416
B1351173650796N00246944WA0127901418
B1351183650801N00246941WA0127901419
B1351193650805N00246936WA0127901420
B1351203650808N00246929WA0127401420
B1351213650809N00246921WA0127301420
B1351223650808N00246914WA0127501419
B1351233650806N00246908WA0127501419
B1351243650803N00246904WA0127701419
B1351253650801N00246901WA0127801421
B1351263650798N00246900WA0128001421
B1351273650794N00246899WA0128101422
B1351283650791N00246899WA0128201423
B1351293650787N00246899WA0128401424
B1351303650784N00246900WA0128601426
B1351313650781N00246902WA0128701427
B1351323650779N00246905WA0128901429
B1351333650777N00246909WA0129101431
B1351343650777N00246914WA0129301432
B1351353650779N00246919WA0129201432
B1351363650783N00246925WA0129001432
B1351373650788N00246930WA0128701431
B1351383650794N00246933WA0129101431
B1351393650800N00246935WA0129401433
B1351403650806N00246935WA0129601436
B1351413650810N00246934WA0129701438
B1351423650815N00246931WA0129401437
B1351433650820N00246926WA0129301438
B1351443650824N00246920WA0129501437
B1351453650827N00246912WA0129501437
B1351463650828N00246906WA0129701438
B1351473650829N00246900WA0129901438
B1351483650829N00246895WA0130001440
B1351493650828N00246890WA0130101440
B1351503650826N00246885WA0130101441
B1351513650823N00246880WA0129901440
B1351523650818N00246877WA0130001440
B1351533650814N00246874WA0130201441
B1351543650811N00246874WA0130501444
B1351553650808N00246875WA0130601446
B1351563650806N00246876WA0130701448
B1351573650803N00246878WA0130801448
B1351583650800N00246881WA0130801449
B1351593650798N00246885WA0130801449
B1352003650796N00246888WA0130801450
B1352013650795N00246892WA0130801450
B1352023650794N00246897WA0130801450
B1352033650794N00246902WA0130801450
B1352043650795N00246907WA0130801450
B1352053650796N00246913WA0130801450
B1352063650798N00246918WA0131001451
B1352073650800N00246924WA0131101452
B1352083650802N00246928WA0131201453
B1352093650805N00246933WA0131301453
B1352103650809N00246938WA0131301454
B1352113650814N00246941WA0131201454
B1352123650820N00246944WA0131201453
B1352133650826N00246946WA0131501454
B1352143650832N00246946WA0131701457
B1352153650838N00246945WA0132001460
B1352163650842N00246943WA0132101461
B1352173650846N00246939WA0132201462
B1352183650848N00246933WA0132201463
B1352193650849N00246926WA0132001462
B1352203650849N00246918WA0132001462
B1352213650847N00246910WA0132101463
B1352223650845N00246905WA0132401465
B1352233650843N00246900WA0132501467
B1352243650839N00246897WA0132701469
B1352253650835N00246895WA0132601469
B1352263650831N00246895WA0132601469
B1352273650826N00246896WA0132801470
B1352283650823N00246898WA0133001471
B1352293650820N00246900WA0133201474
B1352303650818N00246902WA0133401475
B1352313650817N00246906WA0133401477
B1352323650816N00246911WA0133001477
B1352333650815N00246917WA0132801476
B1352343650815N00246923WA0133101476
B1352353650816N00246930WA0133301476
B1352363650817N00246936WA0133501477
B1352373650820N00246941WA0133701479
B1352383650823N00246944WA0133901481
B1352393650827N00246947WA0134201483
B1352403650832N00246948WA0134401485
B1352413650838N00246948WA0134501486
B1352423650844N00246945WA0134601486
B1352433650849N00246942WA0134901487
B1352443650854N00246938WA0135101489
B1352453650859N00246934WA0135301491
B1352463650862N00246929WA0135601493
B1352473650863N00246923WA0135601495
B1352483650863N00246916WA0135601496
B1352493650862N00246909WA0135601497
B1352503650859N00246903WA0135601497
B1352513650857N00246897WA0135901498
B1352523650854N00246893WA0136101499
B1352533650851N00246889WA0136301502
B1352543650848N00246887WA0136401503
B1352553650844N00246886WA0136501504
B1352563650840N00246886WA0136401505
B1352573650836N00246887WA0136401506
B1352583650832N00246890WA0136401505
B1352593650828N00246892WA0136401505
B1353003650825N00246896WA0136401505
B1353013650823N00246900WA0136301505
B1353023650821N00246904WA0136301505
B1353033650820N00246910WA0136301504
B1353043650819N00246916WA0136301504
B1353053650819N00246922WA0136401504
B1353063650819N00246928WA0136501504
B1353073650819N00246933WA0136601505
B1353083650819N00246938WA0136701506
B1353093650821N00246944WA0136801506
B1353103650823N00246949WA0136801507
B1353113650826N00246954WA0136901507
B1353123650830N00246959WA0136901508
B1353133650834N00246964WA0137101509
B1353143650838N00246968WA0137201510
B1353153650842N00246971WA0137401512
B1353163650847N00246974WA0137501513
B1353173650852N00246978WA0137601514
B1353183650857N00246981WA0137901516
B1353193650862N00246982WA0138301519
B1353203650866N00246981WA0138501522
B1353213650870N00246977WA0138701524
B1353223650874N00246972WA0138701524
B1353233650877N00246965WA0138801525
B1353243650879N00246959WA0139101527
B1353253650879N00246954WA0139401530
B1353263650879N00246948WA0139501533
B1353273650877N00246943WA0139701535
B1353283650874N00246938WA0139701536
B1353293650871N00246933WA0139901537
B1353303650867N00246930WA0140201539
B1353313650863N00246928WA0140501542
B1353323650860N00246929WA0140801545
B1353333650858N00246931WA0140801546
B1353343650856N00246936WA0140701547
B1353353650854N00246942WA0140701547
B1353363650853N00246948WA0140801548
B1353373650853N00246954WA0141001549
B1353383650854N00246958WA0141301552
B1353393650855N00246963WA0141401554
B1353403650858N00246967WA0141401554
B1353413650861N00246973WA0141401554
B1353423650865N00246980WA0141401554
B1353433650869N00246986WA0141601555
B1353443650873N00246991WA0142001557
B1353453650877N00246993WA0142401560
B1353463650882N00246994WA0142701564
B1353473650887N00246993WA0142901565
B1353483650892N00246991WA0143001565
B1353493650897N00246987WA0142901566
B1353503650900N00246981WA0143101567
B1353513650903N00246975WA0143001568
B1353523650904N00246968WA0142901568
B1353533650905N00246961WA0142901569
B1353543650905N00246954WA0143101568
B1353553650905N00246947WA0143201569
B1353563650902N00246941WA0143301570
B1353573650899N00246936WA0143501571
B1353583650895N00246932WA0143701573
B1353593650891N00246929WA0143901576
B1354003650887N00246928WA0144001578
B1354013650882N00246929WA0144101579
B1354023650878N00246932WA0144301580
B1354033650874N00246935WA0144501581
B1354043650871N00246939WA0144801583
B1354053650870N00246943WA0144901585
B1354063650870N00246948WA0145101587
B1354073650871N00246954WA0145101588
B1354083650872N00246960WA0145101588
B1354093650874N00246967WA0145201589
B1354103650876N00246974WA0145401590
B1354113650878N00246981WA0145601591
B1354123650880N00246987WA0145901594
B1354133650882N00246992WA0146201597
B1354143650885N00246995WA0146501600
B1354153650889N00246998WA0146601602
B1354163650894N00246998WA0146701603
B1354173650900N00246996WA0146701602
B1354183650905N00246992WA0146701604
B1354193650908N00246987WA0147001605
B1354203650911N00246981WA0147201607
B1354213650912N00246975WA0147301609
B1354223650911N00246969WA0147501611
B1354233650909N00246963WA0147601612
B1354243650907N00246958WA0147801613
B1354253650903N00246955WA0148001615
B1354263650899N00246955WA0148201617
B1354273650894N00246955WA0148401619
B1354283650889N00246956WA0148601622
B1354293650885N00246959WA0148801624
B1354303650882N00246963WA0149001626
B1354313650880N00246967WA0149201628
B1354323650878N00246973WA0149501630
B1354333650877N00246978WA0149701632
B1354343650877N00246984WA0149901635
B1354353650878N00246989WA0150201638
B1354363650881N00246994WA0150401640
B1354373650884N00246997WA0150601642
B1354383650888N00247000WA0150801644
B1354393650893N00247001WA0151001646
B1354403650898N00247000WA0151201648
B1354413650902N00246998WA0151301651
B1354423650905N00246993WA0151601653
B1354433650907N00246988WA0151801655
B1354443650908N00246982WA0151801657
B1354453650906N00246976WA0152001658
B1354463650904N00246970WA0152301660
B1354473650901N00246966WA0152601663
B1354483650897N00246964WA0153001667
B1354493650893N00246963WA0153201670
B1354503650888N00246963WA0153401671
B1354513650883N00246965WA0153501672
B1354523650879N00246970WA0153501673
B1354533650876N00246975WA0153701674
B1354543650873N00246981WA0154001676
B1354553650871N00246986WA0154301680
B1354563650871N00246992WA0154701683
B1354573650871N00246997WA0154801686
B1354583650873N00247004WA0155001687
B1354593650876N00247010WA0155101688
B1355003650880N00247015WA0155301689
B1355013650885N00247018WA0155401691
B1355023650890N00247020WA0155701693
B1355033650895N00247020WA0156101696
B1355043650899N00247018WA0156401699
B1355053650901N00247015WA0156701702
B1355063650903N00247010WA0156801704
B1355073650903N00247004WA0156901706
B1355083650902N00246998WA0157101707
B1355093650901N00246992WA0157201709
B1355103650898N00246986WA0157201711
B1355113650894N00246981WA0157301712
B1355123650891N00246978WA0157501714
B1355133650886N00246975WA0157701716
B1355143650881N00246974WA0157801717
B1355153650875N00246975WA0157901719
B1355163650870N00246977WA0158201720
B1355173650866N00246980WA0158501723
B1355183650863N00246984WA0158801727
B1355193650862N00246989WA0159101729
B1355203650861N00246994WA0159301731
B1355213650861N00247000WA0159201732
B1355223650862N00247006WA0159201732
B1355233650865N00247013WA0159101733
B1355243650868N00247019WA0159301733
B1355253650871N00247024WA0159401734
B1355263650875N00247027WA0159601736
B1355273650879N00247028WA0159701738
B1355283650883N00247028WA0159801738
B1355293650887N00247027WA0159801738
B1355303650891N00247024WA0159901739
B1355313650894N00247020WA0160101740
B1355323650896N00247016WA0160301741
B1355333650897N00247011WA0160401743
B1355343650898N00247006WA0160601745
B1355353650898N00247004WA0160601746
B1355363650898N00247004WA0160901742
B1355373650902N00247010WA0161101742
B1355383650898N00247011WA0161201746
B1355393650890N00247004WA0161401744
B1355403650879N00246991WA0161601742
B1355413650872N00246989WA0161701738
B1355423650866N00246991WA0161901739
B1355433650862N00246993WA0162101740
B1355443650859N00246997WA0162301742
B1355453650857N00247001WA0162501743
B1355463650856N00247006WA0162601745
B1355473650857N00247012WA0162601747
B1355483650859N00247017WA0162701749
B1355493650863N00247022WA0162801750
B1355503650867N00247025WA0162701752
B1355513650871N00247028WA0162901754
B1355523650876N00247029WA0163101756
B1355533650880N00247030WA0163201759
B1355543650884N00247029WA0163301762
B1355553650888N00247027WA0163501764
B1355563650890N00247023WA0163601765
B1355573650891N00247019WA0163701767
B1355583650892N00247013WA0163501768
B1355593650892N00247008WA0163801770
B1356003650890N00247003WA0164001771
B1356013650888N00246998WA0164201773
B1356023650884N00246994WA0164301775
B1356033650879N00246992WA0164301776
B1356043650874N00246992WA0164401778
B1356053650869N00246995WA0164501779
B1356063650865N00246999WA0164601779
B1356073650862N00247004WA0164601781
B1356083650860N00247010WA0164801782
B1356093650860N00247016WA0164901783
B1356103650861N00247022WA0165001785
B1356113650862N00247027WA0165001786
B1356123650866N00247031WA0165001786
B1356133650870N00247034WA0165001787
B1356143650874N00247036WA0165201787
B1356153650879N00247036WA0165301789
B1356163650883N00247035WA0165401791
B1356173650886N00247032WA0165401791
B1356183650888N00247028WA0165501792
B1356193650889N00247022WA0165401792
B1356203650889N00247016WA0165401793
B1356213650888N00247011WA0165601793
B1356223650885N00247006WA0165701795
B1356233650882N00247002WA0165901797
B1356243650879N00247000WA0166001799
B1356253650875N00247000WA0166001800
B1356263650870N00247001WA0165901800
B1356273650865N00247005WA0165801800
B1356283650861N00247010WA0165901799
B1356293650857N00247016WA0166001800
B1356303650855N00247022WA0166101800
B1356313650855N00247028WA0166301802
B1356323650855N00247033WA0166301803
B1356333650856N00247038WA0166401803
B1356343650858N00247044WA0166301803
B1356353650862N00247049WA0166301803
B1356363650867N00247052WA0166401802
B1356373650873N00247053WA0166501804
B1356383650877N00247053WA0166501807
B1356393650881N00247051WA0166601809
B1356403650885N00247050WA0166801811
B1356413650889N00247049WA0166901812
B1356423650893N00247047WA0166801812
B1356433650897N00247043WA0166801812
B1356443650901N00247039WA0166701811
B1356453650904N00247034WA0167001812
B1356463650907N00247030WA0167201814
B1356473650909N00247027WA0167401815
B1356483650911N00247023WA0167501816
B1356493650912N00247019WA0167501817
B1356503650914N00247014WA0167201816
B1356513650916N00247008WA0167101815
B1356523650916N00247003WA0167101814
B1356533650916N00246998WA0167001814
B1356543650916N00246993WA0167001813
B1356553650915N00246988WA0166601812
B1356563650915N00246982WA0166301809
B1356573650915N00246977WA0166401807
B1356583650916N00246971WA0166301806
B1356593650917N00246966WA0166201804
B1357003650919N00246960WA0166401804
B1357013650920N00246954WA0166401804
B1357023650920N00246949WA0166301804
B1357033650920N00246944WA0166501804
B1357043650920N00246938WA0166501804
B1357053650920N00246933WA0166501805
B1357063650919N00246928WA0166401805
B1357073650918N00246922WA0166401805
B1357083650917N00246916WA0166301804
B1357093650916N00246910WA0166201803
B1357103650915N00246905WA0166201803
B1357113650914N00246900WA0166101803
B1357123650913N00246896WA0166101802
B1357133650912N00246890WA0165801801
B1357143650911N00246884WA0165601798
B1357153650910N00246878WA0165401796
B1357163650909N00246872WA0165301795
B1357173650908N00246866WA0165201794
B1357183650906N00246860WA0165001793
B1357193650904N00246855WA0164901791
B1357203650903N00246849WA0164801789
B1357213650901N00246843WA0164801789
B1357223650900N00246837WA0164801789
B1357233650898N00246832WA0164701789
B1357243650895N00246826WA0164601789
B1357253650893N00246820WA0164601788
B1357263650890N00246813WA0164501786
B1357273650888N00246808WA0164501786
B1357283650887N00246803WA0164601787
B1357293650886N00246799WA0164601787
B1357303650885N00246796WA0164501787
B1357313650883N00246792WA0164301786
B1357323650881N00246787WA0164101784
B1357333650878N00246781WA0163901782
B1357343650877N00246776WA0163801780
B1357353650876N00246771WA0163801779
B1357363650875N00246766WA0163601778
B1357373650875N00246760WA0163401777
B1357383650874N00246754WA0162901775
B1357393650873N00246748WA0162801773
B1357403650872N00246741WA0163101772
B1357413650873N00246734WA0163101771
B1357423650874N00246727WA0163001771
B1357433650875N00246721WA0163001770
B1357443650875N00246714WA0163001770
B1357453650874N00246708WA0163001770
B1357463650874N00246701WA0163001770
B1357473650873N00246694WA0163101770
B1357483650873N00246688WA0163301771
B1357493650873N00246682WA0163501773
B1357503650873N00246676WA0163601774
B1357513650874N00246670WA0163601775
B1357523650874N00246664WA0163601776
B1357533650874N00246658WA0163701776
B1357543650873N00246651WA0163701777
B1357553650872N00246645WA0163901778
B1357563650871N00246639WA0164201781
B1357573650871N00246634WA0164601783
B1357583650870N00246628WA0164601785
B1357593650870N00246623WA0164801787
B1358003650870N00246618WA0164901789
B1358013650869N00246613WA0165001789
B1358023650867N00246608WA0165101790
B1358033650866N00246603WA0165201792
B1358043650865N00246597WA0165401794
B1358053650866N00246592WA0165401795
B1358063650866N00246586WA0165601796
B1358073650865N00246581WA0165501796
B1358083650865N00246575WA0165501796
B1358093650864N00246568WA0165501797
B1358103650864N00246561WA0165401796
B1358113650863N00246554WA0165401796
B1358123650863N00246546WA0165401796
B1358133650862N00246539WA0165301795
B1358143650861N00246532WA0165101794
B1358153650859N00246526WA0164701792
B1358163650855N00246519WA0164401787
B1358173650850N00246512WA0163901784
B1358183650845N00246506WA0163701782
B1358193650841N00246502WA0164001781
B1358203650836N00246497WA0164001780
B1358213650833N00246492WA0163901779
B1358223650830N00246484WA0163401778
B1358233650826N00246476WA0163201775
B1358243650821N00246469WA0163101773
B1358253650816N00246463WA0163101772
B1358263650812N00246458WA0163001772
B1358273650807N00246452WA0162801771
B1358283650803N00246446WA0162701769
B1358293650799N00246440WA0162401767
B1358303650794N00246433WA0162301765
B1358313650790N00246427WA0162301765
B1358323650786N00246421WA0162201764
B1358333650782N00246415WA0162001763
B1358343650778N00246409WA0161801761
B1358353650773N00246402WA0161501759
B1358363650769N00246395WA0161301756
B1358373650765N00246387WA0161201755
B1358383650761N00246380WA0161201754
B1358393650758N00246374WA0161201753
B1358403650756N00246367WA0161101753
B1358413650753N00246361WA0161001752
B1358423650750N00246354WA0160801750
B1358433650747N00246347WA0160701748
B1358443650744N00246340WA0160601747
B1358453650741N00246333WA0160501745
B1358463650739N00246327WA0160401744
B1358473650738N00246321WA0160201743
B1358483650736N00246315WA0160101742
B1358493650734N00246308WA0159901740
B1358503650732N00246301WA0159701738
B1358513650730N00246294WA0159401736
B1358523650729N00246287WA0159301734
B1358533650729N00246281WA0159201733
B1358543650728N00246276WA0159101732
B1358553650727N00246270WA0158801730
B1358563650727N00246262WA0158001728
B1358573650725N00246255WA0158001724
B1358583650724N00246248WA0158101722
B1358593650723N00246242WA0158101722
B1359003650722N00246237WA0158201723
B1359013650721N00246233WA0158101723
B1359023650721N00246230WA0158001722
B1359033650719N00246225WA0157901721
B1359043650716N00246221WA0157801720
B1359053650714N00246218WA0157801719
B1359063650712N00246214WA0157901720
B1359073650710N00246211WA0157801720
B1359083650708N00246207WA0157701719
B1359093650704N00246204WA0157401718
B1359103650701N00246199WA0157201716
B1359113650697N00246195WA0157201715
B1359123650695N00246190WA0157201714
B1359133650693N00246186WA0157201714
B1359143650692N00246183WA0157201714
B1359153650690N00246179WA0157001712
B1359163650688N00246174WA0156701710
B1359173650687N00246167WA0156501708
B1359183650685N00246160WA0156401706
B1359193650684N00246153WA0156301704
B1359203650682N00246145WA0156601704
B1359213650680N00246139WA0156901705
B1359223650677N00246134WA0157101708
B1359233650675N00246131WA0157201711
B1359243650673N00246126WA0157201712
B1359253650670N00246120WA0157101711
B1359263650668N00246114WA0157101711
B1359273650665N00246107WA0157201711
B1359283650662N00246102WA0157201712
B1359293650659N00246097WA0157201713
B1359303650657N00246092WA0157101713
B1359313650654N00246086WA0156801712
B1359323650652N00246079WA0156601710
B1359333650649N00246072WA0156501709
B1359343650646N00246068WA0156401708
B1359353650642N00246064WA0156101706
B1359363650638N00246060WA0155701704
B1359373650635N00246055WA0155201701
B1359383650632N00246050WA0155201699
B1359393650630N00246044WA0155401698
B1359403650630N00246039WA0155501697
B1359413650629N00246034WA0155301696
B1359423650628N00246027WA0155101694
B1359433650626N00246020WA0154901692
B1359443650625N00246012WA0154801690
B1359453650625N00246005WA0154701689
B1359463650625N00245998WA0154801688
B1359473650625N00245991WA0154701688
B1359483650626N00245985WA0154801688
B1359493650626N00245978WA0154701687
B1359503650626N00245971WA0154601686
B1359513650626N00245964WA0154501686
B1359523650628N00245957WA0154601686
B1359533650629N00245951WA0154601686
B1359543650631N00245945WA0154601686
B1359553650633N00245939WA0154501686
B1359563650634N00245931WA0154301685
B1359573650635N00245924WA0154201684
B1359583650636N00245916WA0154101683
B1359593650638N00245910WA0154101682
B1400003650639N00245903WA0154001681
B1400013650640N00245897WA0153901681
B1400023650641N00245889WA0153601679
B1400033650642N00245882WA0153401677
B1400043650642N00245874WA0153301675
B1400053650642N00245866WA0153201674
B1400063650642N00245859WA0153101673
B1400073650642N00245852WA0152901671
B1400113650641N00245824WA0152300000
B1400123650642N00245817WA0152101663
B1400133650642N00245811WA0151801661
B1400143650642N00245803WA0151501658
B1400153650642N00245795WA0151401655
B1400163650642N00245787WA0151301653
B1400173650641N00245780WA0151301653
B1400183650639N00245773WA0151401655
B1400193650637N00245767WA0151501656
B1400203650635N00245762WA0151401656
B1400213650634N00245756WA0151401656
B1400223650633N00245749WA0151301655
B1400233650632N00245742WA0151301654
B1400243650631N00245735WA0151301655
B1400253650630N00245728WA0151301655
B1400263650628N00245721WA0151201654
B1400273650627N00245714WA0151201653
B1400283650625N00245706WA0151101653
B1400293650624N00245699WA0151001651
B1400303650623N00245692WA0151001651
B1400313650621N00245686WA0150701650
B1400323650619N00245679WA0150401649
B1400333650618N00245672WA0150101647
B1400343650617N00245664WA0150101643
B1400353650616N00245657WA0150101641
B1400363650615N00245650WA0150001640
B1400373650614N00245643WA0149901639
B1400383650614N00245636WA0149701641
B1400393650613N00245627WA0149401641
B1400403650612N00245618WA0149301641
B1400413650611N00245610WA0149201639
B1400423650610N00245604WA0149301639
B1400433650608N00245598WA0149301639
B1400443650607N00245592WA0149201638
B1400453650606N00245584WA0149001637
B1400463650605N00245576WA0148701635
B1400473650603N00245568WA0148601634
B1400483650600N00245560WA0148601633
B1400493650598N00245554WA0148601634
B1400503650597N00245548WA0148601634
B1400513650595N00245541WA0148301632
B1400523650593N00245533WA0148101630
B1400533650592N00245525WA0148001628
B1400543650590N00245518WA0148001627
B1400553650588N00245511WA0148101627
B1400563650587N00245505WA0148101627
B1400573650586N00245499WA0147901627
B1400583650585N00245490WA0147601627
B1400593650583N00245482WA0147501626
B1401003650581N00245474WA0147401626
B1401013650579N00245468WA0147301625
B1401023650578N00245461WA0147201625
B1401033650576N00245454WA0147101624
B1401043650575N00245447WA0146901622
B1401053650575N00245439WA0146801620
B1401063650573N00245430WA0146701618
B1401073650572N00245422WA0146601617
B1401083650571N00245417WA0146601615
B1401093650570N00245411WA0146601614
B1401103650568N00245405WA0146401616
B1401113650567N00245399WA0146201616
B1401123650565N00245389WA0146001616
B1401133650564N00245381WA0145801615
B1401143650563N00245374WA0145601614
B1401153650561N00245368WA0145501613
B1401163650560N00245361WA0145501611
B1401173650559N00245354WA0145301609
B1401183650558N00245347WA0145101606
B1401193650557N00245340WA0145001604
B1401203650555N00245332WA0144801602
B1401213650554N00245325WA0144701600
B1401223650553N00245318WA0144601598
B1401233650551N00245311WA0144601596
B1401243650549N00245305WA0144301595
B1401253650547N00245297WA0143901593
B1401263650546N00245290WA0144001591
B1401273650544N00245284WA0144101589
B1401283650542N00245277WA0144101589
B1401293650541N00245271WA0144201588
B1401303650540N00245264WA0144101587
B1401313650540N00245257WA0144001586
B1401323650540N00245250WA0144001585
B1401333650540N00245244WA0144001584
B1401343650539N00245237WA0143901584
B1401353650539N00245231WA0143901583
B1401363650539N00245224WA0143801582
B1401373650539N00245217WA0143701581
B1401383650538N00245211WA0143601580
B1401393650538N00245205WA0143601579
B1401403650538N00245199WA0143501578
B1401413650538N00245192WA0143401577
B1401423650538N00245186WA0143201576
B1401433650539N00245179WA0143101574
B1401443650539N00245172WA0142901572
B1401453650540N00245165WA0142801570
B1401463650540N00245158WA0142701569
B1401473650541N00245152WA0142701568
B1401483650542N00245146WA0142601567
B1401493650542N00245140WA0142501566
B1401503650543N00245133WA0142401565
B1401513650544N00245127WA0142201564
B1401523650544N00245120WA0142101566
B1401533650545N00245113WA0141901566
B1401543650545N00245107WA0141901565
B1401553650546N00245101WA0142001565
B1401563650547N00245096WA0142001565
B1401573650547N00245090WA0142101565
B1401583650547N00245084WA0142101565
B1401593650547N00245078WA0142201565
B1402003650548N00245074WA0142201565
B1402013650548N00245068WA0142001565
B1402023650547N00245061WA0141801564
B1402033650547N00245054WA0141701564
B1402043650548N00245048WA0141601563
B1402053650548N00245042WA0141601562
B1402063650549N00245037WA0141601562
B1402073650550N00245032WA0141601562
B1402083650551N00245027WA0141501562
B1402103650553N00245016WA0141200000
B1402113650553N00245010WA0141201561
B1402123650554N00245005WA0141101560
B1402133650555N00244999WA0140901559
B1402143650556N00244994WA0140801558
B1402153650557N00244988WA0140601556
B1402163650558N00244982WA0140501554
B1402173650558N00244976WA0140401555
B1402183650559N00244971WA0140401555
B1402193650559N00244966WA0140401554
B1402203650560N00244960WA0140301554
B1402213650560N00244955WA0140301554
B1402223650562N00244949WA0140101553
B1402233650563N00244943WA0140001553
B1402243650565N00244937WA0139901553
B1402253650567N00244932WA0140001553
B1402263650568N00244927WA0140001553
B1402273650569N00244923WA0139901552
B1402283650571N00244917WA0139701550
B1402293650572N00244911WA0139601550
B1402303650573N00244905WA0139501550
B1402313650574N00244898WA0139501549
B1402323650576N00244893WA0139501549
B1402333650577N00244888WA0139401548
B1402343650578N00244883WA0139201547
B1402353650579N00244877WA0138701545
B1402363650581N00244870WA0138401543
B1402373650583N00244864WA0138601541
B1402383650584N00244859WA0138701539
B1402393650585N00244853WA0138701538
B1402403650586N00244848WA0138701538
B1402413650587N00244843WA0138601538
B1402423650588N00244837WA0138401538
B1402433650589N00244831WA0138301538
B1402443650589N00244825WA0138301537
B1402453650589N00244820WA0138301537
B1402463650590N00244815WA0138201536
B1402473650589N00244809WA0138001536
B1402483650589N00244802WA0137801535
B1402493650589N00244795WA0137701534
B1402503650589N00244789WA0137601534
B1402513650590N00244783WA0137501533
B1402523650591N00244778WA0137501533
B1402533650591N00244773WA0137401532
B1402543650592N00244767WA0137201531
B1402553650593N00244761WA0137101529
B1402563650594N00244755WA0137001527
B1402573650595N00244749WA0137001525
B1402583650596N00244744WA0136901523
B1402593650597N00244740WA0136801525
B1403003650597N00244733WA0136501524
B1403013650598N00244727WA0136301524
B1403023650599N00244720WA0136101523
B1403033650604N00244717WA0135901522
B1403043650603N00244713WA0135901521
B1403053650603N00244702WA0135901524
B1403063650601N00244694WA0136101518
B1403073650599N00244688WA0136301516
B1403083650597N00244686WA0136601515
B1403093650595N00244684WA0136901517
B1403103650593N00244682WA0137001517
B1403113650590N00244681WA0137101518
B1403123650587N00244682WA0137001517
B1403133650582N00244682WA0137001516
B1403143650577N00244683WA0136901516
B1403153650572N00244685WA0137201516
B1403163650568N00244688WA0137401518
B1403173650565N00244693WA0137501519
B1403183650563N00244697WA0137501520
B1403193650562N00244703WA0137501520
B1403203650563N00244708WA0137401520
B1403213650565N00244713WA0137201519
B1403223650569N00244716WA0137201517
B1403233650574N00244717WA0137001515
B1403243650578N00244717WA0136801514
B1403253650582N00244715WA0136801513
B1403263650586N00244714WA0136601512
B1403273650591N00244712WA0136401511
B1403283650595N00244709WA0136501510
B1403293650600N00244705WA0136501509
B1403303650604N00244700WA0136501508
B1403313650608N00244696WA0136501508
B1403323650612N00244692WA0136801508
B1403333650615N00244689WA0137001510
B1403343650619N00244687WA0137101510
B1403353650622N00244685WA0137201511
B1403363650624N00244682WA0137201511
B1403373650626N00244677WA0137001510
B1403383650627N00244672WA0137001510
B1403393650626N00244667WA0137001510
B1403403650625N00244663WA0137101511
B1403413650622N00244659WA0137201512
B1403423650619N00244657WA0137101512
B1403433650615N00244655WA0137101512
B1403443650611N00244655WA0137101513
B1403453650607N00244656WA0137101513
B1403463650602N00244658WA0136801513
B1403473650598N00244661WA0137001511
B1403483650594N00244665WA0137101511
B1403493650591N00244670WA0137201511
B1403503650589N00244676WA0137301511
B1403513650589N00244682WA0137301512
B1403523650589N00244687WA0137301512
B1403533650591N00244693WA0137201512
B1403543650594N00244698WA0137101511
B1403553650597N00244702WA0137001510
B1403563650601N00244705WA0136901510
B1403573650606N00244708WA0136601510
B1403583650610N00244710WA0136601509
B1403593650615N00244711WA0136701509
B1404003650620N00244710WA0136601507
B1404013650625N00244709WA0136501506
B1404023650631N00244707WA0136401505
B1404033650637N00244706WA0136401504
B1404043650642N00244705WA0136601505
B1404053650648N00244705WA0136701506
B1404063650652N00244704WA0136801507
B1404073650657N00244702WA0136901508
B1404083650661N00244698WA0137001508
B1404093650665N00244695WA0137001509
B1404103650670N00244691WA0137101510
B1404113650674N00244686WA0137201510
B1404123650678N00244682WA0137301511
B1404133650682N00244678WA0137401513
B1404143650687N00244675WA0137501513
B1404153650690N00244672WA0137601516
B1404163650694N00244669WA0137601517
B1404173650695N00244666WA0137501517
B1404183650696N00244661WA0137201515
B1404193650697N00244655WA0136801512
B1404203650698N00244648WA0136501509
B1404213650699N00244642WA0136401507
B1404223650702N00244636WA0136401506
B1404233650705N00244631WA0136401507
B1404243650707N00244627WA0136901508
B1404253650707N00244624WA0136801509
B1404263650706N00244619WA0136301508
B1404273650705N00244613WA0135801505
B1404283650706N00244606WA0135701503
B1404293650708N00244600WA0135701501
B1404303650710N00244595WA0135701501
B1404313650711N00244590WA0135701500
B1404323650711N00244584WA0135601500
B1404333650711N00244578WA0135601499
B1404343650711N00244572WA0135801499
B1404353650711N00244567WA0136001499
B1404363650713N00244562WA0136101501
B1404373650716N00244557WA0136201502
B1404383650719N00244553WA0136401504
B1404393650721N00244549WA0136601505
B1404403650723N00244545WA0136601507
B1404413650724N00244540WA0136701507
B1404423650723N00244534WA0136701507
B1404433650722N00244528WA0136801507
B1404443650719N00244523WA0136901508
B1404453650716N00244518WA0137101509
B1404463650713N00244516WA0137301511
B1404473650709N00244516WA0137401513
B1404483650706N00244515WA0137501514
B1404493650701N00244516WA0137501514
B1404503650696N00244517WA0137401514
B1404513650692N00244521WA0137401513
B1404523650689N00244527WA0137501513
B1404533650687N00244533WA0137601514
B1404543650686N00244539WA0137801515
B1404553650686N00244545WA0138101517
B1404563650687N00244550WA0138201519
B1404573650690N00244555WA0137801518
B1404583650695N00244557WA0137701517
B1404593650701N00244558WA0137501515
B1405003650707N00244557WA0137501514
B1405013650713N00244556WA0137501514
B1405023650718N00244553WA0137501514
B1405033650722N00244550WA0137401514
B1405043650727N00244546WA0137401514
B1405053650732N00244542WA0137301513
B1405063650738N00244537WA0137201512
B1405073650744N00244531WA0137401511
B1405083650749N00244526WA0137701513
B1405093650752N00244521WA0138101515
B1405103650754N00244515WA0138501518
B1405113650754N00244510WA0138701521
B1405123650752N00244504WA0138801522
B1405133650749N00244500WA0138801523
B1405143650744N00244497WA0138901524
B1405153650740N00244496WA0139001526
B1405163650736N00244498WA0139001527
B1405173650732N00244502WA0139101528
B1405183650730N00244507WA0139201529
B1405193650730N00244512WA0139401531
B1405203650730N00244517WA0139601533
B1405213650731N00244521WA0139801535
B1405223650734N00244526WA0140001537
B1405233650737N00244530WA0140001539
B1405243650741N00244533WA0140001539
B1405253650745N00244536WA0139901540
B1405263650751N00244538WA0139701540
B1405273650756N00244539WA0139801540
B1405283650761N00244541WA0140101540
B1405293650766N00244541WA0140101541
B1405303650771N00244542WA0140101541
B1405313650778N00244542WA0140101541
B1405323650784N00244542WA0140101541
B1405333650789N00244541WA0140301542
B1405343650794N00244540WA0140401543
B1405353650799N00244538WA0140401544
B1405363650804N00244535WA0140301544
B1405373650810N00244531WA0140201544
B1405383650814N00244526WA0140201544
B1405393650818N00244521WA0140301544
B1405403650821N00244515WA0140301544
B1405413650824N00244510WA0140001543
B1405423650826N00244503WA0139801543
B1405433650827N00244496WA0139801542
B1405443650828N00244489WA0140001541
B1405453650829N00244481WA0140201542
B1405463650830N00244473WA0140401544
B1405473650831N00244465WA0140701546
B1405483650831N00244458WA0140901548
B1405493650832N00244452WA0141201550
B1405503650831N00244445WA0141501553
B1405513650830N00244440WA0141601555
B1405523650827N00244435WA0141601557
B1405533650823N00244432WA0141601558
B1405543650819N00244431WA0141701559
B1405553650816N00244432WA0141801559
B1405563650813N00244435WA0141801560
B1405573650811N00244439WA0141801560
B1405583650810N00244444WA0141901561
B1405593650810N00244449WA0142001562
B1406003650812N00244454WA0142401563
B1406013650816N00244457WA0142601565
B1406023650821N00244459WA0142601567
B1406033650828N00244458WA0142601567
B1406043650834N00244455WA0142701567
B1406053650839N00244450WA0142901568
B1406063650843N00244443WA0143001569
B1406073650846N00244436WA0143101570
B1406083650847N00244428WA0143301571
B1406093650847N00244420WA0143301572
B1406103650846N00244413WA0143401573
B1406113650844N00244407WA0143401573
B1406123650841N00244401WA0143001573
B1406133650837N00244396WA0143301574
B1406143650833N00244394WA0143501575
B1406153650829N00244395WA0143501575
B1406163650826N00244398WA0143301574
B1406173650822N00244402WA0143301573
B1406183650818N00244406WA0143301573
B1406193650816N00244411WA0143501574
B1406203650814N00244416WA0143601574
B1406213650814N00244421WA0143601575
B1406223650816N00244426WA0143701576
B1406233650818N00244431WA0143701576
B1406243650822N00244435WA0143701575
B1406253650827N00244437WA0143701576
B1406263650833N00244439WA0143901577
B1406273650839N00244439WA0144001578
B1406283650845N00244439WA0144301580
B1406293650849N00244438WA0144601584
B1406303650853N00244435WA0144701586
B1406313650857N00244430WA0144701587
B1406323650861N00244424WA0144501586
B1406333650865N00244417WA0144101586
B1406343650869N00244409WA0144501586
B1406353650871N00244402WA0144901587
B1406363650872N00244397WA0145201590
B1406373650871N00244392WA0145301592
B1406383650870N00244387WA0145301593
B1406393650868N00244381WA0145201592
B1406403650865N00244376WA0145201591
B1406413650861N00244370WA0145101591
B1406423650858N00244364WA0145101591
B1406433650854N00244358WA0145101591
B1406443650851N00244353WA0145201592
B1406453650848N00244348WA0145401593
B1406463650845N00244344WA0145401594
B1406473650842N00244339WA0145101595
B1406483650838N00244335WA0144801595
B1406493650834N00244332WA0145001594
B1406503650829N00244329WA0145001594
B1406513650825N00244327WA0144801592
B1406523650821N00244324WA0144401591
B1406533650816N00244321WA0144201589
B1406543650812N00244318WA0144401588
B1406553650808N00244315WA0144501588
B1406563650804N00244312WA0144501588
B1406573650801N00244310WA0144301587
B1406583650797N00244307WA0144201586
B1406593650794N00244304WA0144101585
B1407003650790N00244300WA0144101584
B1407013650787N00244295WA0143901583
B1407023650783N00244292WA0143901582
B1407033650779N00244288WA0143801581
B1407043650775N00244285WA0143901581
B1407053650771N00244282WA0144101582
B1407063650768N00244280WA0144201583
B1407073650765N00244279WA0144201583
B1407083650762N00244276WA0144101583
B1407093650759N00244273WA0143901582
B1407103650755N00244268WA0143801580
B1407113650752N00244263WA0143701579
B1407123650750N00244258WA0143701579
B1407133650748N00244253WA0143701578
B1407143650745N00244248WA0143701578
B1407153650741N00244243WA0143701577
B1407163650738N00244238WA0143701577
B1407173650735N00244233WA0143801579
B1407183650733N00244229WA0143901580
B1407193650731N00244224WA0143901581
B1407203650729N00244219WA0143801581
B1407213650726N00244214WA0143801580
B1407223650723N00244209WA0143801579
B1407233650720N00244204WA0143801580
B1407243650718N00244199WA0143801580
B1407253650716N00244193WA0143801580
B1407263650713N00244188WA0143701580
B1407273650710N00244183WA0143401580
B1407283650707N00244178WA0143401579
B1407293650704N00244172WA0143601579
B1407303650702N00244166WA0143801580
B1407313650701N00244160WA0144001581
B1407323650699N00244155WA0144101582
B1407333650698N00244151WA0144101583
B1407343650695N00244147WA0144101583
B1407353650693N00244142WA0143901583
B1407363650690N00244136WA0143801582
B1407373650687N00244131WA0143801581
B1407383650685N00244125WA0143801581
B1407393650684N00244119WA0143801581
B1407403650682N00244114WA0143801581
B1407413650680N00244109WA0143701580
B1407423650678N00244104WA0143501579
B1407433650676N00244099WA0143301578
B1407443650674N00244093WA0143201576
B1407453650673N00244087WA0142901575
B1407463650672N00244081WA0142901574
B1407473650671N00244075WA0142901573
B1407483650670N00244069WA0142601571
B1407493650669N00244063WA0142401569
B1407503650668N00244057WA0142201566
B1407513650667N00244050WA0142101565
B1407523650666N00244044WA0141901564
B1407533650665N00244039WA0141801563
B1407543650665N00244035WA0141601561
B1407553650663N00244029WA0141301559
B1407563650662N00244022WA0141001556
B1407573650661N00244014WA0140801553
B1407583650660N00244006WA0140801551
B1407593650660N00244000WA0140801551
B1408003650659N00243994WA0140701552
B1408013650659N00243989WA0140501551
B1408023650659N00243983WA0140301549
B1408033650659N00243976WA0140001547
B1408043650659N00243969WA0139801545
B1408053650659N00243963WA0139701544
B1408063650660N00243958WA0139701544
B1408073650661N00243953WA0139601543
B1408083650662N00243947WA0139501541
B1408093650663N00243941WA0139301539
B1408103650664N00243934WA0139001536
B1408113650664N00243927WA0138801534
B1408123650664N00243920WA0138801532
B1408133650665N00243914WA0138701531
B1408143650665N00243908WA0138601530
B1408153650665N00243901WA0138201529
B1408163650666N00243893WA0138001527
B1408173650666N00243886WA0138001526
B1408183650667N00243879WA0138101525
B1408193650668N00243872WA0138001524
B1408203650668N00243865WA0138001523
B1408213650668N00243858WA0137901522
B1408223650668N00243851WA0137701521
B1408233650668N00243845WA0137601521
B1408243650668N00243838WA0137501519
B1408253650668N00243831WA0137401518
B1408263650668N00243823WA0137301517
B1408273650668N00243816WA0137201516
B1408283650668N00243809WA0137201515
B1408293650668N00243802WA0137101515
B1408303650668N00243796WA0137001514
B1408313650668N00243789WA0136901514
B1408323650668N00243781WA0136801514
B1408333650668N00243773WA0136701513
B1408343650668N00243766WA0136601512
B1408353650667N00243759WA0136601512
B1408363650667N00243752WA0136501511
B1408373650667N00243746WA0136301510
B1408383650667N00243739WA0136201508
B1408393650668N00243731WA0136201507
B1408403650669N00243724WA0136201506
B1408413650669N00243718WA0136201505
B1408423650670N00243711WA0136101504
B1408433650670N00243705WA0136001503
B1408443650670N00243698WA0135901502
B1408453650669N00243691WA0135901501
B1408463650669N00243684WA0135801500
B1408473650669N00243677WA0135801500
B1408483650669N00243670WA0135801500
B1408493650669N00243664WA0135701500
B1408503650669N00243657WA0135701499
B1408513650668N00243650WA0135601498
B1408523650668N00243643WA0135701498
B1408533650667N00243637WA0135701498
B1408543650666N00243631WA0135701499
B1408553650665N00243625WA0135801499
B1408563650663N00243619WA0135701499
B1408573650661N00243613WA0135601499
B1408583650658N00243607WA0135601498
B1408593650655N00243601WA0135501497
B1409003650652N00243595WA0135401496
B1409013650649N00243589WA0135301495
B1409023650645N00243583WA0135201494
B1409033650642N00243577WA0135201494
B1409043650639N00243571WA0135201494
B1409053650635N00243565WA0135201494
B1409063650633N00243560WA0135201494
B1409073650630N00243554WA0135101493
B1409083650627N00243548WA0134901492
B1409093650623N00243541WA0134701491
B1409103650620N00243534WA0134601489
B1409113650617N00243527WA0134601487
B1409123650614N00243520WA0134401486
B1409133650611N00243513WA0134301485
B1409143650608N00243507WA0134301483
B1409153650605N00243500WA0134201483
B1409163650603N00243495WA0134101482
B1409173650600N00243489WA0133901481
B1409183650597N00243483WA0133701479
B1409193650594N00243477WA0133701477
B1409203650590N00243470WA0133701476
B1409213650587N00243464WA0133701475
B1409223650584N00243458WA0133501474
B1409233650581N00243452WA0133501474
B1409243650578N00243445WA0133401473
B1409253650575N00243438WA0133201472
B1409263650572N00243432WA0133101471
B1409273650570N00243425WA0133101470
B1409283650567N00243419WA0133001469
B1409293650564N00243412WA0132901469
B1409303650562N00243405WA0132801468
B1409313650560N00243398WA0132801468
B1409323650557N00243391WA0132701467
B1409333650555N00243385WA0132601467
B1409343650552N00243378WA0132501466
B1409353650550N00243371WA0132301465
B1409363650547N00243364WA0132201463
B1409373650544N00243357WA0132101463
B1409383650541N00243350WA0132101462
B1409393650539N00243344WA0132001461
B1409403650536N00243337WA0131801460
B1409413650533N00243330WA0131701458
B1409423650531N00243323WA0131601457
B1409433650529N00243316WA0131501456
B1409443650526N00243309WA0131401455
B1409453650525N00243302WA0131301454
B1409463650523N00243295WA0131201453
B1409473650521N00243288WA0131101452
B1409483650518N00243281WA0131001451
B1409493650516N00243274WA0130901450
B1409503650513N00243267WA0130701449
B1409513650510N00243260WA0130401447
B1409523650507N00243253WA0130201445
B1409533650504N00243246WA0130001443
B1409543650500N00243240WA0129901441
B1409553650496N00243235WA0129901440
B1409563650492N00243230WA0129701438
B1409573650489N00243224WA0129501438
B1409583650487N00243218WA0129401436
B1409593650484N00243212WA0129201435
B1410003650481N00243206WA0129101434
B1410013650478N00243200WA0128901432
B1410023650475N00243194WA0128701430
B1410033650472N00243188WA0128601429
B1410043650470N00243182WA0128501428
B1410053650468N00243175WA0128401426
B1410063650466N00243169WA0128201425
B1410073650464N00243163WA0128101423
B1410083650463N00243156WA0128001422
B1410093650461N00243150WA0127901421
B1410103650460N00243144WA0127901420
B1410113650460N00243138WA0127701420
B1410123650459N00243132WA0127601418
B1410133650458N00243126WA0127401417
B1410143650457N00243119WA0127201415
B1410153650457N00243112WA0127101414
B1410163650457N00243106WA0127101413
B1410173650457N00243101WA0127101412
B1410183650457N00243095WA0127101412
B1410193650457N00243090WA0127001411
B1410203650456N00243084WA0126901410
B1410213650456N00243078WA0126601408
B1410223650455N00243071WA0126501406
B1410233650455N00243064WA0126401404
B1410243650455N00243058WA0126201403
B1410253650455N00243052WA0126001402
B1410263650456N00243046WA0125901401
B1410273650457N00243041WA0125801400
B1410283650457N00243034WA0125801398
B1410293650458N00243028WA0125601396
B1410303650460N00243021WA0125601396
B1410313650461N00243016WA0125501396
B1410323650461N00243011WA0125501396
B1410333650461N00243006WA0125401396
B1410343650460N00243000WA0125101394
B1410353650461N00242992WA0124701392
B1410363650462N00242985WA0124501389
B1410373650464N00242978WA0124401387
B1410383650464N00242971WA0124301386
B1410393650464N00242965WA0124201385
B1410403650464N00242959WA0124101383
B1410413650465N00242953WA0123801382
B1410423650465N00242945WA0123601379
B1410433650465N00242937WA0123501377
B1410443650464N00242930WA0123401375
B1410453650463N00242923WA0123301375
B1410463650462N00242916WA0123301374
B1410473650462N00242910WA0123101373
B1410483650462N00242903WA0122901372
B1410493650462N00242896WA0122701370
B1410503650463N00242889WA0122601368
B1410513650464N00242883WA0122501367
B1410523650465N00242877WA0122401367
B1410533650466N00242871WA0122301365
B1410543650467N00242865WA0122301364
B1410553650469N00242859WA0122201363
B1410563650470N00242852WA0122201362
B1410573650471N00242847WA0122101362
B1410583650472N00242841WA0122001361
B1410593650473N00242835WA0121801360
B1411003650474N00242829WA0121601358
B1411013650474N00242821WA0120801355
B1411023650474N00242814WA0120901353
B1411033650474N00242807WA0121301352
B1411043650474N00242801WA0121201351
B1411053650475N00242794WA0121101351
B1411063650475N00242788WA0121001350
B1411073650475N00242781WA0121001349
B1411083650476N00242774WA0120801348
B1411093650476N00242767WA0120701346
B1411103650477N00242760WA0120501345
B1411113650479N00242754WA0120201343
B1411123650480N00242748WA0119901340
B1411133650482N00242742WA0119701337
B1411143650483N00242736WA0119601336
B1411153650484N00242731WA0119501334
B1411163650484N00242727WA0119401333
B1411173650485N00242723WA0119301332
B1411183650486N00242718WA0119101331
B1411193650486N00242713WA0118801329
B1411203650487N00242707WA0118701326
B1411213650487N00242702WA0118501325
B1411223650487N00242697WA0118301324
B1411233650487N00242692WA0118201322
B1411243650488N00242687WA0118001321
B1411253650489N00242682WA0117901319
B1411263650490N00242677WA0117701317
B1411273650489N00242672WA0117501315
B1411283650489N00242667WA0117301314
B1411293650489N00242662WA0116801312
B1411303650488N00242656WA0116601310
B1411313650489N00242651WA0116601308
B1411323650489N00242645WA0116501306
B1411333650490N00242640WA0116301304
B1411343650490N00242635WA0116101302
B1411353650490N00242630WA0116001300
B1411363650490N00242624WA0115801299
B1411373650489N00242619WA0115601298
B1411383650488N00242614WA0115401296
B1411393650488N00242609WA0115201294
B1411403650487N00242604WA0115001292
B1411413650488N00242598WA0114801289
B1411423650489N00242592WA0114601287
B1411433650490N00242587WA0114301285
B1411443650491N00242582WA0114101283
B1411453650491N00242577WA0113901281
B1411463650492N00242571WA0113701278
B1411473650492N00242566WA0113301275
B1411483650492N00242560WA0113101273
B1411493650494N00242554WA0112801271
B1411503650496N00242549WA0112701268
B1411513650497N00242544WA0112501267
B1411523650499N00242540WA0112501265
B1411533650500N00242535WA0112201264
B1411543650502N00242531WA0112001263
B1411553650504N00242526WA0112001261
B1411563650506N00242522WA0111801259
B1411573650508N00242517WA0111701257
B1411583650510N00242513WA0111601256
B1411593650511N00242508WA0111501255
B1412003650513N00242503WA0111401254
B1412013650514N00242498WA0111301253
B1412023650516N00242494WA0111201252
B1412033650518N00242490WA0111201251
B1412043650520N00242485WA0111001250
B1412053650522N00242481WA0110901249
B1412063650524N00242476WA0110701248
B1412073650526N00242471WA0110601246
B1412083650528N00242466WA0110601245
B1412093650531N00242462WA0110501245
B1412103650533N00242457WA0110401244
B1412113650536N00242453WA0110201243
B1412123650539N00242448WA0110001241
B1412133650542N00242442WA0110001240
B1412143650545N00242437WA0109801239
B1412153650548N00242432WA0109801238
B1412163650550N00242427WA0109801238
B1412173650553N00242422WA0109601237
B1412183650555N00242416WA0109501236
B1412193650558N00242410WA0109301235
B1412203650560N00242403WA0109401234
B1412213650563N00242397WA0109501234
B1412223650566N00242392WA0109801236
B1412233650569N00242389WA0110001238
B1412243650571N00242386WA0110001239
B1412253650573N00242382WA0109701239
B1412263650575N00242378WA0109101237
B1412273650578N00242371WA0108901236
B1412283650581N00242365WA0108901233
B1412293650583N00242359WA0108801232
B1412303650585N00242354WA0109001232
B1412313650587N00242350WA0109001231
B1412323650589N00242346WA0109001231
B1412333650591N00242341WA0108701230
B1412343650593N00242336WA0108601227
B1412353650595N00242330WA0108401224
B1412363650598N00242324WA0108301222
B1412373650601N00242318WA0108301221
B1412383650603N00242314WA0108401221
B1412393650605N00242310WA0108301221
B1412403650607N00242305WA0108001220
B1412413650610N00242298WA0107701216
B1412423650612N00242292WA0107501214
B1412433650615N00242286WA0107501213
B1412443650617N00242281WA0107601212
B1412453650619N00242276WA0107601213
B1412463650622N00242272WA0107501213
B1412473650624N00242266WA0107401212
B1412483650627N00242261WA0107201210
B1412493650630N00242255WA0107101209
B1412503650633N00242250WA0107101208
B1412513650636N00242245WA0107001209
B1412523650638N00242241WA0107001208
B1412533650640N00242236WA0106801208
B1412543650643N00242231WA0106601207
B1412553650646N00242225WA0106401205
B1412563650648N00242220WA0106401204
B1412573650651N00242215WA0106301204
B1412583650653N00242210WA0106301203
B1412593650655N00242205WA0106201203
B1413003650656N00242200WA0106101202
B1413013650658N00242194WA0106001200
B1413023650659N00242187WA0105801199
B1413033650660N00242181WA0105701198
B1413043650661N00242175WA0105601197
B1413053650662N00242169WA0105601197
B1413063650663N00242163WA0105401196
B1413073650665N00242157WA0105301194
B1413083650667N00242150WA0105201193
B1413093650668N00242144WA0105101192
B1413103650670N00242138WA0105001191
B1413113650671N00242132WA0104901190
B1413123650672N00242126WA0104801190
B1413133650673N00242119WA0104601190
B1413143650674N00242113WA0104301190
B1413153650676N00242107WA0104301190
B1413163650678N00242101WA0104301190
B1413173650679N00242095WA0104201189
B1413183650680N00242089WA0104001188
B1413193650681N00242083WA0104001187
B1413203650683N00242077WA0103801185
B1413213650686N00242071WA0103601184
B1413223650688N00242066WA0103601182
B1413233650690N00242060WA0103501181
B1413243650692N00242055WA0103401180
B1413253650694N00242049WA0103301179
B1413263650696N00242045WA0103201177
B1413273650698N00242040WA0103101176
B1413283650701N00242036WA0103001175
B1413293650704N00242031WA0102901173
B1413303650707N00242027WA0102801174
B1413313650709N00242022WA0102801174
B1413323650712N00242018WA0102801174
B1413333650715N00242013WA0102701173
B1413343650718N00242008WA0102601172
B1413353650722N00242004WA0102501171
B1413363650725N00242000WA0102501171
B1413373650727N00241996WA0102301170
B1413383650730N00241992WA0102101168
B1413393650732N00241988WA0101901166
B1413403650735N00241983WA0101701163
B1413413650738N00241978WA0101501160
B1413423650740N00241973WA0101401158
B1413433650742N00241968WA0101301156
B1413443650743N00241962WA0101101154
B1413453650744N00241957WA0100801153
B1413463650746N00241951WA0100601150
B1413473650748N00241945WA0100501148
B1413483650750N00241939WA0100301146
B1413493650753N00241933WA0100201144
B1413503650755N00241928WA0100001142
B1413513650757N00241922WA0099801140
B1413523650759N00241917WA0099501138
B1413533650761N00241911WA0099401136
B1413543650764N00241906WA0099101134
B1413553650768N00241901WA0098701132
B1413563650772N00241896WA0098501130
B1413573650776N00241892WA0098601128
B1413583650779N00241889WA0098701127
B1413593650782N00241885WA0098601126
B1414003650785N00241882WA0098401124
B1414013650790N00241879WA0098101120
B1414023650794N00241875WA0097701116
B1414033650799N00241871WA0097501114
B1414043650803N00241867WA0097301112
B1414053650808N00241864WA0097301110
B1414063650811N00241860WA0097201108
B1414073650815N00241856WA0097001107
B1414083650819N00241852WA0096801105
B1414093650823N00241847WA0096701103
B1414103650827N00241843WA0096501102
B1414113650831N00241838WA0096401101
B1414123650834N00241834WA0096301100
B1414133650838N00241830WA0096201099
B1414143650842N00241827WA0096101098
B1414153650846N00241823WA0096001097
B1414163650850N00241819WA0095801096
B1414173650855N00241816WA0095801095
B1414183650859N00241813WA0095701095
B1414193650862N00241810WA0095501094
B1414203650866N00241806WA0095201092
B1414213650870N00241803WA0094901089
B1414223650875N00241800WA0094601087
B1414233650879N00241797WA0094401086
B1414243650883N00241794WA0094301084
B1414253650887N00241791WA0094301083
B1414263650890N00241787WA0094301081
B1414273650893N00241784WA0094101080
B1414283650895N00241780WA0093901078
B1414293650899N00241775WA0093601076
B1414303650902N00241771WA0093501074
B1414313650905N00241767WA0093301072
B1414323650908N00241763WA0093101070
B1414333650910N00241759WA0092901069
B1414343650913N00241755WA0092601066
B1414353650916N00241750WA0092401063
B1414363650919N00241746WA0092201061
B1414373650922N00241741WA0092101059
B1414383650925N00241738WA0092101058
B1414393650927N00241734WA0092001057
B1414403650930N00241731WA0091801056
B1414413650934N00241728WA0091501053
B1414423650938N00241723WA0091101050
B1414433650942N00241718WA0091001048
B1414443650946N00241713WA0091001046
B1414453650950N00241709WA0091101046
B1414463650953N00241706WA0091101046
B1414473650956N00241703WA0091001045
B1414483650960N00241700WA0090701044
B1414493650964N00241696WA0090401041
B1414503650968N00241692WA0090201038
B1414513650971N00241687WA0090101036
B1414523650974N00241684WA0090001035
B1414533650977N00241681WA0089801034
B1414543650980N00241677WA0089601033
B1414553650984N00241674WA0089201030
B1414563650987N00241669WA0089101027
B1414573650991N00241665WA0088501024
B1414583650993N00241661WA0088301022
B1414593650996N00241657WA0088201021
B1415003650999N00241653WA0088201019
B1415013651001N00241649WA0087901016
B1415023651003N00241643WA0087601012
B1415033651005N00241638WA0087501010
B1415043651006N00241632WA0087401009
B1415053651007N00241627WA0087301008
B1415063651008N00241623WA0087101007
B1415073651009N00241617WA0086901005
B1415083651011N00241611WA0086601003
B1415093651012N00241605WA0086401001
B1415103651014N00241600WA0086301000
B1415113651016N00241595WA0086400999
B1415123651018N00241589WA0086300998
B1415133651019N00241584WA0086200997
B1415143651020N00241578WA0086100996
B1415153651022N00241572WA0086000995
B1415163651023N00241566WA0086000994
B1415173651025N00241561WA0085900995
B1415183651027N00241555WA0086100995
B1415193651028N00241551WA0086100995
B1415203651029N00241546WA0085900995
B1415213651031N00241541WA0085300994
B1415223651033N00241535WA0085300992
B1415233651036N00241529WA0085300991
B1415243651038N00241524WA0085300990
B1415253651041N00241519WA0085300990
B1415263651044N00241515WA0085300989
B1415273651047N00241511WA0085200989
B1415283651049N00241506WA0085100988
B1415293651053N00241502WA0084900986
B1415303651056N00241497WA0084700985
B1415313651059N00241493WA0084500983
B1415323651062N00241488WA0084300981
B1415333651065N00241483WA0084300980
B1415343651068N00241478WA0084200978
B1415353651072N00241473WA0084000977
B1415363651076N00241468WA0084100977
B1415373651079N00241465WA0084300977
B1415383651082N00241461WA0084300978
B1415393651084N00241457WA0084300978
B1415403651085N00241452WA0084300979
B1415413651086N00241446WA0084300978
B1415423651086N00241441WA0084000977
B1415433651088N00241436WA0083700977
B1415443651091N00241431WA0083600976
B1415453651094N00241428WA0083600975
B1415463651098N00241424WA0083800975
B1415473651101N00241420WA0083700974
B1415483651104N00241416WA0083500973
B1415493651108N00241412WA0083400972
B1415503651111N00241408WA0083400970
B1415513651115N00241404WA0083300969
B1415523651119N00241401WA0083200969
B1415533651122N00241397WA0083100968
B1415543651125N00241394WA0082900967
B1415553651129N00241392WA0082600966
B1415563651134N00241389WA0082300964
B1415573651139N00241387WA0082400962
B1415583651143N00241384WA0082400961
B1415593651148N00241381WA0082200960
B1416003651152N00241379WA0082200959
B1416013651156N00241377WA0082000958
B1416023651160N00241375WA0081900957
B1416033651165N00241373WA0081600956
B1416043651169N00241370WA0081600954
B1416053651173N00241366WA0081500953
B1416063651177N00241363WA0081400952
B1416073651181N00241360WA0081300951
B1416083651185N00241356WA0081200950
B1416093651188N00241353WA0081000948
B1416103651192N00241349WA0080800946
B1416113651196N00241345WA0080700945
B1416123651200N00241341WA0080700943
B1416133651203N00241338WA0080600943
B1416143651207N00241335WA0080500942
B1416153651210N00241331WA0080300940
B1416163651214N00241328WA0080100938
B1416173651218N00241324WA0080000936
B1416183651222N00241321WA0079800935
B1416193651226N00241317WA0079800933
B1416203651229N00241313WA0079700932
B1416213651232N00241309WA0079500931
B1416223651236N00241306WA0079400930
B1416233651239N00241301WA0079100928
B1416243651243N00241297WA0078900926
B1416253651246N00241292WA0078800925
B1416263651249N00241288WA0078700923
B1416273651253N00241284WA0078400922
B1416283651256N00241280WA0078200921
B1416293651260N00241276WA0078200919
B1416303651264N00241272WA0078100918
B1416313651268N00241268WA0078000917
B1416323651272N00241264WA0077900916
B1416333651275N00241260WA0077900915
B1416343651278N00241256WA0077800914
B1416353651281N00241252WA0077700913
B1416363651285N00241248WA0077500911
B1416373651288N00241244WA0077400910
B1416383651292N00241239WA0077200908
B1416393651295N00241235WA0077100907
B1416403651298N00241230WA0076900906
B1416413651300N00241226WA0076700905
B1416423651303N00241221WA0076500903
B1416433651307N00241216WA0076400902
B1416443651310N00241211WA0076300901
B1416453651313N00241207WA0076300900
B1416463651316N00241202WA0076300899
B1416473651320N00241198WA0076100898
B1416483651324N00241194WA0075900896
B1416493651328N00241190WA0075600894
B1416503651332N00241186WA0075500892
B1416513651336N00241182WA0075400890
B1416523651340N00241178WA0075300889
B1416533651344N00241174WA0075200887
B1416543651348N00241171WA0075000886
B1416553651353N00241167WA0074800884
B1416563651358N00241164WA0074600882
B1416573651363N00241161WA0074200880
B1416583651368N00241158WA0074200879
B1416593651373N00241155WA0074200878
B1417003651378N00241152WA0074200878
B1417013651382N00241150WA0074000877
B1417023651387N00241147WA0073800876
B1417033651392N00241144WA0073700874
B1417043651397N00241141WA0073600873
B1417053651402N00241138WA0073400872
B1417063651406N00241135WA0073300871
B1417073651411N00241132WA0073200870
B1417083651416N00241129WA0073000868
B1417093651421N00241126WA0072900867
B1417103651426N00241123WA0072800865
B1417113651430N00241119WA0072700864
B1417123651435N00241115WA0072700863
B1417133651439N00241112WA0072600863
B1417143651443N00241108WA0072500862
B1417153651447N00241104WA0072400861
B1417163651452N00241100WA0072200859
B1417173651457N00241096WA0072100858
B1417183651463N00241093WA0072100857
B1417193651468N00241090WA0072000856
B1417203651472N00241088WA0071800856
B1417213651477N00241085WA0071600855
B1417223651482N00241082WA0071400854
B1417233651487N00241079WA0071400852
B1417243651492N00241077WA0071400851
B1417253651497N00241074WA0071400851
B1417263651502N00241072WA0071400851
B1417273651507N00241070WA0071300850
B1417283651512N00241068WA0071300850
B1417293651517N00241067WA0071200849
B1417303651523N00241064WA0071000847
B1417313651529N00241061WA0070900845
B1417323651534N00241058WA0070800844
B1417333651539N00241056WA0070800844
B1417343651544N00241053WA0070800844
B1417353651549N00241050WA0070600843
B1417363651554N00241046WA0070100840
B1417373651558N00241042WA0069900839
B1417383651563N00241038WA0069800837
B1417393651568N00241034WA0069900836
B1417403651573N00241032WA0069900835
B1417413651579N00241029WA0069800835
B1417423651584N00241027WA0069600834
B1417433651589N00241024WA0069600832
B1417443651595N00241021WA0069500831
B1417453651600N00241018WA0069300830
B1417463651605N00241015WA0069200829
B1417473651609N00241011WA0069100828
B1417483651614N00241008WA0068900827
B1417493651619N00241004WA0068800825
B1417503651624N00241000WA0068800824
B1417513651629N00240997WA0068700823
B1417523651635N00240994WA0068700822
B1417533651640N00240991WA0068600821
B1417543651645N00240987WA0068500821
B1417553651650N00240983WA0068400820
B1417563651654N00240978WA0068200819
B1417573651659N00240974WA0068200818
B1417583651664N00240970WA0068100817
B1417593651669N00240967WA0068000816
B1418003651674N00240963WA0067800816
B1418013651679N00240959WA0067700815
B1418023651684N00240954WA0067800815
B1418033651689N00240949WA0067700814
B1418043651694N00240944WA0067700813
B1418053651699N00240940WA0067700813
B1418063651704N00240935WA0067600813
B1418073651709N00240930WA0067500812
B1418083651714N00240925WA0067300811
B1418093651719N00240919WA0067300810
B1418103651723N00240913WA0067500810
B1418113651727N00240908WA0067600811
B1418123651731N00240902WA0067500811
B1418133651734N00240896WA0067100810
B1418143651737N00240889WA0066900808
B1418153651739N00240882WA0066700805
B1418163651742N00240876WA0066700804
B1418173651744N00240869WA0066800805
B1418183651747N00240863WA0066900805
B1418193651749N00240857WA0067000805
B1418203651751N00240851WA0066800805
B1418213651753N00240844WA0066500804
B1418223651755N00240837WA0066300803
B1418233651756N00240829WA0066300801
B1418243651758N00240822WA0066400802
B1418253651759N00240816WA0066600803
B1418263651760N00240811WA0066800804
B1418273651761N00240806WA0066800805
B1418283651761N00240802WA0066700804
B1418293651762N00240797WA0066600803
B1418303651763N00240792WA0066200801
B1418313651764N00240786WA0065900799
B1418323651764N00240779WA0065800797
B1418333651764N00240772WA0065700795
B1418343651764N00240766WA0065800795
B1418353651764N00240761WA0065800794
B1418363651764N00240756WA0065800794
B1418373651764N00240751WA0065600793
B1418383651763N00240745WA0065300792
B1418393651764N00240738WA0065100789
B1418403651764N00240730WA0065000787
B1418413651764N00240724WA0064900786
B1418423651764N00240718WA0065000786
B1418433651764N00240713WA0065200785
B1418443651764N00240709WA0065100786
B1418453651764N00240704WA0064900785
B1418463651764N00240699WA0064800784
B1418473651763N00240693WA0064500783
B1418483651763N00240687WA0064400781
B1418493651763N00240680WA0064300780
B1418503651764N00240674WA0064100780
B1418513651764N00240668WA0064100779
B1418523651764N00240662WA0064100779
B1418533651763N00240657WA0064100778
B1418543651762N00240651WA0064100777
B1418553651762N00240645WA0064000777
B1418563651762N00240639WA0063800776
B1418573651761N00240633WA0063600774
B1418583651760N00240627WA0063400773
B1418593651759N00240621WA0063300771
B1419003651758N00240615WA0063200770
B1419013651757N00240610WA0063100768
B1419023651755N00240604WA0062600765
B1419033651754N00240599WA0062500763
B1419043651752N00240594WA0062300761
B1419053651750N00240588WA0061900759
B1419063651748N00240582WA0061700756
B1419073651746N00240576WA0061800754
B1419083651745N00240569WA0061500752
B1419093651743N00240563WA0061300751
B1419103651741N00240558WA0061100750
B1419113651739N00240553WA0061100749
B1419123651738N00240547WA0061000748
B1419133651736N00240541WA0060900746
B1419143651735N00240534WA0061000745
B1419153651734N00240528WA0061000745
B1419163651733N00240522WA0061100746
B1419173651732N00240517WA0061000746
B1419183651731N00240512WA0060800745
B1419193651729N00240507WA0060400743
B1419203651726N00240502WA0060300741
B1419213651723N00240496WA0059900739
B1419223651722N00240489WA0059700737
B1419233651720N00240483WA0059700735
B1419243651719N00240477WA0059600734
B1419253651717N00240471WA0059500733
B1419263651714N00240466WA0059400731
B1419273651711N00240462WA0059100730
B1419283651707N00240457WA0059100729
B1419293651704N00240454WA0059300728
B1419303651701N00240450WA0059500728
B1419313651699N00240447WA0059500729
B1419323651696N00240444WA0059500729
B1419333651693N00240442WA0059300729
B1419343651689N00240441WA0059100728
B1419353651685N00240440WA0059200727
B1419363651682N00240440WA0059400728
B1419373651679N00240439WA0059700730
B1419383651678N00240439WA0059800731
B1419393651676N00240439WA0059800732
B1419403651674N00240438WA0059400732
B1419413651670N00240439WA0059100731
B1419423651667N00240438WA0059100730
B1419433651664N00240437WA0059300731
B1419443651661N00240436WA0059400731
B1419453651659N00240435WA0059300730
B1419463651657N00240435WA0059000729
B1419473651654N00240436WA0058600727
B1419483651651N00240438WA0058300722
B1419493651648N00240442WA0058500721
B1419503651647N00240447WA0058300721
B1419513651646N00240451WA0058300720
B1419523651646N00240455WA0058200719
B1419533651645N00240459WA0058100719
B1419543651645N00240464WA0058100717
B1419553651645N00240469WA0057800716
B1419563651646N00240476WA0057700715
B1419573651648N00240481WA0057900714
B1419583651650N00240486WA0057800714
B1419593651653N00240491WA0057700714
B1420003651656N00240496WA0057500713
B1420013651660N00240502WA0057300712
B1420023651664N00240507WA0057300710
B1420033651669N00240513WA0057300709
B1420043651674N00240518WA0057300708
B1420053651678N00240522WA0057300708
B1420063651681N00240526WA0057300708
B1420073651684N00240530WA0057300708
B1420083651686N00240535WA0057300707
B1420093651689N00240540WA0057300708
B1420103651692N00240544WA0057500708
B1420113651694N00240547WA0057600709
B1420123651696N00240550WA0057800711
B1420133651698N00240553WA0057700711
B1420143651699N00240557WA0057500712
B1420153651700N00240561WA0057300712
B1420163651702N00240567WA0057200711
B1420173651704N00240572WA0057300711
B1420183651705N00240576WA0057600713
B1420193651705N00240579WA0057800714
B1420203651704N00240581WA0057700713
B1420213651703N00240583WA0057300710
B1420223651701N00240585WA0057200708
B1420233651697N00240586WA0057200707
B1420243651694N00240586WA0057100706
B1420253651690N00240582WA0057000705
B1420263651688N00240578WA0057200705
B1420273651685N00240574WA0057300705
B1420283651684N00240571WA0057500705
B1420293651682N00240568WA0057600706
B1420303651680N00240566WA0057800707
B1420313651678N00240566WA0057900708
B1420323651675N00240566WA0057400708
B1420333651671N00240568WA0057300707
B1420343651669N00240571WA0057300707
B1420353651667N00240573WA0057300707
B1420363651664N00240575WA0057300707
B1420373651662N00240576WA0057300707
B1420383651660N00240576WA0057300707
B1420393651657N00240574WA0057300707
B1420403651654N00240571WA0057100706
B1420413651652N00240566WA0057100706
B1420423651651N00240560WA0057000705
B1420433651649N00240555WA0057000705
B1420443651647N00240551WA0056800705
B1420453651645N00240547WA0056700704
B1420463651643N00240543WA0056600703
B1420473651641N00240537WA0056500702
B1420483651640N00240531WA0056400701
B1420493651640N00240524WA0056400700
B1420503651640N00240518WA0056400700
B1420513651641N00240513WA0056600700
B1420523651640N00240508WA0056500700
B1420533651639N00240504WA0056200699
B1420543651638N00240498WA0055900698
B1420553651637N00240491WA0055900696
B1420563651637N00240484WA0055900696
B1420573651638N00240477WA0055900696
B1420583651638N00240472WA0056100697
B1420593651638N00240467WA0056100697
B1421003651636N00240463WA0056100697
B1421013651634N00240459WA0055900697
B1421023651631N00240454WA0055900696
B1421033651629N00240449WA0055900696
B1421043651628N00240444WA0056100696
B1421053651627N00240440WA0056200696
B1421063651627N00240436WA0056200696
B1421073651625N00240433WA0056000696
B1421083651623N00240430WA0055800694
B1421093651619N00240425WA0055500691
B1421103651616N00240421WA0055400689
B1421113651613N00240416WA0055400688
B1421123651610N00240413WA0055400688
B1421133651608N00240411WA0055400687
B1421143651605N00240410WA0055200687
B1421153651602N00240411WA0054900685
B1421163651599N00240412WA0054600684
B1421173651596N00240414WA0054500682
B1421183651593N00240416WA0054500682
B1421193651590N00240418WA0054400681
B1421203651587N00240418WA0054400680
B1421213651582N00240418WA0054300678
B1421223651578N00240417WA0054100676
B1421233651573N00240417WA0054000675
B1421243651570N00240417WA0054000675
B1421253651566N00240417WA0053900675
B1421263651563N00240418WA0053900674
B1421273651560N00240419WA0053700674
B1421283651556N00240418WA0053500672
B1421293651552N00240417WA0053300670
B1421303651548N00240415WA0053200669
B1421313651544N00240411WA0053000667
B1421323651541N00240407WA0053000666
B1421333651538N00240404WA0053000666
B1421343651536N00240403WA0052800665
B1421353651533N00240401WA0052600663
B1421363651530N00240400WA0052500662
B1421373651527N00240399WA0052400660
B1421383651525N00240399WA0052300659
B1421393651523N00240400WA0052200657
B1421403651522N00240401WA0052100655
B1421413651522N00240401WA0052000658
B1421423651523N00240401WA0051900658
B1421433651523N00240401WA0052000658
B1421443651523N00240401WA0052000657
B1421453651523N00240401WA0052000657
B1421463651523N00240401WA0052000657
B1421473651523N00240401WA0052000657
B1421483651523N00240401WA0052000657
B1421493651523N00240401WA0052000657
B1421503651523N00240400WA0052000656
B1421513651523N00240400WA0052000656
B1421523651523N00240400WA0052000656
B1421533651524N00240401WA0051900656
B1421543651524N00240401WA0052000656
B1421553651524N00240401WA0052000656
B1421563651524N00240400WA0052000656
B1421573651524N00240400WA0052000655
B1421583651524N00240400WA0051900655
B1421593651524N00240400WA0052000655
B1422003651524N00240400WA0052000655
B1422013651524N00240400WA0052000655
B1422023651523N00240400WA0052000655
B1422033651523N00240400WA0052000655
B1422043651523N00240399WA0052000655
B1422053651523N00240399WA0052000655
B1422063651523N00240399WA0052000655
B1422073651524N00240400WA0052000655
B1422083651524N00240400WA0052000655
B1422093651523N00240400WA0052000655
B1422103651523N00240400WA0052000655
B1422113651523N00240400WA0052000655
B1422123651524N00240400WA0052000655
B1422133651524N00240399WA0052000655
B1422143651524N00240400WA0052000655
B1422153651524N00240400WA0052000655
B1422163651524N00240400WA0052000655
B1422173651524N00240400WA0052000655
B1422183651524N00240400WA0052000654
B1422193651524N00240400WA0052000654
B1422203651524N00240400WA0052000654
B1422213651524N00240400WA0052000654
B1422223651524N00240400WA0052000654
B1422233651524N00240400WA0052000654
B1422243651524N00240401WA0052000654
B1422253651524N00240400WA0052000654
B1422263651524N00240400WA0052000653
B1422273651524N00240400WA0052000653
B1422283651524N00240401WA0052000653
B1422293651524N00240401WA0052000653
B1422303651524N00240401WA0052000653
B1422313651524N00240401WA0052000653
B1422323651524N00240401WA0052000652
B1422333651524N00240401WA0052000652
B1422343651524N00240401WA0052000652
B1422353651524N00240402WA0052000652
B1422363651524N00240402WA0052000652
B1422373651525N00240402WA0052000652
B1422383651525N00240402WA0052000652
B1422393651524N00240402WA0052000652
B1422403651524N00240402WA0052000652
B1422413651524N00240402WA0052000652
B1422423651523N00240402WA0052000652
B1422433651523N00240402WA0052000652
B1422443651523N00240402WA0052000652
B1422453651522N00240402WA0052000652
B1422463651522N00240402WA0052100652
B1422473651521N00240402WA0052100652
B1422483651521N00240402WA0052100652
B1422493651521N00240402WA0052100652
B1422503651521N00240402WA0052200652
B1422513651520N00240401WA0052200652
B1422523651520N00240401WA0052200652
B1422533651520N00240401WA0052300652
B1422543651520N00240401WA0052300652
B1422553651519N00240401WA0052300652
B1422563651519N00240401WA0052300652
B1422573651519N00240401WA0052300652
B1422583651519N00240400WA0052300652
B1422593651519N00240400WA0052300652
B1423003651518N00240400WA0052400652
B1423013651518N00240400WA0052400652
B1423023651518N00240400WA0052400652
B1423033651517N00240401WA0052400652
B1423043651517N00240401WA0052500652
B1423053651517N00240401WA0052500652
B1423063651517N00240400WA0052500652
B1423073651517N00240400WA0052500652
B1423083651516N00240400WA0052500652
B1423093651516N00240400WA0052500652
B1423103651516N00240400WA0052600652
B1423113651516N00240400WA0052600652
B1423123651516N00240400WA0052600652
B1423133651516N00240399WA0052700652
B1423143651515N00240399WA0052800653
B1423153651515N00240399WA0052800653
B1423163651515N00240398WA0052800653
B1423173651515N00240398WA0052800653
B1423183651514N00240398WA0052800654
B1423193651514N00240399WA0052900654
B1423203651513N00240399WA0052900654
B1423213651513N00240399WA0052900654
B1423223651512N00240398WA0052900654
B1423233651512N00240398WA0052900654
B1423243651512N00240398WA0052900654
B1423253651511N00240397WA0053000655
B1423263651511N00240397WA0053000655
B1423273651510N00240396WA0053000655
B1423283651510N00240396WA0053000655
B1423293651510N00240396WA0053000655
B1423303651510N00240396WA0053000656
B1423313651509N00240395WA0053000656
B1423323651509N00240395WA0053000656
B1423333651509N00240394WA0053000656
B1423343651509N00240394WA0053000656
B1423353651508N00240394WA0053000656
B1423363651508N00240394WA0053000656
B1423373651508N00240394WA0053000656
B1423383651508N00240393WA0053000657
B1423393651508N00240393WA0053100657
B1423403651508N00240393WA0053000657
B1423413651508N00240393WA0053000657
B1423423651508N00240393WA0053000657
B1423433651508N00240393WA0053000657
B1423443651508N00240393WA0053000657
LXGD GpsDump version 4.66
LXGD Downloaded 2012-12-28  09:21:46
G5027888D9A376D52
